[[{"header":{"parameterUnit":"m.s-1","parameterCategory":1,"la1":30.6,"la2":29.2853,"lo1":-89.7004,"lo2":-87.6739,"dy":0.0162,"dx":0.0183,"nx":112,"ny":82,"refTime":"2023-06-07T18:00:00:Z","depth":0,"parameterNumber":2,"parameterNumberName":"U-component_of_WINDS"},"data":[0.0,0.0,0.0,0.0,0.0,0.0,0.0,0.0,0.0,0.0,0.0,0.0,0.0,0.0,0.0,0.0,0.0,0.0,0.0,0.0,0.0,0.0,0.0,0.0,0.0,0.0,0.0,0.0,0.0,0.0,0.0,0.0,0.0,0.0,0.0,0.0,0.0,0.0,0.0,0.0,0.0,0.0,0.0,0.0,0.0,0.0,0.0,0.0,0.0,0.0,0.0,0.0,0.0,0.0,0.0,0.0,0.0,0.0,0.0,0.0,0.0,0.0,0.0,0.0,0.0,0.0,0.0,0.0,0.0,0.0,0.0,0.0,0.0,0.0,0.0,0.0,0.0,0.0,0.0,0.0,0.0,0.0,0.0,0.0,0.0,0.0,0.0,0.0,0.0,0.0,-2.2574,-2.412,-2.4898,-2.5004,-2.4337,-2.361,-2.2846,-2.2021,0.0,0.0,0.0,0.0,0.0,0.0,0.0,0.0,0.0,0.0,0.0,0.0,0.0,0.0,0.0,0.0,0.0,0.0,0.0,0.0,0.0,0.0,0.0,0.0,0.0,0.0,0.0,0.0,0.0,0.0,0.0,0.0,0.0,0.0,0.0,0.0,0.0,0.0,0.0,0.0,0.0,0.0,0.0,0.0,0.0,0.0,0.0,0.0,0.0,0.0,0.0,0.0,0.0,0.0,0.0,0.0,0.0,0.0,0.0,0.0,0.0,0.0,0.0,0.0,0.0,0.0,0.0,0.0,0.0,0.0,0.0,0.0,0.0,0.0,0.0,0.0,0.0,0.0,0.0,0.0,0.0,0.0,0.0,0.0,0.0,0.0,0.0,0.0,0.0,0.0,0.0,0.0,0.0,0.0,0.0,0.0,0.0,0.0,0.0,0.0,0.0,0.0,0.0,0.0,-2.339,-2.4933,-2.5241,-2.5229,-2.5123,-2.4373,-2.3599,-2.2883,0.0,0.0,0.0,0.0,0.0,0.0,0.0,0.0,0.0,0.0,0.0,0.0,0.0,0.0,0.0,0.0,0.0,0.0,0.0,0.0,0.0,0.0,0.0,0.0,0.0,0.0,0.0,0.0,0.0,0.0,0.0,0.0,0.0,0.0,0.0,0.0,0.0,0.0,0.0,0.0,0.0,0.0,0.0,0.0,0.0,0.0,0.0,0.0,0.0,0.0,0.0,0.0,0.0,0.0,0.0,0.0,0.0,0.0,0.0,0.0,0.0,0.0,0.0,0.0,0.0,0.0,0.0,0.0,0.0,0.0,0.0,0.0,0.0,0.0,0.0,0.0,0.0,0.0,0.0,0.0,0.0,0.0,0.0,0.0,0.0,0.0,0.0,0.0,0.0,0.0,0.0,0.0,0.0,0.0,0.0,0.0,0.0,0.0,0.0,0.0,0.0,0.0,0.0,-2.3756,-2.4528,-2.5229,-2.5312,-2.5312,-2.5312,-2.4564,-2.3793,-2.3069,-2.1907,0.0,0.0,0.0,0.0,0.0,0.0,0.0,0.0,0.0,0.0,0.0,0.0,0.0,0.0,0.0,0.0,0.0,0.0,0.0,0.0,0.0,0.0,0.0,0.0,0.0,0.0,0.0,0.0,0.0,0.0,0.0,0.0,0.0,0.0,0.0,0.0,0.0,0.0,0.0,0.0,0.0,0.0,0.0,0.0,0.0,0.0,0.0,0.0,0.0,0.0,0.0,0.0,0.0,0.0,0.0,0.0,0.0,0.0,0.0,0.0,0.0,0.0,0.0,0.0,0.0,0.0,0.0,0.0,0.0,0.0,0.0,0.0,0.0,0.0,0.0,0.0,0.0,0.0,0.0,0.0,0.0,0.0,0.0,0.0,0.0,0.0,0.0,0.0,0.0,0.0,0.0,0.0,0.0,0.0,0.0,0.0,0.0,0.0,0.0,0.0,0.0,0.0,-2.4671,-2.5312,-2.5312,-2.5312,-2.5312,-2.5312,-2.4755,-2.4032,-2.3196,-2.2557,0.0,0.0,0.0,0.0,0.0,0.0,0.0,0.0,0.0,0.0,0.0,0.0,0.0,0.0,0.0,0.0,0.0,0.0,0.0,0.0,0.0,0.0,0.0,0.0,0.0,0.0,0.0,0.0,0.0,0.0,0.0,0.0,0.0,0.0,0.0,0.0,0.0,0.0,0.0,0.0,0.0,0.0,0.0,0.0,0.0,0.0,0.0,0.0,0.0,0.0,0.0,0.0,0.0,0.0,0.0,0.0,0.0,0.0,0.0,0.0,0.0,0.0,0.0,0.0,0.0,0.0,0.0,0.0,0.0,0.0,0.0,0.0,0.0,0.0,0.0,0.0,0.0,0.0,0.0,0.0,0.0,0.0,0.0,0.0,0.0,0.0,0.0,0.0,0.0,0.0,0.0,0.0,0.0,0.0,0.0,0.0,0.0,0.0,0.0,0.0,0.0,0.0,-2.4384,-2.5312,-2.5312,-2.5312,-2.5312,-2.5312,-2.5229,-2.475,-2.3613,-2.3498,0.0,0.0,0.0,0.0,0.0,0.0,0.0,0.0,0.0,0.0,0.0,0.0,0.0,0.0,0.0,0.0,0.0,0.0,0.0,0.0,0.0,0.0,0.0,0.0,0.0,0.0,0.0,0.0,0.0,0.0,0.0,0.0,0.0,0.0,0.0,0.0,0.0,0.0,0.0,0.0,0.0,0.0,0.0,0.0,0.0,0.0,0.0,0.0,0.0,0.0,0.0,0.0,0.0,0.0,0.0,0.0,0.0,0.0,0.0,0.0,0.0,0.0,0.0,0.0,0.0,0.0,0.0,0.0,0.0,0.0,0.0,0.0,0.0,0.0,0.0,0.0,0.0,0.0,0.0,0.0,0.0,0.0,0.0,0.0,0.0,0.0,0.0,0.0,0.0,0.0,0.0,0.0,0.0,0.0,0.0,0.0,0.0,0.0,0.0,0.0,0.0,0.0,-2.5419,-2.5937,-2.6249,-2.6285,-2.6285,-2.6285,-2.5781,-2.51,-2.4176,0.0,0.0,0.0,0.0,0.0,0.0,0.0,0.0,0.0,0.0,0.0,0.0,0.0,0.0,0.0,0.0,0.0,0.0,0.0,0.0,0.0,0.0,0.0,0.0,0.0,0.0,0.0,0.0,0.0,0.0,0.0,0.0,0.0,0.0,0.0,0.0,0.0,0.0,0.0,0.0,0.0,0.0,0.0,0.0,0.0,0.0,0.0,0.0,0.0,0.0,0.0,0.0,0.0,0.0,0.0,0.0,0.0,0.0,0.0,0.0,0.0,0.0,0.0,0.0,0.0,0.0,0.0,0.0,0.0,0.0,0.0,0.0,0.0,0.0,0.0,0.0,0.0,0.0,0.0,0.0,0.0,0.0,0.0,0.0,0.0,0.0,0.0,0.0,0.0,0.0,0.0,0.0,0.0,0.0,0.0,0.0,0.0,0.0,0.0,0.0,0.0,0.0,-2.5373,-2.6014,-2.6502,-2.6861,-2.6898,-2.6784,-2.6508,-2.595,-2.5195,-2.4229,0.0,0.0,0.0,0.0,0.0,0.0,0.0,0.0,0.0,0.0,0.0,0.0,0.0,0.0,0.0,0.0,0.0,0.0,0.0,0.0,0.0,0.0,0.0,0.0,0.0,0.0,0.0,0.0,0.0,0.0,0.0,0.0,0.0,0.0,0.0,0.0,0.0,0.0,0.0,0.0,0.0,0.0,0.0,0.0,0.0,0.0,0.0,0.0,0.0,0.0,0.0,0.0,0.0,0.0,0.0,0.0,0.0,0.0,0.0,0.0,0.0,0.0,0.0,0.0,0.0,0.0,0.0,0.0,0.0,0.0,0.0,0.0,0.0,0.0,0.0,0.0,0.0,0.0,0.0,0.0,0.0,0.0,0.0,0.0,0.0,0.0,0.0,0.0,0.0,0.0,0.0,0.0,0.0,0.0,0.0,0.0,0.0,0.0,0.0,0.0,0.0,0.0,-2.4355,-2.5874,-2.691,-2.691,-2.691,-2.6569,-2.5693,-2.5615,-2.5065,0.0,0.0,0.0,0.0,0.0,0.0,0.0,0.0,0.0,0.0,0.0,0.0,0.0,0.0,0.0,0.0,0.0,0.0,0.0,0.0,0.0,0.0,0.0,0.0,0.0,0.0,0.0,0.0,0.0,0.0,0.0,0.0,0.0,0.0,0.0,0.0,0.0,0.0,0.0,0.0,0.0,0.0,0.0,0.0,0.0,0.0,0.0,0.0,0.0,0.0,0.0,0.0,0.0,0.0,0.0,0.0,0.0,0.0,0.0,0.0,0.0,0.0,0.0,0.0,0.0,0.0,0.0,0.0,0.0,0.0,0.0,0.0,0.0,0.0,0.0,0.0,0.0,0.0,0.0,0.0,0.0,0.0,0.0,0.0,0.0,0.0,0.0,0.0,0.0,0.0,0.0,0.0,0.0,0.0,0.0,0.0,0.0,0.0,0.0,0.0,0.0,0.0,0.0,-2.5656,-2.6769,-2.735,-2.7154,-2.7676,-2.7676,-2.6817,-2.6109,-2.5304,-2.4334,0.0,0.0,0.0,0.0,0.0,0.0,0.0,0.0,0.0,0.0,0.0,0.0,0.0,0.0,0.0,0.0,0.0,0.0,0.0,0.0,0.0,0.0,0.0,0.0,0.0,0.0,0.0,0.0,0.0,0.0,0.0,0.0,0.0,0.0,0.0,0.0,0.0,0.0,0.0,0.0,0.0,0.0,0.0,0.0,0.0,0.0,0.0,0.0,0.0,0.0,0.0,0.0,0.0,0.0,0.0,0.0,0.0,0.0,0.0,0.0,0.0,0.0,0.0,0.0,0.0,0.0,0.0,0.0,0.0,0.0,0.0,0.0,0.0,0.0,0.0,0.0,0.0,0.0,0.0,0.0,0.0,0.0,0.0,0.0,0.0,0.0,0.0,0.0,0.0,0.0,0.0,0.0,0.0,0.0,0.0,0.0,0.0,0.0,0.0,0.0,0.0,0.0,-2.6001,-2.6926,-2.7545,-2.7689,-2.8179,-2.8007,-2.6753,-2.6121,-2.5284,-2.4026,0.0,0.0,0.0,0.0,0.0,0.0,0.0,0.0,0.0,0.0,0.0,0.0,0.0,0.0,0.0,0.0,0.0,0.0,0.0,0.0,0.0,0.0,0.0,0.0,0.0,0.0,0.0,0.0,0.0,0.0,0.0,0.0,0.0,0.0,0.0,0.0,0.0,0.0,0.0,0.0,0.0,0.0,0.0,0.0,0.0,0.0,0.0,0.0,0.0,0.0,0.0,0.0,0.0,0.0,0.0,0.0,0.0,0.0,0.0,0.0,0.0,0.0,0.0,0.0,0.0,0.0,0.0,0.0,0.0,0.0,0.0,0.0,0.0,0.0,0.0,0.0,0.0,0.0,0.0,0.0,0.0,0.0,0.0,0.0,0.0,0.0,0.0,0.0,0.0,0.0,0.0,0.0,0.0,0.0,0.0,0.0,0.0,0.0,0.0,0.0,0.0,0.0,-2.5514,-2.6588,-2.7429,-2.8047,-2.8219,-2.7539,-2.583,-2.5694,-2.4946,-2.3222,0.0,0.0,0.0,0.0,0.0,0.0,0.0,0.0,0.0,0.0,0.0,0.0,0.0,0.0,0.0,0.0,0.0,0.0,0.0,0.0,0.0,0.0,0.0,0.0,0.0,0.0,0.0,0.0,0.0,0.0,0.0,0.0,0.0,0.0,0.0,0.0,0.0,0.0,0.0,0.0,0.0,0.0,0.0,0.0,0.0,0.0,0.0,0.0,0.0,0.0,0.0,0.0,0.0,0.0,0.0,0.0,0.0,0.0,0.0,0.0,-1.9313,-1.8691,0.0,0.0,0.0,0.0,0.0,0.0,0.0,0.0,0.0,0.0,0.0,0.0,0.0,0.0,0.0,0.0,0.0,0.0,0.0,0.0,0.0,0.0,0.0,0.0,0.0,0.0,0.0,0.0,0.0,0.0,0.0,0.0,0.0,0.0,0.0,0.0,0.0,0.0,0.0,0.0,-2.4819,-2.6216,-2.6723,-2.5505,-2.5955,-2.5955,-2.4872,-2.4787,-2.4284,-2.3178,-2.3091,0.0,0.0,0.0,0.0,0.0,0.0,0.0,0.0,0.0,0.0,0.0,0.0,0.0,0.0,0.0,0.0,0.0,0.0,0.0,0.0,0.0,0.0,0.0,0.0,0.0,0.0,0.0,0.0,0.0,0.0,0.0,0.0,0.0,0.0,0.0,0.0,0.0,0.0,0.0,0.0,0.0,0.0,0.0,0.0,0.0,0.0,0.0,0.0,0.0,0.0,0.0,0.0,0.0,0.0,0.0,0.0,0.0,0.0,0.0,-2.1452,-2.0553,0.0,0.0,0.0,0.0,0.0,0.0,0.0,0.0,0.0,0.0,0.0,0.0,0.0,0.0,0.0,0.0,0.0,0.0,0.0,0.0,0.0,0.0,0.0,0.0,0.0,0.0,0.0,0.0,0.0,0.0,0.0,0.0,0.0,0.0,0.0,0.0,0.0,0.0,0.0,0.0,-2.4498,-2.5337,-2.5704,-2.5158,-2.5537,-2.5453,-2.4584,-2.4498,-2.4112,-2.3178,-2.3091,0.0,0.0,0.0,0.0,0.0,0.0,0.0,0.0,0.0,0.0,0.0,0.0,0.0,0.0,0.0,0.0,0.0,0.0,0.0,0.0,0.0,0.0,0.0,0.0,0.0,0.0,0.0,0.0,0.0,0.0,0.0,0.0,0.0,0.0,0.0,0.0,0.0,0.0,0.0,0.0,0.0,0.0,0.0,0.0,0.0,0.0,0.0,0.0,0.0,0.0,0.0,0.0,0.0,-2.3247,-2.3409,-2.3537,-2.3746,-2.4179,-2.4672,-2.4214,-2.3129,-2.1652,-2.1544,0.0,0.0,0.0,0.0,0.0,0.0,0.0,0.0,0.0,0.0,0.0,0.0,0.0,0.0,0.0,0.0,0.0,0.0,0.0,0.0,0.0,0.0,-2.0509,-2.2596,-2.3091,-2.3091,-2.3091,0.0,0.0,0.0,0.0,0.0,0.0,0.0,0.0,0.0,0.0,0.0,-2.4155,-2.4413,-2.4701,-2.5284,-2.5316,-2.5031,-2.4327,-2.4241,-2.395,-2.3135,-2.3091,-2.3091,0.0,0.0,0.0,0.0,0.0,0.0,0.0,0.0,0.0,0.0,0.0,0.0,0.0,0.0,0.0,0.0,0.0,0.0,0.0,0.0,0.0,0.0,0.0,0.0,0.0,0.0,0.0,0.0,0.0,0.0,0.0,0.0,-2.438,-2.4465,0.0,0.0,0.0,0.0,0.0,0.0,0.0,0.0,0.0,0.0,0.0,0.0,0.0,-2.2686,-2.2519,-2.2672,-2.2994,-2.3502,-2.4646,-2.5411,-2.5981,-2.721,-2.7804,-2.7903,-2.7831,0.0,-2.4202,-2.2891,0.0,0.0,0.0,0.0,0.0,0.0,0.0,0.0,0.0,0.0,0.0,0.0,0.0,0.0,0.0,0.0,0.0,0.0,0.0,0.0,0.0,0.0,-2.0509,-2.2596,-2.3091,-2.3091,-2.3091,-2.3091,-2.3091,-2.3091,-2.3091,-2.3091,0.0,0.0,0.0,0.0,0.0,0.0,-2.3387,-2.3983,-2.4241,-2.3517,-2.3474,-2.343,-2.3309,-2.3266,-2.3222,-2.3091,-2.3091,-2.3091,-2.3091,-2.3091,0.0,0.0,0.0,0.0,0.0,0.0,0.0,0.0,0.0,0.0,0.0,0.0,0.0,0.0,0.0,0.0,0.0,0.0,0.0,0.0,0.0,0.0,0.0,0.0,0.0,0.0,0.0,0.0,0.0,-2.2697,-2.3146,-2.2325,-2.2242,-2.1951,0.0,0.0,0.0,0.0,0.0,0.0,0.0,0.0,0.0,-2.2797,-2.4162,-2.479,-2.4484,-2.5462,-2.6091,-2.6354,-2.693,-2.7314,-2.7579,-2.8215,-2.851,-2.851,-2.851,-2.7891,-2.6766,-2.5402,-2.3741,-2.1944,0.0,0.0,0.0,0.0,-1.8471,-1.8657,-1.8657,-1.8657,-1.8657,-1.8657,0.0,0.0,0.0,0.0,0.0,0.0,0.0,-1.8145,-1.962,-2.0442,-2.1265,-2.2755,-2.3091,-2.3091,-2.3091,-2.3091,-2.3091,-2.3091,-2.3091,-2.3091,-2.3091,-2.3091,0.0,0.0,0.0,-2.356,-2.3135,-2.3484,-2.356,-2.3135,-2.3091,-2.3091,-2.3091,-2.3091,-2.3091,-2.3091,-2.3091,-2.3091,-2.3091,-2.3091,-2.3091,0.0,0.0,0.0,0.0,0.0,0.0,0.0,0.0,0.0,0.0,0.0,0.0,0.0,0.0,0.0,0.0,0.0,0.0,0.0,0.0,0.0,0.0,0.0,0.0,0.0,0.0,0.0,0.0,-2.2564,-2.3,-2.1159,-2.2002,-2.2274,0.0,0.0,0.0,0.0,0.0,0.0,-2.3187,-2.4836,-2.5456,-2.4655,-2.6177,-2.6805,-2.6405,-2.7804,-2.851,-2.851,-2.851,-2.851,-2.851,-2.851,-2.851,-2.851,-2.851,-2.8391,-2.8056,-2.6795,-2.5173,-2.3382,-2.2267,-2.1346,-2.0527,-1.9971,-1.9854,-2.0001,-2.0001,-2.0001,-2.0001,-2.0001,-2.0001,-2.0001,-2.0001,0.0,0.0,0.0,0.0,-1.9099,-2.0154,-2.1003,-2.1861,-2.2853,-2.3091,-2.3091,-2.3091,-2.3091,-2.3091,-2.3091,-2.3091,-2.3091,-2.3091,-2.3091,0.0,-2.3091,-2.3091,-2.3091,-2.3091,-2.3091,-2.3091,-2.3091,-2.3091,-2.3091,-2.3091,-2.3091,-2.3091,-2.3091,-2.3091,-2.3091,-2.3091,-2.3091,-2.3091,-2.3091,0.0,0.0,0.0,0.0,0.0,0.0,0.0,0.0,0.0,0.0,0.0,0.0,0.0,0.0,0.0,0.0,0.0,0.0,0.0,0.0,0.0,0.0,0.0,0.0,0.0,0.0,0.0,0.0,0.0,-2.3232,-2.3644,0.0,0.0,0.0,0.0,-2.5555,-2.5796,-2.5836,-2.5805,-2.6692,-2.7155,-2.712,-2.7931,-2.839,-2.835,-2.8462,-2.851,-2.851,-2.851,-2.851,-2.851,-2.851,-2.851,-2.851,-2.851,-2.8018,-2.7145,-2.5757,-2.4798,-2.4028,-2.1769,-2.0518,-2.004,-2.0001,-2.0001,-2.0001,-2.0001,-2.0001,-2.0001,-2.0001,-2.0001,-2.0001,-2.0001,-1.9972,0.0,0.0,-1.9867,-2.0173,-2.1236,-2.1578,-2.1861,-2.2853,-2.3091,-2.3091,-2.3091,-2.3091,-2.3091,-2.3091,-2.3091,-2.3091,-2.3091,0.0,-2.3091,-2.3091,-2.3091,-2.3091,-2.3091,-2.3091,-2.3091,-2.3091,-2.3091,-2.3091,-2.3091,-2.3091,-2.3091,-2.3091,-2.3091,-2.3091,-2.3091,-2.3091,-2.3091,-2.3091,-2.3091,0.0,0.0,0.0,0.0,0.0,0.0,0.0,0.0,0.0,0.0,0.0,0.0,0.0,0.0,0.0,0.0,0.0,0.0,0.0,0.0,0.0,0.0,0.0,0.0,0.0,0.0,0.0,0.0,-2.4462,-2.5461,0.0,-2.5345,-2.5044,-2.5205,-2.5959,-2.7232,-2.7848,-2.7438,-2.8559,-2.9062,-2.8662,-2.8551,-2.851,-2.851,-2.851,-2.851,-2.851,-2.851,-2.851,-2.851,-2.851,-2.851,-2.8471,-2.7926,-2.747,-2.7069,-2.5387,-2.4585,-2.4346,-2.3495,-2.2709,-2.2007,-2.2007,-2.2007,-2.2007,-2.2007,-2.2007,-2.2007,-2.2007,-2.2007,-2.1858,-2.1236,-2.1022,-2.0907,-2.0193,-2.052,-2.114,-2.1489,-2.2097,-2.2678,-2.3023,-2.3091,-2.3091,-2.3091,-2.3091,-2.3091,-2.3091,-2.3091,-2.3091,-2.3091,-2.3091,-2.3091,-2.3091,-2.3091,-2.3091,-2.3091,-2.3091,-2.3091,-2.3091,-2.3091,-2.3091,-2.3091,-2.3091,-2.3091,-2.3091,-2.3091,-2.3091,-2.3091,-2.3091,-2.3091,-2.3091,-2.3091,-2.3091,0.0,0.0,0.0,0.0,0.0,0.0,0.0,0.0,0.0,0.0,0.0,0.0,0.0,0.0,0.0,0.0,0.0,0.0,0.0,0.0,0.0,0.0,0.0,0.0,0.0,-2.4593,-2.5721,-2.5432,-2.6698,-2.7464,-2.7086,-2.704,-2.7343,-2.8039,-2.9389,-2.9859,-2.9248,-3.0099,-3.0241,-2.9419,-2.9,-2.8697,-2.851,-2.851,-2.851,-2.851,-2.851,-2.851,-2.851,-2.851,-2.851,-2.8471,-2.7603,-2.701,-2.6629,-2.5126,-2.4327,-2.4026,-2.4026,-2.3647,-2.3091,-2.3091,-2.3091,-2.3091,-2.3091,-2.3091,-2.3091,-2.3091,-2.3091,-2.2994,-2.2291,-2.2116,-2.1958,-2.1255,-2.1546,-2.2116,-2.2116,-2.2586,-2.3091,-2.3091,-2.3091,-2.3091,-2.3091,-2.3091,-2.3091,-2.3091,-2.3091,-2.3091,-2.3091,-2.3091,-2.3091,-2.3091,-2.3091,-2.3091,-2.3091,-2.3091,-2.3091,-2.3091,-2.3091,-2.3091,-2.3091,-2.3091,-2.3091,-2.3091,-2.3091,-2.3091,-2.3091,-2.3091,-2.3091,-2.3091,-2.3091,-2.3091,-2.3091,0.0,0.0,0.0,0.0,0.0,0.0,0.0,0.0,0.0,0.0,0.0,0.0,0.0,0.0,0.0,0.0,0.0,0.0,0.0,0.0,0.0,0.0,0.0,-2.3887,-2.6569,-2.7988,-2.6356,-2.7434,-2.8518,-2.9141,-2.9194,-3.0021,-3.2046,-3.2218,-3.19,-3.127,-3.1182,-3.062,-2.9457,-2.938,-2.9079,-2.851,-2.851,-2.851,-2.851,-2.851,-2.851,-2.851,-2.851,-2.851,-2.8471,-2.7551,-2.6629,-2.5746,-2.4829,-2.3897,-2.3091,-2.3091,-2.3091,-2.3091,-2.3091,-2.3091,-2.3091,-2.3091,-2.3091,-2.3091,-2.3091,-2.3091,-2.3091,-2.3091,-2.3091,-2.3091,-2.3091,-2.3091,-2.3091,-2.3091,-2.3091,-2.3091,-2.3091,-2.3091,-2.3091,-2.3091,-2.3091,-2.3091,-2.3091,-2.3091,-2.3091,-2.3091,-2.3091,-2.3091,-2.3091,-2.3091,0.0,-2.3091,-2.3091,-2.3091,-2.3091,-2.3091,-2.3091,-2.3091,-2.3091,-2.3091,-2.3091,-2.3091,-2.3091,-2.3091,-2.3091,-2.3091,-2.3091,-2.3091,-2.3091,-2.3091,0.0,0.0,0.0,0.0,0.0,0.0,0.0,0.0,0.0,0.0,0.0,0.0,0.0,0.0,0.0,0.0,0.0,0.0,0.0,0.0,0.0,-2.7193,-2.767,-2.7178,-2.7795,-2.8704,-2.974,-3.0213,-3.068,-3.1275,-3.1365,-3.1568,-3.2141,-3.2218,-3.2132,-3.1936,-3.1046,-3.0406,-3.005,-2.9184,-2.8657,-2.851,-2.851,-2.851,-2.851,-2.851,-2.851,-2.851,-2.851,-2.851,-2.8431,-2.6876,-2.6038,-2.5694,-2.4102,-2.3353,-2.3091,-2.3091,-2.3091,-2.3091,-2.3091,-2.3091,-2.3091,-2.3091,-2.3091,-2.3091,-2.3091,-2.3091,-2.3091,-2.3091,-2.3091,-2.3091,-2.3091,-2.3091,-2.3091,-2.3091,-2.3091,-2.3091,-2.3091,-2.3091,-2.3091,-2.3091,-2.3091,-2.3091,-2.3091,-2.3091,-2.3091,-2.3091,-2.3091,-2.3091,-2.3091,-2.3091,-2.3091,-2.3091,-2.3091,-2.3091,-2.3091,-2.3091,-2.3091,-2.3091,-2.3091,-2.3091,-2.3091,-2.3091,-2.3091,-2.3091,-2.3091,-2.3091,-2.3091,-2.3091,-2.3091,0.0,0.0,0.0,0.0,0.0,0.0,0.0,0.0,0.0,0.0,0.0,0.0,0.0,0.0,0.0,0.0,0.0,0.0,0.0,0.0,0.0,0.0,-2.9125,-3.0024,-2.9998,-2.9922,-3.0383,-3.173,-3.176,-3.186,-3.2367,-3.2277,-3.2218,-3.2218,-3.2336,-3.2119,-3.1445,-3.1108,-3.0494,-2.9561,-2.9118,-2.8776,-2.851,-2.851,-2.851,-2.851,-2.851,-2.851,-2.851,-2.851,-2.851,-2.8431,-2.6999,-2.6163,-2.5694,-2.4274,-2.343,-2.3091,0.0,0.0,0.0,0.0,-2.3091,-2.3091,-2.3091,-2.3091,-2.3091,-2.3091,-2.3091,-2.3091,-2.3091,-2.3091,-2.3091,-2.3091,-2.3091,-2.3091,-2.3091,-2.3091,-2.3091,-2.3091,-2.3091,-2.3091,-2.3091,-2.3091,-2.3091,-2.3091,-2.3091,0.0,-2.3091,-2.3091,-2.3091,-2.3091,-2.3091,-2.3091,-2.3091,-2.3091,-2.3091,-2.3091,-2.3091,-2.3091,-2.3091,-2.3091,0.0,0.0,0.0,-2.3091,-2.3091,-2.3091,0.0,0.0,0.0,-2.3091,-2.3091,-2.2555,0.0,0.0,-2.2572,-2.2606,0.0,0.0,0.0,0.0,0.0,0.0,0.0,0.0,0.0,0.0,0.0,0.0,0.0,0.0,0.0,0.0,-3.0579,-3.1529,-3.2236,-3.2314,-3.2408,-3.2596,-3.2444,-3.2408,-3.2632,-3.2408,-3.2241,-3.2241,-3.2503,-3.2005,-3.0545,-3.1206,0.0,0.0,0.0,-2.904,-2.851,-2.851,-2.851,-2.851,-2.851,-2.851,-2.851,-2.851,-2.8431,-2.8299,-2.7429,-2.6505,-2.5579,-2.4701,-2.3864,-2.3091,-2.3091,-2.3091,-2.3091,-2.3091,-2.3091,-2.3091,-2.3091,0.0,0.0,-2.3091,-2.3091,-2.3091,-2.3091,-2.3091,-2.3091,-2.3091,-2.3091,-2.3091,-2.3091,-2.3091,-2.3091,-2.3091,-2.3091,-2.3091,-2.3091,-2.3091,-2.3091,-2.3091,-2.3091,-2.3091,-2.3091,-2.3091,-2.3091,-2.3091,-2.3091,-2.3091,-2.3091,-2.3091,-2.3091,-2.3091,-2.3091,0.0,-2.3091,-2.3091,-2.3091,-2.3091,-2.3091,-2.3091,-2.3091,-2.3091,-2.3091,-2.3091,-2.3091,-2.3091,-2.3091,-2.3091,-2.3091,-2.3091,-2.2236,-2.228,0.0,0.0,0.0,0.0,0.0,0.0,0.0,0.0,0.0,0.0,0.0,0.0,0.0,0.0,0.0,-3.0587,-3.1881,-3.2919,-3.3066,-3.3108,-3.2895,-3.235,-3.2753,-3.286,-3.235,-3.2467,-3.2596,-3.2596,-3.2408,-3.2069,-3.1539,-3.0908,-3.0165,-2.9263,-2.8882,-2.863,-2.851,-2.851,-2.851,-2.851,-2.851,0.0,-2.851,-2.851,-2.8139,-2.7389,-2.6453,-2.5579,-2.4659,-2.3734,-2.3266,-2.3091,-2.3091,-2.3091,-2.3091,-2.3091,-2.3091,-2.3091,-2.3091,-2.3091,-2.3091,-2.3091,-2.3091,-2.3091,-2.3091,-2.3091,0.0,-2.3091,-2.3091,-2.3091,-2.3091,-2.3091,-2.3091,-2.3091,-2.3091,-2.3091,-2.3091,-2.3091,-2.3091,-2.3091,-2.3091,-2.3091,-2.3091,-2.3091,-2.3091,-2.3091,-2.3091,-2.3091,-2.3091,-2.3091,-2.3091,-2.3091,-2.3091,-2.3091,-2.3091,-2.3091,-2.3091,-2.3091,-2.3091,-2.3091,-2.3091,-2.3091,-2.3091,-2.3091,-2.3091,-2.3091,-2.3091,-2.3091,-2.3091,-2.3091,-2.2916,-2.2916,0.0,0.0,0.0,0.0,0.0,0.0,0.0,0.0,0.0,0.0,0.0,-2.9619,-2.9619,0.0,-3.1907,-3.169,-3.2885,-3.3736,-3.3339,-3.3632,-3.3632,-3.3086,-3.3178,-3.3178,-3.2803,-3.2881,-3.2917,-3.2739,-3.2717,-3.2345,-3.1378,-3.0983,-3.0203,-2.9,-2.8764,-2.8618,-2.851,-2.851,-2.851,-2.851,-2.851,-2.851,-2.851,-2.851,-2.8007,-2.7185,-2.6712,-2.5746,-2.4413,-2.3474,-2.3091,-2.3091,-2.3091,-2.3091,-2.3091,-2.3091,-2.3091,-2.3091,-2.3091,-2.3091,-2.3091,-2.3091,-2.3091,-2.3091,-2.3091,-2.3091,-2.3091,-2.3091,-2.3091,-2.3091,-2.3091,-2.3091,-2.3091,-2.3091,-2.3091,-2.3091,-2.3091,-2.3091,-2.3091,-2.3091,-2.3091,-2.3091,-2.3091,-2.3091,-2.3091,-2.3091,-2.3091,-2.3091,-2.3091,-2.3091,-2.3091,-2.3091,-2.3091,-2.3091,-2.3091,-2.3091,-2.3091,-2.3091,-2.3091,-2.3091,-2.3091,-2.3091,-2.3091,-2.3091,-2.2643,-2.2643,-2.3091,-2.2643,-2.2643,-2.3091,-2.3091,-2.3091,0.0,0.0,0.0,0.0,0.0,0.0,0.0,0.0,-3.0185,-3.1331,-3.1542,-3.1509,-3.1509,-3.2317,-3.2877,-3.2458,-3.3541,-3.4162,-3.3479,-3.3991,-3.4264,-3.3942,-3.3632,-3.3374,-3.3304,-3.3304,-3.3199,-3.2917,-3.3094,-3.264,-3.1365,-3.1132,-3.0355,-2.8843,-2.8764,-2.8657,-2.851,-2.851,-2.851,-2.851,-2.851,-2.851,-2.851,-2.8299,-2.7753,-2.6928,-2.6547,-2.5644,-2.4288,-2.3559,-2.3266,-2.3344,-2.3344,-2.3344,-2.3325,-2.3159,-2.3091,-2.3091,-2.3091,-2.3091,-2.3091,-2.3091,-2.3091,-2.3091,-2.3091,-2.3091,-2.3091,-2.3091,-2.3091,-2.3091,-2.3091,-2.3091,-2.3091,-2.3091,-2.3091,-2.3091,-2.3091,-2.3091,-2.3091,-2.3091,-2.3091,-2.3091,-2.3091,-2.3091,-2.3091,-2.3091,-2.3091,-2.3091,-2.3091,-2.3091,-2.3091,-2.3091,-2.3091,-2.3091,-2.3091,-2.3091,-2.3091,-2.3091,-2.3091,-2.3091,-2.3091,-2.3091,-2.3091,-2.3091,-2.2192,-2.205,-2.2828,-2.1872,-2.1784,-2.2545,-2.2545,-2.2731,-2.8221,-2.8672,-2.9181,-2.9117,-2.9942,-3.0934,0.0,0.0,-3.1584,-3.1744,-3.1608,-3.1509,-3.1509,-3.2317,-3.2877,-3.2458,-3.3541,-3.423,-3.3805,-3.4128,-3.438,-3.4346,-3.3991,-3.3632,-3.3339,-3.3304,-3.3409,-3.3667,-3.3094,-3.2761,-3.2684,-3.123,-3.0241,-2.9845,-2.8988,-2.851,-2.851,-2.851,-2.851,-2.851,-2.851,-2.851,-2.8471,-2.7725,-2.6846,-2.5872,-2.4274,-2.3702,-2.389,-2.3756,-2.3935,-2.4268,-2.4268,-2.4268,-2.4134,-2.3374,-2.3091,-2.3091,-2.3091,-2.3091,-2.3091,-2.3091,-2.3091,-2.3091,-2.3091,-2.3091,-2.3091,-2.3091,-2.3091,-2.3091,-2.3091,-2.3091,-2.3091,-2.3091,-2.3091,-2.3091,-2.3091,-2.3091,-2.3091,-2.3091,-2.3091,-2.3091,-2.3091,-2.3091,-2.3091,-2.3091,-2.3091,-2.3091,-2.3091,-2.3091,-2.3091,-2.3091,-2.3091,-2.3091,-2.3091,-2.3091,-2.3091,-2.3091,-2.3091,-2.3091,-2.3091,-2.3091,-2.3091,-2.3091,-2.2192,-2.1739,-2.1828,-2.0872,-2.0413,-2.0503,-2.0503,-2.1463,-3.1112,-3.13,-3.139,-3.1752,-3.2224,-3.2664,-3.2855,-3.2688,-3.2658,-3.3197,-3.3236,-3.3202,-3.3202,-3.3518,-3.3773,-3.3589,-3.4023,-3.4346,-3.4162,-3.4312,-3.4414,-3.4414,-3.4059,-3.3736,-3.3597,-3.3805,-3.3908,-3.3805,-3.3514,-3.3009,-3.2304,-3.1466,-3.0545,-2.9523,-2.9079,-2.8776,-2.8685,-2.8538,-2.851,-2.851,-2.851,-2.8667,-2.8927,-2.7993,-2.6919,-2.5714,-2.4406,-2.3984,-2.415,-2.415,-2.4258,-2.4414,-2.4414,-2.4414,-2.4375,-2.3968,-2.3842,-2.3842,-2.3842,-2.3842,-2.3842,-2.3842,-2.3842,-2.3842,-2.3842,-2.3842,-2.3842,-2.3842,-2.3842,-2.3842,-2.3842,-2.3842,-2.3842,-2.3842,-2.3842,-2.3842,-2.3842,-2.3691,-2.3516,-2.3516,-2.331,-2.3091,-2.3091,-2.3091,-2.3091,-2.3091,-2.3091,-2.3091,-2.3091,-2.3091,-2.3091,-2.3091,-2.3091,-2.3091,-2.3091,-2.3091,-2.3091,-2.3091,-2.2599,-2.2545,-2.3091,-2.1996,-2.1686,-2.228,-2.0791,-2.0286,-2.0827,-1.9877,-1.965,-2.0187,-2.0187,-2.0638,-3.2493,-3.2912,-3.3328,-3.3796,-3.3999,-3.4151,-3.4297,-3.3839,-3.3581,-3.4245,-3.4414,-3.4414,-3.4414,-3.4414,-3.4414,-3.4414,-3.4414,-3.4414,-3.4414,-3.4414,-3.4414,-3.4414,-3.4128,-3.3991,-3.3991,-3.4128,-3.4162,-3.3991,-3.3874,-3.343,-3.2555,-3.1833,-3.0908,-2.9871,-2.9353,-2.9,-2.8791,-2.8657,-2.8622,-2.8727,-2.8727,-2.9003,-2.9467,-2.8211,-2.6976,-2.5754,-2.4818,-2.4482,-2.459,-2.459,-2.4668,-2.4775,-2.4775,-2.4775,-2.4775,-2.4775,-2.4629,-2.4414,-2.4414,-2.4414,-2.4414,-2.4414,-2.4414,-2.4414,-2.4414,-2.4414,-2.4414,-2.4414,-2.4414,-2.4414,-2.4414,-2.4414,-2.4414,-2.4414,-2.4414,-2.4414,-2.4414,-2.418,-2.3965,-2.3965,-2.3711,-2.3413,-2.3296,-2.3276,-2.3227,-2.311,-2.3091,-2.3091,-2.3091,-2.3091,-2.3091,-2.3091,-2.3091,-2.3091,-2.3091,-2.3091,-2.3091,-2.3091,-2.2467,-2.2369,-2.3047,-2.1507,-2.0962,-2.1695,-1.9786,-1.9147,-1.9824,-1.8834,-1.8742,-1.9422,-1.9422,-1.9559,-3.0892,0.0,-3.3867,-3.4275,-3.4786,-3.5255,-3.5723,-3.5073,-3.4351,-3.438,-3.4414,-3.4414,-3.4414,-3.4414,-3.4414,-3.4414,-3.4414,-3.4414,-3.4414,-3.4414,-3.4414,-3.4414,-3.438,-3.438,-3.438,-3.4059,-3.3991,-3.4346,-3.4025,-3.3942,-3.4298,-3.234,-3.1368,-3.1723,-3.0024,-2.9,-2.8791,-2.8803,-2.8939,-2.928,-2.928,-2.9556,-3.002,-2.8168,-2.6807,-2.5834,-2.4864,-2.4658,-2.5096,-2.5096,-2.5303,-2.5645,-2.5645,-2.5645,-2.5645,-2.5645,-2.5156,-2.4414,-2.4414,-2.4414,-2.4414,-2.4414,-2.4414,-2.4414,-2.4414,-2.4414,-2.4414,-2.4414,-2.4414,-2.4414,-2.4414,-2.4414,-2.4414,-2.4414,-2.4414,-2.4414,-2.4414,-2.4404,-2.4394,-2.4394,-2.4385,-2.4248,-2.3838,-2.3769,-2.3623,-2.3159,-2.3091,-2.3091,-2.3091,-2.3091,-2.3091,-2.3091,-2.3091,-2.3091,-2.3091,-2.3091,-2.3091,-2.3091,-2.3047,-2.3047,-2.3091,-2.2192,-2.165,-2.1695,-1.9786,-1.8788,-1.8834,-1.7831,-1.7372,-1.7372,-1.7372,-1.7924,-3.2652,0.0,-3.5697,-3.5886,-3.6061,-3.6133,-3.5959,-3.5382,-3.482,-3.4481,-3.3599,-3.2875,-3.2875,-3.2875,-3.2875,-3.2875,-3.3715,-3.4414,-3.4414,-3.4414,-3.4414,-3.4414,-3.4414,-3.4414,-3.4414,-3.4264,-3.423,-3.438,-3.4264,-3.4011,-3.3638,-3.2448,-3.1613,-3.123,-2.9973,-2.9197,-2.9013,-2.9236,-2.9302,-2.9304,-3.0013,-3.0124,-2.9631,-2.9327,-2.8337,-2.6734,-2.6406,-2.5952,-2.5518,-2.5518,-2.5605,-2.5693,-2.5693,-2.5693,-2.5732,-2.5917,-2.5768,-2.5512,-2.5331,-2.5245,-2.5245,-2.5245,-2.5245,-2.5245,-2.5245,-2.5245,-2.5245,-2.5245,-2.5245,-2.5245,-2.5245,-2.5245,-2.5245,-2.5245,-2.5245,-2.5245,-2.5245,-2.5059,-2.4844,-2.4844,-2.4609,-2.4375,-2.4228,-2.4209,-2.4062,-2.3633,-2.3276,-2.3091,-2.3091,-2.3091,-2.3091,-2.3091,-2.3091,-2.3091,-2.3091,-2.2511,-2.2457,-2.3047,-2.1284,-2.0827,-2.2104,-2.0014,-1.9101,-1.9741,-1.8465,-1.7785,-1.7785,-1.7466,-1.7279,-1.7279,-1.7279,-1.7466,-3.4317,-3.5666,-3.6695,-3.6705,-3.6693,-3.6554,-3.6008,-3.5544,-3.5037,-3.4501,-3.3167,-3.2112,-3.2112,-3.1643,-3.1329,-3.1533,-3.2402,-3.3227,-3.3791,-3.3849,-3.4006,-3.4356,-3.4414,-3.4414,-3.4414,-3.4414,-3.4414,-3.4414,-3.4414,-3.4147,-3.3673,-3.2662,-3.1856,-3.1341,-3.0177,-2.9491,-2.9374,-2.9677,-2.9882,-2.9982,-3.0778,-3.0838,-3.0199,-3.0201,-2.928,-2.7699,-2.7379,-2.6648,-2.5693,-2.5693,-2.5693,-2.5684,-2.583,-2.582,-2.5868,-2.6149,-2.6245,-2.6197,-2.5917,-2.582,-2.582,-2.5732,-2.5693,-2.5693,-2.5693,-2.5693,-2.5693,-2.5693,-2.5693,-2.5693,-2.5693,-2.5693,-2.5693,-2.5693,-2.5693,-2.5693,-2.5693,-2.5508,-2.5303,-2.5303,-2.5078,-2.4834,-2.4678,-2.4521,-2.4326,-2.4053,-2.3652,-2.3276,-2.311,-2.3091,-2.3091,-2.3091,-2.3091,-2.3091,-2.3091,-2.2555,-2.2467,-2.3047,-2.106,-2.0376,-2.165,-1.9193,-1.8149,-1.8796,-1.7831,-1.7279,-1.7279,-1.7279,-1.7279,-1.7279,-1.7279,-1.7279,-3.5684,-3.6619,-3.6915,-3.6766,-3.6754,-3.6616,-3.6086,-3.5576,-3.5055,-3.448,-3.3132,-3.1997,0.0,0.0,-2.9931,-3.0507,-3.0714,-3.1329,-3.2773,-3.2998,-3.3358,0.0,-3.4467,-3.4481,-3.4448,-3.4448,-3.4448,-3.4414,-3.4414,-3.4414,-3.4414,-3.296,-3.211,-3.211,-3.0647,-2.9872,-2.993,-3.0205,-3.068,-3.1278,-3.1595,-3.1705,-3.1661,-3.0722,-2.9749,-2.8727,-2.7699,-2.6744,-2.5781,-2.5732,-2.5732,-2.5732,-2.6014,-2.61,-2.6149,-2.64,-2.6496,-2.6496,-2.6245,-2.6139,-2.61,-2.583,-2.5732,-2.5732,-2.5732,-2.5732,-2.5732,-2.5732,-2.5732,-2.5742,-2.5732,-2.5732,-2.5742,-2.5693,-2.5693,-2.5693,-2.5693,-2.5693,-2.5693,-2.5693,-2.5693,-2.5605,-2.5223,-2.4736,-2.4453,-2.4453,-2.4092,-2.3662,-2.3188,-2.311,-2.3091,-2.3091,-2.3091,-2.3091,-2.3047,-2.296,-2.296,-2.296,-2.2006,-2.1516,-2.1561,-1.9741,-1.8703,-1.8703,-1.7785,-1.7279,-1.7279,-1.7279,-1.7279,-1.7279,-1.7279,-1.7279,-3.6454,-3.7201,-3.7591,-3.7358,-3.7449,-3.7417,-3.6662,-3.6086,-3.5354,-3.4126,-3.2351,-3.0741,-2.9944,-3.0118,0.0,-3.0568,-3.2179,0.0,-3.3977,-3.4368,0.0,-3.4975,0.0,-3.5382,-3.5037,-3.5019,-3.482,-3.4448,-3.4414,-3.4414,-3.4414,-3.296,-3.211,-3.211,-3.0984,-3.0351,-3.0183,-3.0931,-3.1558,-3.2092,-3.2183,-3.2125,-3.1937,-3.1837,-3.1092,-2.9749,-2.8912,-2.7887,-2.6781,-2.6235,-2.6004,-2.6004,-2.6304,-2.64,-2.6448,-2.6699,-2.6805,-2.6805,-2.6699,-2.6554,-2.64,-2.6304,-2.6314,-2.6314,-2.6314,-2.6314,-2.6314,-2.6314,-2.6314,-2.6255,-2.6052,-2.6004,-2.5965,-2.5732,-2.5693,-2.5693,-2.5693,-2.5693,-2.5693,-2.5693,-2.5693,-2.5654,-2.5538,-2.5195,-2.4902,-2.4902,-2.4531,-2.4102,-2.3682,-2.334,-2.3091,-2.3091,-2.3091,-2.2828,-2.2104,-2.1373,-2.0962,-2.0962,-1.9376,-1.8742,-1.9521,-1.8334,-1.7692,-1.7692,-1.7419,-1.7279,-1.7279,-1.7279,-1.7279,-1.7279,-1.7279,-1.7279,-3.7323,-3.7814,-3.8033,-3.7583,-3.7596,-3.7363,-3.5993,-3.5553,-3.4912,-3.3066,-3.1278,-2.9838,-2.9131,-2.9289,-2.9624,0.0,0.0,0.0,-3.3959,-3.4354,-3.4771,0.0,-3.5737,0.0,-3.5267,-3.5201,-3.4986,-3.4448,-3.4414,-3.4414,-3.4414,-3.3241,-3.2557,-3.2453,-3.1575,-3.1115,-3.1135,-3.1672,-3.2136,-3.2519,-3.2431,-3.23,-3.2169,-3.2344,-3.1693,-3.0486,-3.0022,-2.9177,-2.8111,-2.7709,-2.7568,-2.7568,-2.7851,-2.7683,-2.7315,-2.7573,-2.7452,-2.7081,-2.7081,-2.6986,-2.6832,-2.6592,-2.6496,-2.6496,-2.6496,-2.6496,-2.6496,-2.6496,-2.6496,-2.6448,-2.6294,-2.6197,-2.6052,-2.5917,-2.5781,-2.5693,-2.5693,-2.5693,-2.5693,-2.5693,-2.5693,-2.5693,-2.5693,-2.5527,-2.5361,-2.5361,-2.498,-2.4619,-2.4385,-2.3809,-2.3173,-2.2574,-2.2511,-2.228,-2.1739,-2.0782,-2.0187,-2.0187,-1.8788,-1.8195,-1.8788,-1.7831,-1.7279,-1.7279,-1.7279,-1.7279,-1.7279,-1.7279,-1.7279,-1.7279,-1.7279,-1.7279,-3.8191,-3.842,-3.8278,-3.7746,-3.7599,-3.7026,-3.5015,-3.4676,-3.4127,-3.1784,-3.0368,-2.9403,-2.8981,-2.8659,-2.8623,-2.9302,0.0,-3.1721,-3.3713,-3.4061,-3.4576,-3.5839,-3.6071,-3.5896,-3.5365,-3.5299,-3.5037,-3.4448,-3.4414,-3.4414,-3.4414,-3.3709,-3.3234,-3.2998,-3.2211,-3.196,-3.2315,-3.2444,-3.2605,-3.2754,-3.2562,-3.2475,-3.2431,-3.2475,-3.1969,-3.108,-3.0991,-3.0429,-2.959,-2.9498,-2.9453,-2.9498,-2.9772,-2.9315,-2.8598,-2.8806,-2.8305,-2.7489,-2.7489,-2.7404,-2.7214,-2.6736,-2.6592,-2.6592,-2.6592,-2.6592,-2.6592,-2.6592,-2.6592,-2.6592,-2.6544,-2.64,-2.6197,-2.6149,-2.5965,-2.5732,-2.5732,-2.5732,-2.5693,-2.5693,-2.5693,-2.5693,-2.5693,-2.5693,-2.5693,-2.5693,-2.541,-2.5032,-2.4726,-2.4227,-2.3332,-2.1948,-2.1777,-2.166,-2.1338,-2.0512,-1.996,-1.9824,-1.9063,-1.8603,-1.8603,-1.7738,-1.7279,-1.7279,-1.7279,-1.7279,-1.7279,-1.7279,-1.7279,-1.7279,-1.7279,-1.7279,-3.8684,-3.8572,-3.8363,-3.825,-3.8033,-3.7403,-3.576,-3.5077,0.0,0.0,-3.0405,-2.9826,-2.8711,-2.9104,-3.0057,-3.1435,-3.2493,-3.3697,-3.5302,-3.5906,-3.6261,0.0,-3.6968,-3.6861,-3.5881,-3.58,-3.5382,-3.4481,-3.4414,-3.4414,-3.4414,-3.4136,-3.3808,-3.3396,-3.2559,-3.2365,-3.2918,-3.2988,-3.2995,-3.3025,-3.2995,-3.2853,-3.268,-3.2865,-3.268,-3.2113,-3.1424,-3.0956,-3.0564,-3.0,-2.9715,-2.9772,-3.0011,-3.0022,-2.9886,-2.9943,-2.9314,-2.8445,-2.8445,-2.7951,-2.7262,-2.7214,-2.7167,-2.7167,-2.7167,-2.7167,-2.7167,-2.7167,-2.7167,-2.7119,-2.689,-2.6805,-2.6699,-2.6496,-2.6255,-2.6052,-2.6052,-2.5868,-2.5693,-2.5693,-2.5693,-2.5693,-2.5693,-2.5693,-2.5693,-2.5693,-2.5625,-2.4841,-2.2801,-2.3561,-2.3765,-2.2363,-2.2181,-2.1407,-1.9446,-1.9155,-1.8696,-1.787,-1.7645,-1.7559,-1.7559,-1.7372,-1.7279,-1.7279,-1.7279,-1.7279,-1.7279,-1.7279,-1.7279,-1.7279,-1.7279,-1.7279,-3.886,-3.86,-3.8363,-3.8177,-3.7902,-3.7083,-3.4719,0.0,0.0,0.0,-2.9509,-2.9274,-2.8625,-2.9261,0.0,-3.0882,-3.2518,-3.4016,-3.4988,-3.603,-3.6816,-3.7089,-3.7345,-3.7089,-3.6008,-3.5913,-3.5479,-3.4481,-3.4414,-3.4414,-3.4414,-3.4104,-3.4004,-3.4113,-3.3203,-3.2792,-3.3124,-3.3124,-3.3124,-3.3124,-3.3124,-3.3025,-3.2896,-3.3025,-3.2995,-3.2736,-3.2339,-3.2108,-3.2033,-3.1645,-3.1512,-3.1512,-3.1657,-3.1392,-3.0946,-3.0946,-2.9988,-2.8678,-2.8678,-2.8081,-2.7309,-2.7309,-2.7309,-2.7309,-2.7309,-2.7309,-2.7309,-2.7309,-2.7309,-2.7262,-2.7129,-2.6986,-2.6853,-2.6747,-2.64,-2.6052,-2.5917,-2.5781,-2.5693,-2.5693,-2.5693,-2.5693,-2.5693,-2.5693,-2.5693,-2.5693,-2.5693,-2.5051,-2.3332,-2.3784,-2.3424,-2.1251,-2.0823,-2.0264,-1.9175,-1.8435,-1.7831,-1.7326,-1.7279,-1.7279,-1.7279,-1.7279,-1.7279,-1.7279,-1.7279,-1.7279,-1.7279,-1.7279,-1.7279,-1.7279,-1.7279,-1.7279,-3.8903,-3.8711,-3.8432,-3.8246,-3.7902,-3.6809,-3.3855,-3.3303,0.0,-2.9325,-2.8748,-2.8779,-2.8621,-2.9133,-2.9685,0.0,-3.1723,-3.3404,-3.4424,-3.5592,-3.664,-3.7403,-3.751,0.0,-3.6149,-3.5976,-3.5544,-3.4635,-3.4612,-3.4675,-3.4806,-3.4094,-3.4074,-3.4857,-3.3733,-3.3124,-3.3124,-3.3124,-3.3124,-3.3124,-3.3124,-3.3124,-3.3124,-3.3124,-3.3124,-3.3124,-3.3124,-3.3124,-3.3124,-3.3124,-3.3124,-3.3124,-3.3124,-3.2624,-3.1945,-3.1945,-3.0812,-2.9314,-2.9314,-2.8585,-2.7584,-2.7584,-2.7441,-2.7309,-2.7309,-2.7309,-2.7309,-2.7309,-2.7309,-2.7309,-2.7309,-2.7129,-2.6948,-2.6853,-2.6448,-2.6004,-2.5781,-2.5693,-2.5693,-2.5693,-2.5693,-2.5693,-2.5693,-2.5693,-2.5693,-2.5693,-2.5693,-2.5226,-2.3939,-2.3741,-2.2708,-1.9982,-1.9612,-1.9383,-1.9004,-1.8,-1.7399,-1.7286,-1.7279,-1.7279,-1.7279,-1.7279,-1.7279,-1.7279,-1.7279,-1.7279,-1.7279,-1.7279,-1.7279,-1.7279,-1.7279,-1.7279,-3.8881,-3.9013,-3.8832,-3.9094,-3.8511,-3.7206,-3.4655,0.0,-3.2828,-2.9556,-2.9082,-2.9121,-2.8668,-2.8576,-2.8981,-3.032,0.0,-3.188,-3.4723,-3.525,-3.5886,-3.7322,0.0,0.0,-3.6677,-3.618,-3.5657,-3.5169,-3.5244,-3.5566,-3.6098,-3.4589,-3.425,-3.5466,-3.3969,-3.3124,-3.3124,-3.3124,-3.3124,-3.3124,-3.3124,-3.3124,-3.3124,-3.3124,-3.3124,-3.3124,-3.3124,-3.3124,-3.3124,-3.3124,-3.3124,-3.3124,-3.3124,-3.3025,-3.2939,-3.2939,-3.2264,-3.1347,-3.1347,-3.0125,-2.8585,-2.8585,-2.7987,-2.7309,-2.7309,-2.7309,-2.7309,-2.7309,-2.7309,-2.7309,-2.7309,-2.7262,-2.7119,-2.664,-2.6294,-2.6004,-2.5781,-2.5693,-2.5693,-2.5693,-2.5693,-2.5693,-2.5693,-2.5693,-2.5693,-2.5693,-2.5693,-2.4971,-2.2894,-2.2643,-2.1811,-1.9598,-1.9934,-1.9667,-1.8052,-1.7834,-1.76,-1.7301,-1.7279,-1.7279,-1.7279,-1.7279,-1.7279,-1.7279,-1.7279,-1.7279,-1.7279,-1.7279,-1.7279,-1.7279,-1.7279,-1.7279,-3.8874,-3.9067,-3.8832,-3.8985,-3.7877,-3.6247,-3.4359,0.0,-3.1707,-2.9493,-2.8967,-2.8889,-2.8755,-2.8541,-2.859,0.0,0.0,0.0,-3.2246,-3.3244,-3.4403,-3.5915,-3.6117,-3.6285,0.0,0.0,-3.607,-3.5267,-3.5321,-3.5668,-3.6272,-3.5522,-3.5242,-3.5588,-3.4483,-3.3611,-3.3124,-3.3124,-3.3124,-3.3124,-3.3124,-3.3124,-3.3124,-3.3124,-3.3124,-3.3124,-3.3124,-3.3124,-3.3124,-3.3124,-3.3124,-3.3124,-3.3124,-3.3124,-3.3124,-3.3124,-3.2438,-3.1581,-3.1581,-3.0306,-2.8678,-2.8678,-2.8081,-2.7309,-2.7309,-2.7309,-2.7309,-2.7309,-2.7309,-2.7309,-2.7309,-2.7167,-2.6986,-2.6592,-2.6294,-2.6004,-2.5781,-2.5693,-2.5693,-2.5693,-2.5693,-2.5693,-2.5693,-2.5693,-2.5693,-2.5693,-2.5693,-2.5177,-2.3642,-2.2885,-2.1937,-2.0431,-1.9781,-1.9175,-1.8473,-1.8043,-1.7757,-1.7625,-1.7388,-1.7279,-1.7279,-1.7279,-1.7279,-1.7279,-1.7279,-1.7279,-1.7279,-1.7279,-1.7279,-1.7279,-1.7279,-1.7279,-3.816,-3.8764,-3.8942,-3.8942,-3.7563,-3.5796,0.0,0.0,-3.1174,-2.9607,-2.9075,-2.8865,-2.8818,-2.858,-2.8411,0.0,0.0,-3.0097,-3.0535,-3.154,-3.2783,-3.4328,0.0,-3.4977,-3.6145,-3.6384,-3.6038,-3.5037,-3.5409,-3.5836,-3.6286,-3.6505,-3.6434,-3.6015,-3.4937,-3.4105,-3.3496,-3.324,-3.3124,-3.3124,-3.3124,-3.3124,-3.3124,-3.3124,-3.3124,-3.3124,-3.3124,-3.3124,-3.3124,-3.3124,-3.3124,-3.3124,-3.3124,-3.3124,-3.3124,-3.3124,-3.2667,-3.2033,-3.2033,-3.0946,-2.9498,-2.9222,-2.8491,-2.7668,-2.7394,-2.7309,-2.7309,-2.7309,-2.7309,-2.7309,-2.7309,-2.7034,-2.6747,-2.6544,-2.6255,-2.5917,-2.5732,-2.5693,-2.5693,-2.5693,-2.5693,-2.5693,-2.5693,-2.5693,-2.5693,-2.5693,-2.5693,-2.5323,-2.4245,-2.3434,-2.2534,-2.1489,-2.0214,-1.924,-1.8847,-1.8364,-1.8021,-1.783,-1.7604,-1.7381,-1.7286,-1.7279,-1.7279,-1.7279,-1.7279,-1.7279,-1.7279,-1.7279,-1.7279,-1.7279,-1.7279,-1.7279,-3.6512,-3.8067,-3.9299,-3.9299,-3.7936,-3.6275,0.0,0.0,-3.1637,-3.0032,-2.9464,-2.919,-2.8865,-2.858,-2.8411,-2.8411,0.0,0.0,-3.0396,-3.0597,-3.1203,0.0,-3.292,-3.3537,-3.5059,-3.563,-3.5479,-3.4467,-3.559,-3.6301,-3.6301,-3.7506,-3.7758,-3.6922,-3.5264,-3.4397,-3.4397,-3.3526,-3.3124,-3.3124,-3.3124,-3.3124,-3.3124,-3.3124,-3.3124,-3.3124,-3.3124,-3.3124,-3.3124,-3.3124,-3.3124,-3.3124,-3.3124,-3.3124,-3.3124,-3.3124,-3.3068,-3.3068,-3.3068,-3.2438,-3.1403,-3.0486,-2.9486,-2.8491,-2.7584,-2.7309,-2.7309,-2.7309,-2.7309,-2.7309,-2.7309,-2.688,-2.6496,-2.6496,-2.6062,-2.5693,-2.5693,-2.5693,-2.5693,-2.5693,-2.5693,-2.5693,-2.5693,-2.5693,-2.5693,-2.5693,-2.5693,-2.5323,-2.4245,-2.4088,-2.3683,-2.2584,-2.1532,-2.0291,-1.8912,-1.8782,-1.8503,-1.7852,-1.7808,-1.7662,-1.7293,-1.7279,-1.7279,-1.7279,-1.7279,-1.7279,-1.7279,-1.7279,-1.7279,-1.7279,-1.7279,-1.7279,-3.4906,-3.5704,-3.6091,-3.6091,-3.4824,-3.3508,-3.3201,0.0,-3.0431,-2.9823,-2.9412,-2.9091,-2.8842,-2.858,-2.8411,-2.8411,0.0,0.0,0.0,0.0,0.0,-3.2721,-3.476,-3.6095,-3.6222,-3.6029,-3.5625,-3.4986,-3.5409,-3.5851,-3.6286,-3.7128,-3.7379,-3.6922,-3.6373,-3.5548,-3.4397,-3.4105,-3.3696,-3.3124,-3.3124,-3.3124,-3.3124,-3.3124,-3.3124,-3.3124,-3.3124,-3.3124,-3.3124,-3.3124,-3.3124,-3.3124,-3.3124,-3.3124,-3.3124,-3.3124,-3.3124,-3.3124,-3.3124,-3.2438,-3.1536,-3.1258,-3.0034,-2.8631,-2.8362,-2.7809,-2.7309,-2.7309,-2.7309,-2.7309,-2.7309,-2.7034,-2.6747,-2.6544,-2.6255,-2.5917,-2.5732,-2.5693,-2.5693,-2.5693,-2.5693,-2.5693,-2.5693,-2.5693,-2.5693,-2.5693,-2.5693,-2.5586,-2.5226,-2.455,-2.3989,-2.3642,-2.2634,-2.1541,-2.0327,-1.9364,-1.8701,-1.8496,-1.8064,-1.7772,-1.7662,-1.7395,-1.7279,-1.7279,-1.7279,-1.7279,-1.7279,-1.7279,-1.7279,-1.7279,-1.7279,-1.7279,0.0,-3.4381,-3.4859,-3.4835,-3.3534,0.0,0.0,-3.1148,-2.9902,-2.9836,-2.9509,-2.919,-2.9037,-2.8716,-2.8501,-2.8501,-2.8444,0.0,0.0,0.0,0.0,-3.2721,-3.5103,-3.6352,-3.563,-3.5765,-3.564,-3.4953,-3.52,-3.5668,-3.6272,-3.6939,-3.7341,-3.74,-3.7053,-3.6413,-3.5345,-3.4716,-3.4105,-3.3569,-3.324,-3.3124,-3.3124,-3.3124,-3.3124,-3.3124,-3.3124,-3.3124,0.0,-3.3124,-3.3124,-3.3124,-3.3124,-3.3124,-3.3124,-3.3124,-3.3124,-3.3124,-3.3124,-3.2711,-3.212,-3.1713,-3.026,-2.8678,-2.8678,-2.8034,-2.7309,-2.7309,-2.7309,-2.7309,-2.7309,-2.7081,-2.6853,-2.6699,-2.6352,-2.6052,-2.5868,-2.5781,-2.5693,-2.5693,-2.5693,-2.5693,-2.5693,-2.5693,-2.5693,-2.5693,-2.5693,-2.5693,-2.5693,-2.5118,-2.4707,-2.4707,-2.3741,-2.2693,-2.1582,-2.0331,-1.9364,-1.8847,-1.8291,-1.7947,-1.7823,-1.7501,-1.7279,-1.7279,-1.7279,-1.7279,-1.7279,-1.7279,-1.7279,-1.7279,-1.7279,-1.7279,0.0,-3.3768,-3.4912,-3.4906,-3.3541,0.0,0.0,-3.1139,0.0,-2.9995,-2.9716,-2.947,-2.9328,-2.8967,-2.8708,-2.8708,-2.8525,0.0,0.0,-3.0778,0.0,0.0,-3.4497,-3.4978,-3.394,-3.5106,-3.5479,-3.4481,-3.5,-3.5595,-3.6199,-3.6881,-3.752,-3.813,-3.7386,-3.6975,-3.6897,-3.5305,-3.4481,-3.4397,-3.3539,-3.3124,-3.3124,-3.3124,-3.3124,-3.3124,-3.3124,-3.3124,-3.3124,-3.3124,-3.3124,-3.3124,-3.3124,-3.3124,-3.3124,-3.3124,-3.3124,-3.3124,-3.3124,-3.3124,-3.2939,-3.1945,-3.0306,-2.8817,-2.8724,-2.8034,-2.7309,-2.7309,-2.7309,-2.7309,-2.7309,-2.7129,-2.69,-2.69,-2.6496,-2.61,-2.61,-2.5868,-2.5693,-2.5693,-2.5693,-2.5693,-2.5693,-2.5693,-2.5693,-2.5693,-2.5693,-2.5693,-2.5693,-2.5693,-2.5693,-2.5693,-2.4815,-2.3791,-2.2693,-2.154,-2.0299,-1.8942,-1.8518,-1.8189,-1.7867,-1.749,-1.7308,-1.7279,-1.7279,-1.7279,-1.7279,-1.7279,-1.7279,-1.7279,-1.7279,-1.7279,-3.1389,0.0,-3.132,-3.1905,-3.1272,-3.0604,0.0,0.0,-2.9973,-2.9853,0.0,-2.9592,-2.935,-2.8967,-2.8708,-2.8708,0.0,-2.8907,-3.0396,-3.2643,0.0,-3.624,-3.6727,-3.6544,-3.5489,-3.5699,-3.5479,-3.4481,-3.4559,-3.4907,-3.5581,-3.6199,-3.6838,-3.7491,-3.7768,-3.7567,-3.6897,-3.5843,-3.5006,-3.4397,-3.3539,-3.3124,-3.3124,-3.3124,-3.3124,-3.3124,-3.3124,-3.3124,-3.3124,-3.3124,-3.3124,-3.3124,-3.3124,-3.3124,-3.3124,-3.3124,-3.3124,-3.3124,-3.3124,-3.3124,-3.2939,-3.1945,-3.0812,-2.9715,-2.8945,-2.8034,-2.7309,-2.7309,-2.7309,-2.7309,-2.7309,-2.7262,-2.7177,-2.6948,-2.6651,-2.6352,-2.6149,-2.5868,-2.5693,-2.5693,-2.5693,-2.5693,-2.5693,-2.5693,-2.5693,-2.5693,-2.5693,-2.5693,-2.5693,-2.5693,-2.5693,-2.5693,-2.5479,-2.4913,-2.384,-2.1988,-2.04,-1.9273,-1.8855,-1.8525,-1.8203,-1.7874,-1.7582,-1.7333,-1.7279,-1.7279,-1.7279,-1.7279,-1.7279,-1.7279,-1.7279,-1.7279,-3.1338,-3.0808,-3.0305,-3.0707,-3.0363,-2.9989,-3.0295,0.0,0.0,0.0,0.0,0.0,-2.9525,0.0,0.0,-2.9059,-2.9302,0.0,0.0,0.0,-3.5215,-3.639,-3.6801,-3.6699,-3.5977,-3.5913,-3.5479,-3.4481,-3.4414,-3.469,-3.5363,-3.5726,-3.617,-3.6823,-3.7172,-3.7385,-3.7477,-3.6227,-3.5386,-3.4937,-3.3683,-3.3124,-3.3124,-3.3124,-3.3124,-3.3124,-3.3124,-3.3124,-3.3124,-3.3124,-3.3124,-3.3124,-3.3124,-3.3124,-3.3124,-3.3124,-3.3124,-3.3124,-3.3124,-3.3124,-3.3025,-3.2494,-3.1625,-3.0666,-2.9669,-2.8724,-2.7857,-2.7441,-2.7309,-2.7309,-2.7309,-2.7309,-2.7262,-2.7129,-2.689,-2.6592,-2.6352,-2.6062,-2.5868,-2.5732,-2.5693,-2.5693,-2.5693,-2.5693,-2.5693,-2.5693,-2.5693,-2.5693,-2.5693,-2.5693,-2.5693,-2.5693,-2.5693,-2.5274,-2.4196,-2.3035,-2.1684,-2.013,-1.9715,-1.918,-1.8313,-1.7991,-1.7662,-1.7286,-1.7279,-1.7279,-1.7279,-1.7279,-1.7279,-1.7279,-1.7279,-1.7279,-3.1603,-3.1375,-3.0953,-3.0736,-3.0326,-3.0011,-3.006,0.0,0.0,0.0,0.0,0.0,0.0,-2.9502,0.0,0.0,-3.0449,-3.1716,-3.3217,-3.4218,-3.5015,-3.566,-3.6146,-3.6313,-3.593,-3.5849,-3.5415,-3.4481,-3.4414,-3.4646,-3.5218,-3.5348,-3.5639,-3.6156,-3.6257,-3.6823,-3.7897,-3.6401,-3.5573,-3.5386,-3.3966,-3.324,-3.3124,-3.3124,-3.3124,-3.3124,-3.3124,-3.3124,-3.3124,-3.3124,-3.3124,-3.3124,-3.3124,-3.3124,-3.3124,-3.3124,-3.3124,-3.3124,-3.3124,-3.3124,-3.3124,-3.3124,-3.2438,-3.1448,-3.0666,-2.9624,-2.8538,-2.7715,-2.7394,-2.7309,-2.7309,-2.7309,-2.7309,-2.7309,-2.7081,-2.6853,-2.6592,-2.6294,-2.6052,-2.583,-2.5732,-2.5693,-2.5693,-2.5693,-2.5693,-2.5693,-2.5693,-2.5693,-2.5693,-2.5693,-2.5693,-2.5693,-2.5693,-2.5323,-2.4402,-2.4344,-2.3493,-2.1532,-2.0801,-1.9817,-1.837,-1.7991,-1.7662,-1.7286,-1.7279,-1.7279,-1.7279,-1.7279,-1.7279,-1.7279,-1.7279,-1.7279,-3.1621,-3.2317,-3.274,-3.176,-3.0968,-3.0414,-3.0414,0.0,0.0,0.0,0.0,0.0,0.0,-2.9576,-2.9486,-2.9509,-3.1532,-3.352,-3.4706,-3.6098,-3.7067,-3.7178,-3.687,-3.6461,-3.5944,-3.5544,-3.5052,-3.4448,-3.4414,-3.4457,-3.4559,-3.5101,-3.5436,-3.5552,-3.6025,-3.6402,-3.6591,-3.616,-3.547,-3.4592,-3.4314,-3.3823,-3.3124,-3.3124,-3.3124,-3.3124,-3.3124,-3.3124,-3.3124,-3.3124,-3.3124,-3.3124,-3.3124,-3.3124,-3.3124,-3.3124,-3.3124,-3.3124,-3.3124,-3.3124,-3.3124,-3.3124,-3.2438,-3.1581,-3.1448,-3.0125,-2.8678,-2.8538,-2.7904,-2.7309,-2.7309,-2.7309,-2.7309,-2.7309,-2.7081,-2.69,-2.6853,-2.6448,-2.61,-2.6052,-2.5868,-2.5693,-2.5693,-2.5693,-2.5693,-2.5693,-2.5693,-2.5693,-2.5693,-2.5693,-2.5693,-2.5693,-2.5693,-2.5635,-2.5479,-2.543,-2.4922,-2.3692,-2.1887,-2.0066,-1.8377,-1.7991,-1.7662,-1.7286,-1.7279,-1.7279,-1.7279,-1.7279,-1.7279,-1.7279,-1.7279,-1.7279,-3.1984,-3.2451,-3.2874,-3.2976,-3.3162,-3.3256,-3.3034,0.0,0.0,0.0,0.0,0.0,0.0,0.0,-3.1086,-3.2453,-3.3179,-3.3953,-3.5133,-3.5587,-3.5928,-3.6311,-3.6247,-3.6076,-3.5914,-3.5479,-3.4986,-3.4448,-3.4414,-3.4414,-3.4414,-3.469,-3.4849,-3.4849,-3.514,-3.5235,-3.5125,-3.5482,-3.5372,-3.4718,-3.4259,-3.3592,-3.2844,-3.2844,-3.2733,-3.2604,-3.2604,-3.2792,-3.3124,-3.3124,-3.3124,-3.3124,-3.3124,-3.3124,-3.3124,-3.3124,-3.3124,-3.3124,-3.3124,-3.3124,-3.3124,-3.3124,-3.281,-3.2307,-3.1757,-3.0621,-2.9406,-2.8863,-2.8034,-2.7309,-2.7309,-2.7309,-2.7309,-2.7309,-2.7214,-2.7081,-2.6948,-2.6699,-2.6448,-2.6149,-2.6004,-2.5868,-2.5732,-2.5693,-2.5693,-2.5693,-2.5693,-2.5693,-2.5693,-2.5693,-2.5693,-2.5693,-2.5693,-2.5693,-2.5693,-2.5167,-2.4402,-2.3285,-2.1603,-1.9926,-1.837,-1.7991,-1.7662,-1.7286,-1.7279,-1.7279,-1.7279,-1.7279,-1.7279,-1.7279,-1.7279,-1.7279,-3.2284,-3.2651,-3.3125,-3.381,0.0,-3.4891,-3.5183,-3.5222,0.0,0.0,0.0,0.0,0.0,-3.0996,-3.2356,-3.4646,-3.4499,-3.4526,-3.5735,-3.5394,-3.5208,-3.5663,-3.5742,-3.5753,-3.574,-3.5299,-3.4854,-3.4448,-3.4414,-3.4414,-3.4414,-3.4414,-3.4414,-3.4414,-3.4414,-3.4324,-3.4186,-3.4848,-3.4996,-3.4682,-3.4218,-3.3582,-3.287,-3.287,-3.2642,-3.2304,-3.2304,-3.2432,-3.2692,-3.2817,-3.288,-3.288,-3.3018,-3.3124,-3.3124,-3.3124,-3.3124,-3.3124,-3.3124,-3.3124,-3.3124,-3.3124,-3.3124,-3.2939,-3.2164,-3.1258,-3.0306,-2.9314,-2.8351,-2.7584,-2.7357,-2.7309,-2.7309,-2.7309,-2.7309,-2.7262,-2.7034,-2.6948,-2.6747,-2.6304,-2.6149,-2.6004,-2.5732,-2.5693,-2.5693,-2.5693,-2.5693,-2.5693,-2.5693,-2.5693,-2.5693,-2.5693,-2.5693,-2.5586,-2.5323,-2.4805,-2.3899,-2.2584,-2.1227,-1.9941,-1.875,-1.8203,-1.7735,-1.7286,-1.7279,-1.7279,-1.7279,-1.7279,-1.7279,-1.7279,-1.7279,-1.7323,-3.2319,-3.3441,-3.439,-3.3776,-3.2912,0.0,-3.5112,-3.4666,0.0,-3.5208,0.0,0.0,0.0,-3.1997,-3.2151,-3.3594,-3.4798,-3.5975,-3.7191,-3.7304,-3.7111,-3.666,-3.6182,-3.5708,-3.5285,-3.4754,-3.4448,-3.4414,-3.4414,-3.4414,-3.4414,-3.4414,-3.4414,-3.4414,-3.4414,-3.4395,-3.437,-3.4453,-3.4236,-3.3813,-3.4556,-3.4444,-3.3621,-3.3621,-3.3235,-3.2592,-3.2592,-3.2179,-3.1549,-3.2064,-3.2277,-3.2328,-3.2867,-3.3124,-3.3124,-3.3124,-3.3124,-3.3124,-3.3124,-3.3124,-3.3124,-3.3124,-3.3124,-3.3081,-3.3025,-3.2307,-3.1303,-3.0351,-2.936,-2.8409,-2.7536,-2.7309,-2.7309,-2.7309,-2.7309,-2.7309,-2.7262,-2.7081,-2.6794,-2.6554,-2.6294,-2.6004,-2.5732,-2.5693,-2.5693,-2.5693,-2.5693,-2.5693,-2.5693,-2.5693,-2.5693,-2.5693,-2.5693,-2.5274,-2.4295,-2.5069,-2.4716,-2.2643,-2.1464,-2.0543,-1.9811,-1.8803,-1.7969,-1.7293,-1.7279,-1.7279,-1.7279,-1.7279,-1.7279,-1.7279,-1.7279,-1.7494,-3.1966,-3.3131,-3.4319,-3.4283,-3.3803,0.0,0.0,-3.7053,-3.7093,-3.6863,-3.6912,0.0,0.0,-3.4103,-3.4633,-3.4851,-3.6107,-3.7049,-3.7011,-3.6998,-3.6846,-3.643,-3.5928,-3.5561,-3.5527,-3.5019,-3.4702,-3.4702,-3.4702,-3.4668,-3.4597,-3.4683,-3.4601,-3.4414,-3.4515,-3.4515,-3.4414,-3.4414,-3.4324,-3.4122,-3.4455,-3.4193,-3.3398,-3.3398,-3.3164,-3.2739,-3.2239,-3.2071,-3.2114,-3.1817,-3.17,-3.175,-3.2315,-3.2541,-3.2591,-3.2943,-3.3124,-3.3124,-3.3124,-3.3124,-3.3124,-3.3124,-3.3124,-3.3124,-3.3124,-3.2394,-3.1536,-3.1169,-2.9943,-2.8491,-2.7536,-2.7309,-2.7309,-2.7309,-2.7309,-2.7309,-2.7309,-2.7214,-2.7081,-2.6794,-2.6651,-2.6448,-2.6014,-2.5965,-2.5868,-2.5732,-2.5693,-2.5693,-2.5693,-2.5693,-2.5693,-2.5693,-2.5693,-2.4981,-2.3244,-2.4097,-2.4048,-2.2584,-2.2743,-2.2402,-2.1243,-1.9996,-1.9084,-1.8605,-1.7749,-1.7381,-1.7633,-1.7633,-1.7735,-1.7933,-1.7933,-1.7999,-3.1805,-3.245,-3.3291,-3.3842,0.0,0.0,-3.6968,-3.807,-3.8579,-3.8431,-3.8142,-3.7292,-3.5349,-3.5747,-3.6254,-3.5931,-3.7102,-3.7873,-3.7314,-3.7043,-3.6754,-3.6352,-3.5817,-3.5479,-3.5462,-3.5118,-3.4902,-3.4902,-3.4902,-3.4868,-3.475,-3.4835,-3.4802,-3.4582,-3.4683,-3.4683,-3.4481,-3.4481,-3.4448,-3.4414,-3.4414,-3.4113,-3.3589,-3.3589,-3.336,-3.2942,-3.215,-3.1897,-3.2032,-3.1422,-3.1248,-3.1436,-3.18,-3.1951,-3.2026,-3.2591,-3.2805,-3.283,-3.3018,-3.3124,-3.3124,-3.3124,-3.3124,-3.3124,-3.3124,-3.2624,-3.1989,-3.1669,-3.0453,-2.8945,-2.7987,-2.7536,-2.7309,-2.7309,-2.7309,-2.7309,-2.7309,-2.7309,-2.7214,-2.6948,-2.69,-2.6747,-2.6294,-2.6149,-2.6052,-2.5868,-2.5732,-2.5693,-2.5693,-2.5693,-2.5693,-2.5693,-2.5693,-2.4824,-2.2685,-2.3791,-2.3998,-2.2593,-2.3493,-2.361,-2.2571,-2.1233,-2.0257,-1.9566,-1.8626,-1.807,-1.7969,-1.7969,-1.8086,-1.8299,-1.8299,-1.8357,-3.1931,-3.1524,-3.1362,0.0,0.0,0.0,-3.6551,-3.7106,-3.7726,-3.9952,-3.8853,-3.7377,-3.6976,-3.6701,-3.6509,-3.6492,-3.7578,-3.8391,-3.8363,-3.7815,-3.7177,-3.6646,-3.6055,-3.5494,-3.4968,-3.4902,-3.4902,-3.4902,-3.4902,-3.4902,-3.4902,-3.4902,-3.4902,-3.4902,-3.4902,-3.4835,-3.4698,-3.4698,-3.4597,-3.4414,-3.4414,-3.4414,-3.4414,-3.4414,-3.3962,-3.3178,-3.2434,-3.1636,-3.0897,-3.0698,-3.0909,-3.1373,-3.1386,-3.1386,-3.1449,-3.2001,-3.2202,-3.229,-3.2867,-3.3111,-3.3124,-3.3124,-3.3124,-3.3124,-3.3124,-3.3124,-3.2896,-3.1901,-3.0935,-2.9988,-2.8945,-2.7998,-2.7309,-2.7309,-2.7309,-2.7309,-2.7309,-2.7309,-2.7214,-2.6948,-2.69,-2.6805,-2.6554,-2.6294,-2.61,-2.61,-2.5868,-2.5693,-2.5693,-2.5693,-2.5693,-2.5693,-2.5693,-2.4824,-2.2693,-2.4461,-2.4775,-2.2643,-2.3493,-2.3904,-2.3597,-2.2554,-2.1357,-1.9933,-1.9877,-1.9349,-1.8306,-1.8306,-1.8313,-1.8313,-1.8313,-1.8482,-3.1695,-3.2805,0.0,-3.3386,0.0,0.0,0.0,-3.7825,0.0,0.0,-3.9548,-3.8373,-3.7124,-3.7758,-3.8058,-3.6708,-3.7726,-3.8315,-3.728,-3.6965,-3.6538,-3.5705,-3.5459,-3.5329,-3.5326,-3.5326,-3.5326,-3.5326,-3.5326,-3.5261,-3.5115,-3.5261,-3.518,-3.4902,-3.5034,-3.5016,-3.4835,-3.4835,-3.475,-3.4597,-3.4597,-3.4549,-3.4414,-3.4414,-3.4264,-3.3962,-3.2662,-3.1965,-3.1649,-3.0509,-3.0131,-3.0306,-3.0696,-3.0846,-3.0909,-3.1436,-3.1888,-3.224,-3.2403,-3.2742,-3.3124,-3.3124,-3.3124,-3.3124,-3.3124,-3.3124,-3.2896,-3.1901,-3.0935,-2.9988,-2.8945,-2.7998,-2.7309,-2.7309,-2.7309,-2.7309,-2.7309,-2.7309,-2.7262,-2.7225,-2.7167,-2.7034,-2.6592,-2.6448,-2.6255,-2.5878,-2.5732,-2.5693,-2.5693,-2.5693,-2.5693,-2.5693,-2.5693,-2.5118,-2.3741,-2.3493,-2.3194,-2.2534,-2.2089,-2.2482,-2.3865,-2.1965,-2.0702,-2.0251,-1.9284,-1.8748,-1.8642,-1.8642,-1.876,-1.8986,-1.8986,-1.9038,-3.1975,-3.3062,0.0,-3.4779,-3.6095,-3.7469,-3.827,0.0,0.0,0.0,-3.9713,-3.899,-3.8018,-3.8649,-3.8937,-3.7781,-3.8383,-3.8706,-3.7793,-3.7249,-3.6722,-3.6134,-3.5621,-3.5359,-3.5504,-3.5504,-3.5504,-3.5504,-3.5504,-3.5439,-3.5326,-3.5439,-3.5392,-3.5148,-3.5261,-3.5213,-3.5001,-3.4935,-3.4835,-3.4698,-3.4631,-3.4515,-3.4414,-3.4414,-3.4414,-3.4298,-3.2769,-3.1928,-3.1526,-3.0279,-2.9792,-2.9829,-3.0156,-3.0281,-3.0357,-3.0884,-3.1298,-3.1612,-3.1813,-3.2252,-3.2729,-3.2729,-3.288,-3.3124,-3.3124,-3.3124,-3.2982,-3.2351,-3.1492,-3.0531,-2.9532,-2.8585,-2.7762,-2.7404,-2.7309,-2.7309,-2.7309,-2.7309,-2.7309,-2.7309,-2.7309,-2.7214,-2.688,-2.6747,-2.6506,-2.6072,-2.583,-2.5693,-2.5693,-2.5693,-2.5693,-2.5693,-2.5693,-2.5274,-2.4196,-2.3899,-2.3601,-2.3135,-2.2139,-2.2139,-2.3384,-2.202,-2.1012,-2.0618,-1.9768,-1.9229,-1.8986,-1.8986,-1.9081,-1.9279,-1.9279,-1.9279,-3.2646,-3.2833,0.0,-3.619,-3.7025,0.0,-3.9428,-3.9563,-3.9405,-3.9824,0.0,-3.9299,-3.9299,-3.9299,-3.9299,-3.9299,-3.9299,-3.9272,-3.9148,-3.8141,-3.737,-3.7251,-3.6196,-3.5504,-3.5504,-3.5504,-3.5504,-3.5504,-3.5504,-3.5504,-3.5504,-3.5504,-3.5504,-3.5504,-3.5504,-3.5407,-3.5213,-3.5034,-3.4883,-3.4731,-3.4549,-3.4448,-3.4414,-3.4414,-3.4346,-3.423,-3.2804,-3.1709,-3.0857,-3.0177,-2.9856,-2.9792,-2.9792,-2.9792,-2.9854,-3.0357,-3.057,-3.0683,-3.116,-3.1675,-3.2152,-3.219,-3.2566,-3.3048,-3.3056,-3.3124,-3.3068,-3.2982,-3.2264,-3.1258,-3.0306,-2.9303,-2.8351,-2.7489,-2.7309,-2.7309,-2.7309,-2.7309,-2.7309,-2.7309,-2.7309,-2.7309,-2.7262,-2.7081,-2.6805,-2.6496,-2.6024,-2.5693,-2.5693,-2.5693,-2.5693,-2.5693,-2.5693,-2.5323,-2.4344,-2.5069,-2.5118,-2.4038,-2.2944,-2.2282,-2.2181,-2.219,-2.1735,-2.0783,-2.0731,-2.0285,-1.9279,-1.9279,-1.9279,-1.9279,-1.9279,-1.9279,-3.3149,-3.4608,0.0,0.0,-3.7937,-3.8917,-3.9339,-3.9352,-3.9405,-3.9824,-3.959,-3.9299,-3.9299,-3.9299,-3.9299,-3.9299,-3.9299,-3.8942,-3.7953,-3.7576,-3.7027,-3.6037,-3.5683,-3.5504,-3.5504,-3.5504,-3.5504,-3.5504,-3.5504,-3.5504,-3.5504,-3.5504,-3.5504,-3.5504,-3.5504,-3.5472,-3.5439,-3.5392,-3.5294,-3.5082,-3.4868,-3.475,-3.4631,-3.4481,-3.4045,-3.3451,-3.3122,-3.2169,-3.0895,-3.072,-3.0305,-2.9792,-2.9792,-2.9792,-2.9804,-2.993,-3.0244,-3.0633,-3.0746,-3.1122,-3.1637,-3.2077,-3.2303,-3.2478,-3.2943,-3.3124,-3.2939,-3.212,-3.1214,-3.026,-2.9268,-2.8315,-2.7536,-2.7357,-2.7309,-2.7309,-2.7309,-2.7309,-2.7309,-2.7309,-2.7309,-2.7214,-2.7034,-2.6948,-2.6747,-2.6245,-2.5917,-2.5693,-2.5693,-2.5693,-2.5693,-2.5693,-2.5693,-2.5586,-2.5382,-2.4815,-2.3998,-2.2885,-2.1836,-2.0885,-2.0034,-1.9983,-1.9879,-1.9628,-1.9628,-1.9524,-1.9279,-1.9279,-1.9279,-1.9279,-1.9279,-1.9279,-3.3567,0.0,0.0,-3.7798,0.0,-3.9299,-3.9299,-3.9299,-3.9352,-3.9563,-3.9458,-3.9299,-3.9299,-3.9299,-3.9299,-3.9299,-3.9023,-3.8606,-3.7908,-3.731,-3.6662,-3.6005,-3.5683,-3.5504,-3.5504,-3.5504,-3.5504,-3.5504,-3.5504,-3.5504,-3.5504,-3.5504,-3.5504,-3.5504,-3.5504,-3.5504,-3.5504,-3.5392,-3.5294,-3.518,-3.5001,-3.485,-3.4698,-3.4481,-3.4147,-3.3742,-3.3367,-3.2741,-3.1938,-3.1217,-3.0683,-3.0305,-2.9934,-2.9792,-2.9792,-2.9792,-2.998,-3.0218,-3.0218,-3.057,-3.1072,-3.1361,-3.1788,-3.2277,-3.2566,-3.2855,-3.2982,-3.2494,-3.1989,-3.1258,-2.9806,-2.9084,-2.8445,-2.7536,-2.7309,-2.7309,-2.7309,-2.7309,-2.7309,-2.7309,-2.7309,-2.7262,-2.7129,-2.6996,-2.6699,-2.6197,-2.5955,-2.5868,-2.5742,-2.5693,-2.5693,-2.5693,-2.5693,-2.5693,-2.5693,-2.4707,-2.384,-2.3285,-2.1785,-2.0637,-2.0086,-1.9576,-1.9279,-1.9279,-1.9279,-1.9279,-1.9279,-1.9279,-1.9279,-1.9279,-1.9279,-1.9279,-3.3569,0.0,-3.5762,-3.8609,-3.9299,0.0,-3.9299,-3.9299,-3.9299,-3.9299,-3.9299,-3.9299,-3.9299,-3.9299,-3.9299,-3.9299,-3.8745,-3.825,-3.8165,-3.7161,-3.6368,-3.6258,-3.5797,-3.5504,-3.5504,-3.5504,-3.5504,-3.5504,-3.5504,-3.5504,-3.5504,-3.5504,-3.5504,-3.5504,-3.5504,-3.5504,-3.5504,-3.5326,-3.5261,-3.5261,-3.5034,-3.4883,-3.4698,-3.4515,-3.4414,-3.4366,-3.3707,-3.3332,-3.3073,-3.1696,-3.1044,-3.082,-3.0113,-2.9792,-2.9792,-2.9792,-2.9792,-2.9792,-2.9792,-3.0093,-3.0495,-3.0583,-3.121,-3.1976,-3.2152,-3.2554,-3.2955,-3.3056,-3.2853,-3.2208,-3.0621,-2.9943,-2.9303,-2.7668,-2.7309,-2.7309,-2.7309,-2.7309,-2.7309,-2.7309,-2.7309,-2.7309,-2.7309,-2.7081,-2.6757,-2.6294,-2.6149,-2.6004,-2.5781,-2.5732,-2.5693,-2.5693,-2.5693,-2.5693,-2.5693,-2.4707,-2.4038,-2.384,-2.1988,-2.0834,-2.0629,-1.9776,-1.9279,-1.9279,-1.9279,-1.9279,-1.9279,-1.9279,-1.9279,-1.9279,-1.9279,-1.9279,0.0,0.0,-3.7041,0.0,-3.9299,-3.9299,0.0,0.0,-3.9299,0.0,-3.9299,-3.9299,-3.9299,-3.9299,-3.9299,-3.9299,-3.8745,-3.8108,-3.7589,-3.686,-3.6196,-3.5683,-3.5569,-3.5504,-3.5504,-3.5504,-3.5504,-3.5504,-3.5504,-3.5504,-3.5504,-3.5504,-3.5504,-3.5504,-3.5504,-3.5504,-3.5504,-3.5472,-3.5472,-3.5472,-3.5261,-3.4997,-3.4698,-3.4664,-3.4563,-3.438,-3.4298,-3.3845,-3.3143,-3.229,-3.1526,-3.082,-3.0113,-2.9792,-2.9792,-2.9792,-2.9792,-2.9792,-2.9792,-2.9842,-2.998,-3.0457,-3.0721,-3.1009,-3.1938,-3.2265,-3.2428,-3.293,-3.1889,-3.0531,-3.026,-2.8945,-2.7631,-2.7357,-2.7309,-2.7309,-2.7309,-2.7309,-2.7309,-2.7309,-2.7309,-2.7309,-2.7309,-2.7081,-2.69,-2.6805,-2.64,-2.61,-2.6052,-2.582,-2.5693,-2.5693,-2.5693,-2.5693,-2.5693,-2.4707,-2.3692,-2.2785,-2.1582,-2.0483,-1.9524,-1.9376,-1.9279,-1.9279,-1.9279,-1.9279,-1.9279,-1.9279,-1.9279,-1.9279,-1.9279,-1.9279,-3.3261,-3.5341,-3.7426,0.0,-3.9299,-3.9299,-3.9299,-3.9299,-3.9299,-3.9299,-3.9299,-3.9299,-3.9299,-3.9299,-3.9175,-3.8799,-3.821,-3.756,-3.692,-3.629,-3.5797,-3.5537,-3.5504,-3.5504,-3.5504,-3.5504,-3.5504,-3.5504,-3.5504,-3.5504,-3.5504,-3.5504,-3.5504,-3.5504,-3.5504,-3.5504,-3.5504,-3.5504,-3.5504,-3.5504,-3.5294,-3.5049,-3.4817,-3.4731,-3.4597,-3.4414,-3.4414,-3.4196,-3.3811,-3.3052,-3.2254,-3.1489,-3.0733,-3.0165,-2.9792,-2.9792,-2.9792,-2.9792,-2.9792,-2.9792,-2.9829,-3.008,-3.0369,-3.0708,-3.1173,-3.1738,-3.2265,-3.2516,-3.1833,-3.0857,-3.0351,-2.913,-2.794,-2.7441,-2.7309,-2.7309,-2.7309,-2.7309,-2.7309,-2.7309,-2.7309,-2.7262,-2.7081,-2.7081,-2.7034,-2.6699,-2.6602,-2.6496,-2.6352,-2.611,-2.5917,-2.5917,-2.5781,-2.5693,-2.5693,-2.4707,-2.3642,-2.2593,-2.1481,-2.0431,-1.9324,-1.9279,-1.9279,-1.9279,-1.9279,-1.9279,-1.9279,-1.9279,-1.9279,-1.9279,-1.9279,-1.9279,0.0,0.0,-3.6489,-3.8245,-3.8725,-3.8851,0.0,0.0,-3.9299,-3.9299,-3.9299,-3.9299,-3.9299,-3.9299,-3.9094,-3.8407,-3.7793,-3.7161,-3.6492,-3.5878,-3.5504,-3.5504,-3.5504,-3.5504,-3.5504,-3.5504,-3.5504,-3.5504,-3.5504,-3.5504,-3.5504,-3.5504,-3.5504,-3.5504,-3.5504,-3.5554,-3.5733,-3.591,-3.5973,-3.5973,-3.5831,-3.5559,-3.5216,-3.5067,-3.4802,-3.4481,-3.4414,-3.4414,-3.4346,-3.352,-3.2755,-3.2001,-3.1217,-3.0444,-2.9792,-2.9792,-2.9792,-2.9792,-2.9792,-2.9792,-2.9792,-2.9792,-3.0068,-3.0432,-3.057,-3.1173,-3.1863,-3.2139,-3.181,-3.128,-3.0676,-2.9624,-2.8538,-2.7809,-2.7489,-2.7309,-2.7309,-2.7309,-2.7309,-2.7309,-2.7309,-2.7214,-2.7034,-2.7177,-2.7119,-2.6688,-2.6699,-2.6747,-2.6554,-2.6245,-2.61,-2.61,-2.5917,-2.5781,-2.5693,-2.4707,-2.3741,-2.2935,-2.1887,-2.0834,-1.9724,-1.9732,-1.9576,-1.9331,-1.9279,-1.9279,-1.9279,-1.9279,-1.9279,-1.9279,-1.9279,-1.9279,0.0,-3.2778,0.0,-3.6331,-3.7125,0.0,0.0,0.0,-3.9299,-3.9299,-3.9299,-3.9299,-3.9299,-3.9299,-3.9094,-3.8407,-3.7793,-3.7161,-3.6492,-3.5878,-3.5504,-3.5504,-3.5504,-3.5504,-3.5504,-3.5504,-3.5504,-3.5504,-3.5504,-3.5504,-3.5504,-3.5504,-3.5504,-3.5504,-3.5504,-3.5765,-3.6337,-3.6981,-3.731,-3.731,-3.728,-3.6875,-3.6148,-3.5928,-3.5429,-3.4664,-3.4481,-3.4414,-3.4346,-3.352,-3.2755,-3.2001,-3.1217,-3.0444,-2.9792,-2.9792,-2.9792,-2.9792,-2.9792,-2.9792,-2.9792,-2.9792,-2.9817,-2.993,-3.0457,-3.0658,-3.0909,-3.1926,-3.154,-3.0956,-3.1404,-3.0125,-2.8678,-2.8631,-2.7951,-2.7309,-2.7309,-2.7309,-2.7309,-2.7309,-2.7309,-2.7309,-2.7262,-2.7309,-2.7214,-2.69,-2.6651,-2.6496,-2.6496,-2.6245,-2.61,-2.61,-2.61,-2.5955,-2.5732,-2.4707,-2.4088,-2.4038,-2.2985,-2.1937,-2.0885,-2.0834,-2.0336,-1.9324,-1.9279,-1.9279,-1.9279,-1.9279,-1.9279,-1.9279,-1.9279,-1.9279,0.0,0.0,0.0,-3.5044,-3.6224,-3.7142,-3.7765,-3.8636,-3.9299,-3.9299,-3.9299,-3.9299,-3.9299,-3.9299,-3.8942,-3.7879,-3.7546,-3.7041,-3.5973,-3.5651,-3.5504,-3.5504,-3.5504,-3.5504,-3.5504,-3.5504,-3.5504,-3.5504,-3.5504,-3.5504,-3.5504,-3.5504,-3.5504,-3.5504,-3.5878,-3.6383,-3.7041,-3.728,-3.7399,-3.7399,-3.7399,-3.6996,-3.6196,-3.6133,-3.5559,-3.4698,-3.4631,-3.4515,-3.438,-3.4079,-3.352,-3.272,-3.1965,-3.1206,-3.0444,-2.996,-2.9792,-2.9792,-2.9792,-2.9792,-2.9792,-2.9792,-2.9792,-2.9829,-3.003,-3.0331,-3.0696,-3.1072,-3.0999,-3.0694,-3.025,-2.9421,-2.8538,-2.7951,-2.7536,-2.7309,-2.7309,-2.7309,-2.7309,-2.7309,-2.7309,-2.7309,-2.7309,-2.7309,-2.7262,-2.7177,-2.7071,-2.7023,-2.7023,-2.6784,-2.6554,-2.64,-2.6197,-2.6004,-2.5732,-2.5323,-2.4815,-2.4137,-2.3085,-2.2038,-2.0936,-2.0233,-1.968,-1.9331,-1.9279,-1.9279,-1.9279,-1.9279,-1.9279,-1.9279,-1.9279,-1.9279,-3.1815,0.0,0.0,0.0,0.0,-3.577,-3.6845,-3.7873,-3.8728,-3.9199,-3.9299,-3.9299,-3.9299,-3.9299,-3.8887,-3.7605,-3.7399,-3.6966,-3.5683,-3.5504,-3.5504,-3.5504,-3.5504,-3.5504,-3.5504,-3.5504,-3.5504,-3.5504,-3.5504,-3.5504,-3.5504,-3.5504,-3.5587,-3.5797,-3.6399,-3.7041,-3.7706,-3.7924,-3.8055,-3.8055,-3.8055,-3.7634,-3.6906,-3.6646,-3.6023,-3.5166,-3.485,-3.4597,-3.4414,-3.4414,-3.3928,-3.3108,-3.2398,-3.1599,-3.082,-3.0062,-2.9792,-2.9792,-2.9792,-2.9792,-2.9792,-2.9792,-2.9792,-2.9792,-2.9792,-3.0043,-3.0382,-3.057,-3.0663,-3.0652,-3.0355,-2.9958,-2.936,-2.8081,-2.7762,-2.7678,-2.7357,-2.7309,-2.7309,-2.7309,-2.7309,-2.7309,-2.7309,-2.7309,-2.7262,-2.7167,-2.7177,-2.7177,-2.7177,-2.6996,-2.6853,-2.6651,-2.6448,-2.6207,-2.5868,-2.582,-2.5518,-2.4845,-2.3692,-2.2584,-2.1633,-2.0431,-1.968,-1.9331,-1.9279,-1.9279,-1.9279,-1.9279,-1.9279,-1.9279,-1.9279,-1.9279,0.0,0.0,0.0,0.0,0.0,0.0,-3.6324,0.0,-3.7527,-3.896,-3.9232,-3.9249,-3.9299,-3.9299,-3.8887,-3.7605,-3.7399,-3.6966,-3.5683,-3.5504,-3.5504,-3.5504,-3.5504,-3.5504,-3.5504,-3.5504,-3.5504,-3.5504,-3.5504,-3.5504,-3.5504,-3.5504,-3.5797,-3.6399,-3.7071,-3.7706,-3.8306,-3.8952,-3.9299,-3.9299,-3.9299,-3.8925,-3.8266,-3.7472,-3.6784,-3.6116,-3.5148,-3.4597,-3.4414,-3.4414,-3.3928,-3.3143,-3.2434,-3.1636,-3.0857,-3.0101,-2.983,-2.9792,-2.9792,-2.9792,-2.9792,-2.9792,-2.9792,-2.9792,-2.9792,-2.9792,-2.9905,-3.0444,-3.0608,-3.0819,-3.183,-3.1822,-3.1012,-2.9108,-2.8667,-2.8409,-2.7489,-2.7309,-2.7309,-2.7309,-2.7309,-2.7309,-2.7309,-2.7309,-2.7214,-2.6948,-2.69,-2.69,-2.69,-2.69,-2.69,-2.69,-2.69,-2.6699,-2.6149,-2.61,-2.61,-2.61,-2.4845,-2.3741,-2.2994,-2.1641,-2.0431,-1.9383,-1.9324,-1.9279,-1.9279,-1.9279,-1.9279,-1.9279,-1.9279,-1.9279,-3.0952,0.0,0.0,0.0,0.0,0.0,-3.3871,-3.4891,-3.6072,-3.7426,-3.7715,-3.803,-3.91,-3.9299,-3.8887,-3.7605,-3.7399,-3.6966,-3.5683,-3.5504,-3.5504,-3.5504,-3.5504,-3.5504,-3.5504,-3.5504,-3.5504,-3.5504,-3.5504,-3.5504,-3.5504,-3.591,-3.6461,-3.7101,-3.7735,-3.8351,-3.9023,-3.9202,-3.9299,-3.9299,-3.9299,-3.8733,-3.7648,-3.7429,-3.6646,-3.5459,-3.518,-3.4883,-3.4597,-3.4448,-3.4264,-3.4011,-3.3192,-3.242,-3.1673,-3.0871,-3.0279,-2.9792,-2.9792,-2.9792,-2.9792,-2.9792,-2.9792,-2.9792,-2.9792,-2.9792,-2.9829,-2.998,-3.0306,-3.0437,-2.9821,-2.9284,-2.8643,-2.7477,-2.7426,-2.7631,-2.7357,-2.7309,-2.7309,-2.7309,-2.7309,-2.7309,-2.7309,-2.7309,-2.7262,-2.7214,-2.7167,-2.7167,-2.7167,-2.7167,-2.7129,-2.69,-2.69,-2.6699,-2.6149,-2.61,-2.6004,-2.583,-2.4747,-2.3989,-2.3791,-2.1937,-2.0783,-2.0483,-1.968,-1.9279,-1.9279,-1.9279,-1.9279,-1.9279,-1.9279,-1.9279,-3.1052,-3.0972,-3.0892,-3.0834,0.0,0.0,-3.3539,-3.4495,-3.5688,-3.7633,-3.7798,-3.7869,-3.8706,-3.8871,-3.8451,-3.7191,-3.7221,-3.6966,-3.5683,-3.5504,-3.5504,-3.5504,-3.5504,-3.5504,-3.5504,-3.5504,-3.5504,-3.5504,-3.5504,-3.5619,-3.5846,-3.6196,-3.6829,-3.7735,-3.8108,-3.8618,-3.9299,-3.9299,-3.9299,-3.9299,-3.9299,-3.8914,-3.8169,-3.7634,-3.692,-3.6086,-3.5459,-3.5049,-3.4783,-3.4582,-3.4481,-3.4298,-3.3157,-3.247,-3.1978,-3.0846,-3.0177,-2.9792,-2.9792,-2.9792,-2.9792,-2.9792,-2.9792,-2.9792,-2.9792,-2.9792,-2.9792,-2.9792,-3.0193,-3.0431,-2.9682,-2.9451,-2.9104,-2.7983,-2.7926,-2.7964,-2.74,-2.7309,-2.7309,-2.7309,-2.7309,-2.7309,-2.7309,-2.7309,-2.7309,-2.7309,-2.7309,-2.7309,-2.7309,-2.7309,-2.7262,-2.7081,-2.7081,-2.689,-2.6448,-2.6448,-2.6352,-2.6217,-2.5099,-2.4285,-2.3939,-2.219,-2.1038,-2.0585,-1.9828,-1.9428,-1.9279,-1.9279,-1.9279,-1.9279,-1.9279,-1.9279,-3.1241,-3.1072,-3.0952,-3.0995,-3.0972,0.0,-3.4074,-3.4697,-3.5459,-3.8057,-3.8078,-3.7713,-3.7848,-3.7908,-3.7468,-3.6194,-3.6635,-3.6764,-3.5668,-3.5504,-3.5504,-3.5504,-3.5504,-3.5504,-3.5504,-3.5504,-3.5504,-3.5504,-3.5504,-3.5765,-3.6368,-3.6461,-3.7071,-3.825,-3.8379,-3.8717,-3.9299,-3.9299,-3.9299,-3.9299,-3.9299,-3.9272,-3.9148,-3.7953,-3.737,-3.7221,-3.5816,-3.5115,-3.4935,-3.4783,-3.4582,-3.4264,-3.2875,-3.2268,-3.1942,-3.0545,-2.9934,-2.9792,-2.9792,-2.9792,-2.9792,-2.9792,-2.9792,-2.9792,-2.9792,-2.9792,-2.9792,-2.9792,-3.0143,-3.048,-3.0401,-3.0735,-3.077,-2.932,-2.9077,-2.8802,-2.75,-2.7268,-2.7309,-2.7309,-2.7309,-2.7309,-2.7309,-2.7309,-2.7309,-2.7309,-2.7309,-2.7309,-2.7309,-2.7309,-2.7309,-2.7309,-2.7309,-2.7167,-2.69,-2.69,-2.69,-2.6853,-2.5742,-2.4688,-2.389,-2.2584,-2.1387,-2.0285,-1.9887,-1.9583,-1.9279,-1.9279,-1.9279,-1.9279,-1.9279,-1.9279,-3.1512,-3.1171,-3.1112,-3.1015,-3.1072,0.0,-3.1633,-3.1725,-3.2164,-3.3676,-3.3792,-3.3971,-3.5119,-3.5357,-3.4969,-3.3633,-3.4659,-3.5583,-3.5501,-3.5504,-3.5504,-3.5504,-3.5504,-3.5504,-3.5504,-3.5504,-3.5504,-3.5504,-3.5504,-3.5765,-3.6368,-3.692,-3.7531,-3.8278,-3.8799,-3.9175,-3.9299,-3.9299,-3.9299,-3.9299,-3.9299,-3.9023,-3.8463,-3.7735,-3.7101,-3.6538,-3.5782,-3.5326,-3.5115,-3.4949,-3.4668,-3.438,-3.4079,-3.3206,-3.2037,-3.1759,-3.0872,-2.9792,-2.9792,-2.9792,-2.9792,-2.9792,-2.9792,-2.9792,-2.9792,-2.9792,-2.9792,-2.9792,-2.9867,-2.9786,-2.9068,-2.9246,-2.9112,-2.7437,-2.7602,-2.7889,-2.6951,-2.704,-2.7309,-2.7309,-2.7309,-2.7309,-2.7309,-2.7309,-2.7309,-2.7309,-2.7309,-2.7309,-2.7309,-2.7309,-2.7309,-2.7309,-2.7309,-2.7167,-2.69,-2.69,-2.6805,-2.6592,-2.6342,-2.5742,-2.4698,-2.3592,-2.2492,-2.142,-2.0292,-1.9583,-1.9279,-1.9279,-1.9279,-1.9279,-1.9279,-1.9279,-3.1596,-3.119,-3.119,-3.1112,-3.1112,0.0,0.0,-3.1667,-3.215,-3.3056,-3.3261,-3.3484,-3.4079,-3.4243,-3.3872,-3.252,-3.3889,-3.4674,-3.3454,-3.4571,-3.5504,-3.5504,-3.5504,-3.5504,-3.5504,-3.5504,-3.5504,-3.5504,-3.5504,-3.591,-3.6845,-3.7221,-3.7838,-3.8772,-3.9121,-3.9299,-3.9299,-3.9299,-3.9299,-3.9299,-3.9299,-3.9121,-3.8772,-3.8153,-3.7501,-3.686,-3.6227,-3.5653,-3.518,-3.4968,-3.4769,-3.4481,-3.4011,-3.3087,-3.2037,-3.1636,-3.0784,-2.9792,-2.9792,-2.9792,-2.9792,-2.9792,-2.9792,-2.9792,-2.9792,-2.9792,-2.9792,-2.9792,-2.9792,-2.9714,-2.9248,-2.8986,-2.8543,-2.742,-2.7183,-2.7102,-2.6695,-2.6801,-2.7029,-2.7258,-2.7309,-2.7309,-2.7309,-2.7309,-2.7309,-2.7309,-2.7309,-2.7309,-2.7309,-2.7309,-2.7309,-2.7309,-2.7309,-2.7262,-2.7129,-2.7081,-2.7034,-2.6928,-2.688,-2.6438,-2.5343,-2.4295,-2.2902,-2.1121,-2.0462,-1.999,-1.968,-1.9576,-1.9428,-1.9279,-1.9279,-1.9279,-3.1681,-3.119,-3.1157,-3.0982,-3.0873,-3.0911,0.0,0.0,0.0,-3.284,-3.2961,-3.295,-3.2885,-3.2821,-3.2407,-3.1314,-3.2633,-3.3137,-3.1185,-3.3006,-3.456,-3.4663,-3.5158,-3.54,-3.5113,-3.5083,-3.5188,-3.5489,-3.5233,-3.5748,-3.7324,-3.7399,-3.7982,-3.9272,-3.9299,-3.9299,-3.9299,-3.9299,-3.9299,-3.9299,-3.9299,-3.9299,-3.9272,-3.8618,-3.7966,-3.737,-3.6692,-3.599,-3.5261,-3.5034,-3.4883,-3.465,-3.3776,-3.2875,-3.2001,-3.1378,-3.0558,-2.9792,-2.9792,-2.9792,-2.9792,-2.9792,-2.9792,-2.9792,-2.9792,-2.9792,-2.9792,-2.9792,-2.9792,-2.9753,-2.9585,-2.904,-2.8319,-2.7584,-2.6954,-2.6476,-2.6372,-2.6444,-2.6729,-2.7102,-2.7247,-2.7309,-2.7309,-2.7309,-2.7309,-2.7309,-2.7309,-2.7309,-2.7309,-2.7309,-2.7309,-2.7309,-2.7309,-2.7309,-2.7309,-2.7309,-2.7309,-2.7309,-2.7109,-2.6524,-2.5441,-2.4146,-2.2551,-2.0522,-2.0522,-2.0351,-2.0078,-1.9828,-1.9583,-1.9376,-1.9324,-1.9279,-3.1952,-3.119,-3.0999,-3.0163,-3.0073,-2.9979,-2.9104,0.0,-2.9384,-2.9805,0.0,-2.8997,-2.9458,0.0,0.0,-2.8484,-2.9051,-2.9664,-3.0136,-3.0758,-3.1273,-3.156,-3.3897,-3.5008,-3.3673,-3.3554,-3.4077,-3.5415,-3.4288,-3.4668,-3.7261,-3.7399,-3.7982,-3.9272,-3.9299,-3.9299,-3.9299,-3.9299,-3.9299,-3.9299,-3.9299,-3.9299,-3.9272,-3.8618,-3.7966,-3.737,-3.6692,-3.6053,-3.5439,-3.5261,-3.5034,-3.4835,-3.4433,-3.3395,-3.2074,-3.2001,-3.1046,-2.9792,-2.9792,-2.9792,-2.9792,-2.9792,-2.9792,-2.9792,-2.9792,-2.9792,-2.9792,-2.9792,-2.9792,-2.9624,-2.8831,-2.8581,-2.8063,-2.6426,-2.6276,-2.6293,-2.5524,-2.6009,-2.6625,-2.6687,-2.7029,-2.7309,-2.7309,-2.7309,-2.7309,-2.7309,-2.7309,-2.7309,-2.7309,-2.7309,-2.7309,-2.7309,-2.7309,-2.7309,-2.7309,-2.7309,-2.7309,-2.7309,-2.6428,-2.5392,-2.4344,-2.2358,-2.1019,-2.0514,-2.0522,-2.0351,-2.0078,-1.9828,-1.968,-1.9628,-1.9428,-1.9279,-3.1765,-3.1816,-3.2148,-3.0824,-3.1177,-3.1375,-2.9644,-2.9201,-2.9093,-2.8935,0.0,0.0,0.0,0.0,0.0,0.0,-2.8357,-2.881,-2.8467,-2.9796,-3.096,-3.1492,-3.2527,-3.3215,-3.3301,-3.3285,-3.3913,-3.54,-3.4122,-3.4501,-3.7261,-3.7399,-3.7982,-3.9272,-3.9299,-3.9299,-3.9299,-3.9299,-3.9299,-3.9299,-3.9299,-3.9299,-3.9299,-3.9023,-3.8339,-3.7399,-3.7101,-3.6399,-3.5472,-3.5294,-3.5148,-3.5049,-3.4683,-3.3569,-3.211,-3.211,-3.1121,-2.9792,-2.9792,-2.9792,-2.9792,-2.9792,-2.9792,-2.9792,-2.9792,-2.9792,-2.9792,-2.9792,-2.9792,-2.9714,-2.9339,-2.8882,-2.8171,-2.6853,-2.6318,-2.5915,-2.5336,-2.5523,-2.5947,-2.6511,-2.677,-2.6988,-2.7258,-2.7309,-2.7309,-2.7309,-2.7309,-2.7309,-2.7309,-2.7309,-2.7309,-2.7309,-2.7309,-2.7309,-2.7309,-2.7309,-2.7309,-2.7309,-2.687,-2.6129,-2.5089,-2.3552,-2.2409,-2.1674,-2.1674,-2.1318,-2.0557,-2.0944,-2.079,-2.0153,-1.9583,-1.9279,-3.2324,-3.2577,-3.2959,-3.113,-3.1439,-3.1666,-2.9613,-2.9198,-2.9037,-2.8379,-2.821,0.0,0.0,0.0,-2.8006,-2.7981,0.0,-2.836,-2.7914,-2.8985,-3.005,-3.0633,-3.09,-3.1493,-3.2736,-3.2602,-3.3126,-3.4816,-3.3694,-3.4226,-3.7245,-3.7399,-3.7982,-3.9272,-3.9299,-3.9299,-3.9299,-3.9299,-3.9299,-3.9299,-3.9299,-3.9299,-3.9299,-3.9299,-3.8706,-3.7634,-3.7488,-3.6784,-3.5733,-3.5424,-3.5261,-3.5195,-3.4931,-3.3728,-3.2132,-3.211,-3.1121,-2.9792,-2.9792,-2.9792,-2.9792,-2.9792,-2.9792,-2.9792,-2.9792,-2.9792,-2.9792,-2.9792,-2.9792,-2.9753,-2.9495,-2.8791,-2.7879,-2.6976,-2.608,-2.5349,-2.5051,-2.5096,-2.5375,-2.6082,-2.6403,-2.6718,-2.7061,-2.7226,-2.7309,-2.7309,-2.7309,-2.7309,-2.7309,-2.7309,-2.7309,-2.7309,-2.7309,-2.7309,-2.7309,-2.7309,-2.7156,-2.687,-2.661,-2.5926,-2.4854,-2.38,-2.2861,-2.2072,-2.2072,-2.1827,-2.1326,-2.1556,-2.1548,-2.1361,-2.0086,-1.948,-3.415,-3.3372,-3.282,-3.0429,-2.9911,-2.9563,-2.7866,-2.8176,-2.857,-2.7706,-2.7482,-2.7607,-2.8191,-2.7779,-2.7796,-2.9198,-2.8216,0.0,0.0,-2.8124,-2.7279,-2.7695,-2.8933,-3.028,-3.1607,-3.08,-3.1134,-3.338,-3.2567,-3.3541,-3.7182,-3.7399,-3.7982,-3.9272,-3.9299,-3.9299,-3.9299,-3.9299,-3.9299,-3.9299,-3.9299,-3.9299,-3.9299,-3.9299,-3.8925,-3.8222,-3.7648,-3.7011,-3.6321,-3.5733,-3.5359,-3.518,-3.518,-3.3988,-3.2285,-3.2146,-3.1121,-2.9792,-2.9792,-2.9792,-2.9792,-2.9792,-2.9792,-2.9792,-2.9792,-2.9792,-2.9792,-2.9792,-2.9792,-2.9624,-2.8752,-2.7851,-2.6935,-2.6027,-2.5179,-2.454,-2.4518,-2.4879,-2.5199,-2.523,-2.5978,-2.6615,-2.6635,-2.7009,-2.7309,-2.7309,-2.7309,-2.7309,-2.7309,-2.7309,-2.7309,-2.7309,-2.7309,-2.7309,-2.7309,-2.7309,-2.687,-2.5839,-2.4786,-2.3701,-2.2627,-2.1573,-2.0968,-2.0968,-2.0968,-2.1428,-2.2426,-2.1173,-2.1607,-2.3543,-2.1183,-1.9931,-3.5126,-3.5583,-3.5678,-3.2833,-3.2803,-3.2693,-2.968,-2.9176,-2.8992,-2.7808,-2.7557,-2.7587,-2.7801,-2.7651,-2.7836,-2.8877,-2.8118,-2.7768,0.0,-2.8372,-2.799,-2.8122,-2.9235,-2.9981,-3.0105,-3.0679,-3.167,-3.3258,-3.302,-3.4165,-3.7229,-3.7399,-3.7982,-3.9272,-3.9299,-3.9299,-3.9299,-3.9299,-3.9299,-3.9299,-3.9299,-3.9299,-3.9299,-3.9299,-3.8925,-3.8266,-3.7648,-3.7011,-3.6337,-3.5733,-3.5472,-3.5392,-3.5261,-3.409,-3.2464,-3.2349,-3.122,-2.9792,-2.9792,-2.9792,-2.9792,-2.9792,-2.9792,-2.9792,-2.9792,-2.9792,-2.9792,-2.9792,-2.9792,-2.9585,-2.8752,-2.8251,-2.7637,-2.6152,-2.5579,-2.5179,-2.4615,-2.4621,-2.4828,-2.5127,-2.5471,-2.5771,-2.6061,-2.6542,-2.6957,-2.7258,-2.7309,-2.7309,-2.7309,-2.7309,-2.7309,-2.7309,-2.7309,-2.7309,-2.7309,-2.7309,-2.7167,-2.6764,-2.5732,-2.5285,-2.5684,-2.3939,-2.3003,-2.3003,-2.3003,-2.2509,-2.142,-2.2409,-2.2902,-2.2911,-2.2793,-2.2139,-3.6546,-3.7121,-3.729,-3.4711,-3.4729,-3.446,-3.0975,-3.0352,-2.9951,-2.803,-2.7629,-2.7814,-2.8388,-2.8234,-2.8369,-2.9488,-2.9046,-2.8642,0.0,-2.8591,-2.8411,-2.8411,-2.9066,-2.9498,-2.9544,-3.0039,-3.099,-3.2467,-3.293,-3.4157,-3.649,-3.7319,-3.8226,-3.9272,-3.9299,-3.9299,-3.9299,-3.9299,-3.9299,-3.9299,-3.9299,-3.9299,-3.9299,-3.9299,-3.905,-3.8618,-3.778,-3.7161,-3.6692,-3.5861,-3.5504,-3.5504,-3.5359,-3.424,-3.2678,-3.2442,-3.1281,-2.9792,-2.9792,-2.9792,-2.9792,-2.9792,-2.9792,-2.9792,-2.9792,-2.9792,-2.9792,-2.9792,-2.9585,-2.9209,-2.8673,-2.8011,-2.7261,-2.6069,-2.5537,-2.5179,-2.4615,-2.4497,-2.459,-2.489,-2.5075,-2.5282,-2.5595,-2.603,-2.6532,-2.6988,-2.7195,-2.7309,-2.7309,-2.7309,-2.7309,-2.7309,-2.7309,-2.7309,-2.7309,-2.7309,-2.7309,-2.7309,-2.6284,-2.5994,-2.6726,-2.5031,-2.4088,-2.4088,-2.375,-2.3061,-2.2064,-2.266,-2.3203,-2.3619,-2.3552,-2.3393]},{"header":{"parameterUnit":"m.s-1","parameterCategory":1,"la1":30.6,"la2":29.2853,"lo1":-89.7004,"lo2":-87.6739,"dy":0.0162,"dx":0.0183,"nx":112,"ny":82,"refTime":"2023-06-07T18:00:00:Z","depth":0,"parameterNumber":3,"parameterNumberName":"V-component_of_WINDS"},"data":[0.0,0.0,0.0,0.0,0.0,0.0,0.0,0.0,0.0,0.0,0.0,0.0,0.0,0.0,0.0,0.0,0.0,0.0,0.0,0.0,0.0,0.0,0.0,0.0,0.0,0.0,0.0,0.0,0.0,0.0,0.0,0.0,0.0,0.0,0.0,0.0,0.0,0.0,0.0,0.0,0.0,0.0,0.0,0.0,0.0,0.0,0.0,0.0,0.0,0.0,0.0,0.0,0.0,0.0,0.0,0.0,0.0,0.0,0.0,0.0,0.0,0.0,0.0,0.0,0.0,0.0,0.0,0.0,0.0,0.0,0.0,0.0,0.0,0.0,0.0,0.0,0.0,0.0,0.0,0.0,0.0,0.0,0.0,0.0,0.0,0.0,0.0,0.0,0.0,0.0,-3.4268,-3.3198,-3.2668,-3.2586,-3.3039,-3.3563,-3.4111,-3.4649,0.0,0.0,0.0,0.0,0.0,0.0,0.0,0.0,0.0,0.0,0.0,0.0,0.0,0.0,0.0,0.0,0.0,0.0,0.0,0.0,0.0,0.0,0.0,0.0,0.0,0.0,0.0,0.0,0.0,0.0,0.0,0.0,0.0,0.0,0.0,0.0,0.0,0.0,0.0,0.0,0.0,0.0,0.0,0.0,0.0,0.0,0.0,0.0,0.0,0.0,0.0,0.0,0.0,0.0,0.0,0.0,0.0,0.0,0.0,0.0,0.0,0.0,0.0,0.0,0.0,0.0,0.0,0.0,0.0,0.0,0.0,0.0,0.0,0.0,0.0,0.0,0.0,0.0,0.0,0.0,0.0,0.0,0.0,0.0,0.0,0.0,0.0,0.0,0.0,0.0,0.0,0.0,0.0,0.0,0.0,0.0,0.0,0.0,0.0,0.0,0.0,0.0,0.0,0.0,-3.3716,-3.2641,-3.2453,-3.2437,-3.252,-3.3013,-3.3547,-3.4086,0.0,0.0,0.0,0.0,0.0,0.0,0.0,0.0,0.0,0.0,0.0,0.0,0.0,0.0,0.0,0.0,0.0,0.0,0.0,0.0,0.0,0.0,0.0,0.0,0.0,0.0,0.0,0.0,0.0,0.0,0.0,0.0,0.0,0.0,0.0,0.0,0.0,0.0,0.0,0.0,0.0,0.0,0.0,0.0,0.0,0.0,0.0,0.0,0.0,0.0,0.0,0.0,0.0,0.0,0.0,0.0,0.0,0.0,0.0,0.0,0.0,0.0,0.0,0.0,0.0,0.0,0.0,0.0,0.0,0.0,0.0,0.0,0.0,0.0,0.0,0.0,0.0,0.0,0.0,0.0,0.0,0.0,0.0,0.0,0.0,0.0,0.0,0.0,0.0,0.0,0.0,0.0,0.0,0.0,0.0,0.0,0.0,0.0,0.0,0.0,0.0,0.0,0.0,-3.3459,-3.2922,-3.2437,-3.2398,-3.2398,-3.2398,-3.2895,-3.3433,-3.396,-3.4721,0.0,0.0,0.0,0.0,0.0,0.0,0.0,0.0,0.0,0.0,0.0,0.0,0.0,0.0,0.0,0.0,0.0,0.0,0.0,0.0,0.0,0.0,0.0,0.0,0.0,0.0,0.0,0.0,0.0,0.0,0.0,0.0,0.0,0.0,0.0,0.0,0.0,0.0,0.0,0.0,0.0,0.0,0.0,0.0,0.0,0.0,0.0,0.0,0.0,0.0,0.0,0.0,0.0,0.0,0.0,0.0,0.0,0.0,0.0,0.0,0.0,0.0,0.0,0.0,0.0,0.0,0.0,0.0,0.0,0.0,0.0,0.0,0.0,0.0,0.0,0.0,0.0,0.0,0.0,0.0,0.0,0.0,0.0,0.0,0.0,0.0,0.0,0.0,0.0,0.0,0.0,0.0,0.0,0.0,0.0,0.0,0.0,0.0,0.0,0.0,0.0,0.0,-3.2815,-3.2398,-3.2398,-3.2398,-3.2398,-3.2398,-3.2776,-3.3382,-3.4228,-3.4652,0.0,0.0,0.0,0.0,0.0,0.0,0.0,0.0,0.0,0.0,0.0,0.0,0.0,0.0,0.0,0.0,0.0,0.0,0.0,0.0,0.0,0.0,0.0,0.0,0.0,0.0,0.0,0.0,0.0,0.0,0.0,0.0,0.0,0.0,0.0,0.0,0.0,0.0,0.0,0.0,0.0,0.0,0.0,0.0,0.0,0.0,0.0,0.0,0.0,0.0,0.0,0.0,0.0,0.0,0.0,0.0,0.0,0.0,0.0,0.0,0.0,0.0,0.0,0.0,0.0,0.0,0.0,0.0,0.0,0.0,0.0,0.0,0.0,0.0,0.0,0.0,0.0,0.0,0.0,0.0,0.0,0.0,0.0,0.0,0.0,0.0,0.0,0.0,0.0,0.0,0.0,0.0,0.0,0.0,0.0,0.0,0.0,0.0,0.0,0.0,0.0,0.0,-3.3029,-3.2398,-3.2398,-3.2398,-3.2398,-3.2398,-3.2437,-3.322,-3.5007,-3.5084,0.0,0.0,0.0,0.0,0.0,0.0,0.0,0.0,0.0,0.0,0.0,0.0,0.0,0.0,0.0,0.0,0.0,0.0,0.0,0.0,0.0,0.0,0.0,0.0,0.0,0.0,0.0,0.0,0.0,0.0,0.0,0.0,0.0,0.0,0.0,0.0,0.0,0.0,0.0,0.0,0.0,0.0,0.0,0.0,0.0,0.0,0.0,0.0,0.0,0.0,0.0,0.0,0.0,0.0,0.0,0.0,0.0,0.0,0.0,0.0,0.0,0.0,0.0,0.0,0.0,0.0,0.0,0.0,0.0,0.0,0.0,0.0,0.0,0.0,0.0,0.0,0.0,0.0,0.0,0.0,0.0,0.0,0.0,0.0,0.0,0.0,0.0,0.0,0.0,0.0,0.0,0.0,0.0,0.0,0.0,0.0,0.0,0.0,0.0,0.0,0.0,0.0,-3.3277,-3.3198,-3.3673,-3.3719,-3.3719,-3.3719,-3.4057,-3.4707,-3.5758,0.0,0.0,0.0,0.0,0.0,0.0,0.0,0.0,0.0,0.0,0.0,0.0,0.0,0.0,0.0,0.0,0.0,0.0,0.0,0.0,0.0,0.0,0.0,0.0,0.0,0.0,0.0,0.0,0.0,0.0,0.0,0.0,0.0,0.0,0.0,0.0,0.0,0.0,0.0,0.0,0.0,0.0,0.0,0.0,0.0,0.0,0.0,0.0,0.0,0.0,0.0,0.0,0.0,0.0,0.0,0.0,0.0,0.0,0.0,0.0,0.0,0.0,0.0,0.0,0.0,0.0,0.0,0.0,0.0,0.0,0.0,0.0,0.0,0.0,0.0,0.0,0.0,0.0,0.0,0.0,0.0,0.0,0.0,0.0,0.0,0.0,0.0,0.0,0.0,0.0,0.0,0.0,0.0,0.0,0.0,0.0,0.0,0.0,0.0,0.0,0.0,0.0,-3.4289,-3.3978,-3.3921,-3.4459,-3.4505,-3.4593,-3.4781,-3.515,-3.5815,-3.678,0.0,0.0,0.0,0.0,0.0,0.0,0.0,0.0,0.0,0.0,0.0,0.0,0.0,0.0,0.0,0.0,0.0,0.0,0.0,0.0,0.0,0.0,0.0,0.0,0.0,0.0,0.0,0.0,0.0,0.0,0.0,0.0,0.0,0.0,0.0,0.0,0.0,0.0,0.0,0.0,0.0,0.0,0.0,0.0,0.0,0.0,0.0,0.0,0.0,0.0,0.0,0.0,0.0,0.0,0.0,0.0,0.0,0.0,0.0,0.0,0.0,0.0,0.0,0.0,0.0,0.0,0.0,0.0,0.0,0.0,0.0,0.0,0.0,0.0,0.0,0.0,0.0,0.0,0.0,0.0,0.0,0.0,0.0,0.0,0.0,0.0,0.0,0.0,0.0,0.0,0.0,0.0,0.0,0.0,0.0,0.0,0.0,0.0,0.0,0.0,0.0,0.0,-3.6108,-3.5206,-3.452,-3.452,-3.452,-3.4783,-3.5363,-3.5419,-3.6215,0.0,0.0,0.0,0.0,0.0,0.0,0.0,0.0,0.0,0.0,0.0,0.0,0.0,0.0,0.0,0.0,0.0,0.0,0.0,0.0,0.0,0.0,0.0,0.0,0.0,0.0,0.0,0.0,0.0,0.0,0.0,0.0,0.0,0.0,0.0,0.0,0.0,0.0,0.0,0.0,0.0,0.0,0.0,0.0,0.0,0.0,0.0,0.0,0.0,0.0,0.0,0.0,0.0,0.0,0.0,0.0,0.0,0.0,0.0,0.0,0.0,0.0,0.0,0.0,0.0,0.0,0.0,0.0,0.0,0.0,0.0,0.0,0.0,0.0,0.0,0.0,0.0,0.0,0.0,0.0,0.0,0.0,0.0,0.0,0.0,0.0,0.0,0.0,0.0,0.0,0.0,0.0,0.0,0.0,0.0,0.0,0.0,0.0,0.0,0.0,0.0,0.0,0.0,-3.6302,-3.5685,-3.5563,-3.6446,-3.6149,-3.6149,-3.6742,-3.7201,-3.7871,-3.8848,0.0,0.0,0.0,0.0,0.0,0.0,0.0,0.0,0.0,0.0,0.0,0.0,0.0,0.0,0.0,0.0,0.0,0.0,0.0,0.0,0.0,0.0,0.0,0.0,0.0,0.0,0.0,0.0,0.0,0.0,0.0,0.0,0.0,0.0,0.0,0.0,0.0,0.0,0.0,0.0,0.0,0.0,0.0,0.0,0.0,0.0,0.0,0.0,0.0,0.0,0.0,0.0,0.0,0.0,0.0,0.0,0.0,0.0,0.0,0.0,0.0,0.0,0.0,0.0,0.0,0.0,0.0,0.0,0.0,0.0,0.0,0.0,0.0,0.0,0.0,0.0,0.0,0.0,0.0,0.0,0.0,0.0,0.0,0.0,0.0,0.0,0.0,0.0,0.0,0.0,0.0,0.0,0.0,0.0,0.0,0.0,0.0,0.0,0.0,0.0,0.0,0.0,-3.7134,-3.6639,-3.647,-3.6996,-3.6723,-3.6831,-3.7679,-3.8096,-3.8657,-3.9497,0.0,0.0,0.0,0.0,0.0,0.0,0.0,0.0,0.0,0.0,0.0,0.0,0.0,0.0,0.0,0.0,0.0,0.0,0.0,0.0,0.0,0.0,0.0,0.0,0.0,0.0,0.0,0.0,0.0,0.0,0.0,0.0,0.0,0.0,0.0,0.0,0.0,0.0,0.0,0.0,0.0,0.0,0.0,0.0,0.0,0.0,0.0,0.0,0.0,0.0,0.0,0.0,0.0,0.0,0.0,0.0,0.0,0.0,0.0,0.0,0.0,0.0,0.0,0.0,0.0,0.0,0.0,0.0,0.0,0.0,0.0,0.0,0.0,0.0,0.0,0.0,0.0,0.0,0.0,0.0,0.0,0.0,0.0,0.0,0.0,0.0,0.0,0.0,0.0,0.0,0.0,0.0,0.0,0.0,0.0,0.0,0.0,0.0,0.0,0.0,0.0,0.0,-3.8365,-3.7796,-3.7238,-3.68,-3.6693,-3.7133,-3.8294,-3.8362,-3.8876,-4.002,0.0,0.0,0.0,0.0,0.0,0.0,0.0,0.0,0.0,0.0,0.0,0.0,0.0,0.0,0.0,0.0,0.0,0.0,0.0,0.0,0.0,0.0,0.0,0.0,0.0,0.0,0.0,0.0,0.0,0.0,0.0,0.0,0.0,0.0,0.0,0.0,0.0,0.0,0.0,0.0,0.0,0.0,0.0,0.0,0.0,0.0,0.0,0.0,0.0,0.0,0.0,0.0,0.0,0.0,0.0,0.0,0.0,0.0,0.0,0.0,-2.7201,-2.6325,0.0,0.0,0.0,0.0,0.0,0.0,0.0,0.0,0.0,0.0,0.0,0.0,0.0,0.0,0.0,0.0,0.0,0.0,0.0,0.0,0.0,0.0,0.0,0.0,0.0,0.0,0.0,0.0,0.0,0.0,0.0,0.0,0.0,0.0,0.0,0.0,0.0,0.0,0.0,0.0,-3.8957,-3.8055,-3.7725,-3.8535,-3.821,-3.821,-3.8947,-3.9001,-3.9339,-4.0045,-4.0096,0.0,0.0,0.0,0.0,0.0,0.0,0.0,0.0,0.0,0.0,0.0,0.0,0.0,0.0,0.0,0.0,0.0,0.0,0.0,0.0,0.0,0.0,0.0,0.0,0.0,0.0,0.0,0.0,0.0,0.0,0.0,0.0,0.0,0.0,0.0,0.0,0.0,0.0,0.0,0.0,0.0,0.0,0.0,0.0,0.0,0.0,0.0,0.0,0.0,0.0,0.0,0.0,0.0,0.0,0.0,0.0,0.0,0.0,0.0,-2.9391,-2.8354,0.0,0.0,0.0,0.0,0.0,0.0,0.0,0.0,0.0,0.0,0.0,0.0,0.0,0.0,0.0,0.0,0.0,0.0,0.0,0.0,0.0,0.0,0.0,0.0,0.0,0.0,0.0,0.0,0.0,0.0,0.0,0.0,0.0,0.0,0.0,0.0,0.0,0.0,0.0,0.0,-3.9206,-3.8645,-3.8379,-3.8739,-3.849,-3.8546,-3.9152,-3.9206,-3.9444,-4.0045,-4.0096,0.0,0.0,0.0,0.0,0.0,0.0,0.0,0.0,0.0,0.0,0.0,0.0,0.0,0.0,0.0,0.0,0.0,0.0,0.0,0.0,0.0,0.0,0.0,0.0,0.0,0.0,0.0,0.0,0.0,0.0,0.0,0.0,0.0,0.0,0.0,0.0,0.0,0.0,0.0,0.0,0.0,0.0,0.0,0.0,0.0,0.0,0.0,0.0,0.0,0.0,0.0,0.0,0.0,-3.1416,-3.1563,-3.1663,-3.1873,-3.2232,-3.2667,-3.2133,-3.1115,-2.9801,-2.9517,0.0,0.0,0.0,0.0,0.0,0.0,0.0,0.0,0.0,0.0,0.0,0.0,0.0,0.0,0.0,0.0,0.0,0.0,0.0,0.0,0.0,0.0,-3.6621,-3.9434,-4.0096,-4.0096,-4.0096,0.0,0.0,0.0,0.0,0.0,0.0,0.0,0.0,0.0,0.0,0.0,-3.9418,-3.9259,-3.9055,-3.8657,-3.8613,-3.8821,-3.9312,-3.9365,-3.9566,-4.007,-4.0096,-4.0096,0.0,0.0,0.0,0.0,0.0,0.0,0.0,0.0,0.0,0.0,0.0,0.0,0.0,0.0,0.0,0.0,0.0,0.0,0.0,0.0,0.0,0.0,0.0,0.0,0.0,0.0,0.0,0.0,0.0,0.0,0.0,0.0,-2.603,-2.595,0.0,0.0,0.0,0.0,0.0,0.0,0.0,0.0,0.0,0.0,0.0,0.0,0.0,-3.0519,-3.0642,-3.0991,-3.1432,-3.198,-3.3005,-3.3798,-3.4322,-3.5301,-3.5829,-3.5875,-3.5783,0.0,-3.2263,-3.1363,0.0,0.0,0.0,0.0,0.0,0.0,0.0,0.0,0.0,0.0,0.0,0.0,0.0,0.0,0.0,0.0,0.0,0.0,0.0,0.0,0.0,0.0,-3.6621,-3.9434,-4.0096,-4.0096,-4.0096,-4.0096,-4.0096,-4.0096,-4.0096,-4.0096,0.0,0.0,0.0,0.0,0.0,0.0,-3.9901,-3.9523,-3.9365,-3.9825,-3.985,-3.9876,-3.9969,-3.9995,-4.002,-4.0096,-4.0096,-4.0096,-4.0096,-4.0096,0.0,0.0,0.0,0.0,0.0,0.0,0.0,0.0,0.0,0.0,0.0,0.0,0.0,0.0,0.0,0.0,0.0,0.0,0.0,0.0,0.0,0.0,0.0,0.0,0.0,0.0,0.0,0.0,0.0,-2.4554,-2.5149,-2.4577,-2.4757,-2.4703,0.0,0.0,0.0,0.0,0.0,0.0,0.0,0.0,0.0,-2.8983,-3.1065,-3.2307,-3.2565,-3.3637,-3.4312,-3.4579,-3.5097,-3.5516,-3.578,-3.6276,-3.6492,-3.6492,-3.6492,-3.586,-3.4804,-3.3633,-3.3206,-3.3233,0.0,0.0,0.0,0.0,-3.4197,-3.4096,-3.4096,-3.4096,-3.4096,-3.4096,0.0,0.0,0.0,0.0,0.0,0.0,0.0,-3.3419,-3.5395,-3.6502,-3.7585,-3.9613,-4.0096,-4.0096,-4.0096,-4.0096,-4.0096,-4.0096,-4.0096,-4.0096,-4.0096,-4.0096,0.0,0.0,0.0,-3.9799,-4.007,-3.9867,-3.9799,-4.007,-4.0096,-4.0096,-4.0096,-4.0096,-4.0096,-4.0096,-4.0096,-4.0096,-4.0096,-4.0096,-4.0096,0.0,0.0,0.0,0.0,0.0,0.0,0.0,0.0,0.0,0.0,0.0,0.0,0.0,0.0,0.0,0.0,0.0,0.0,0.0,0.0,0.0,0.0,0.0,0.0,0.0,0.0,0.0,0.0,-2.457,-2.5045,-2.4074,-2.4814,-2.5121,0.0,0.0,0.0,0.0,0.0,0.0,-2.7149,-2.8951,-3.027,-3.0926,-3.2909,-3.4155,-3.449,-3.5829,-3.6492,-3.6492,-3.6492,-3.6492,-3.6492,-3.6492,-3.6492,-3.6492,-3.6492,-3.6585,-3.6646,-3.5397,-3.4727,-3.4503,-3.4701,-3.5091,-3.5644,-3.5937,-3.6002,-3.5898,-3.5898,-3.5898,-3.5898,-3.5898,-3.5898,-3.5898,-3.5898,0.0,0.0,0.0,0.0,-3.4723,-3.6081,-3.7217,-3.8347,-3.9782,-4.0096,-4.0096,-4.0096,-4.0096,-4.0096,-4.0096,-4.0096,-4.0096,-4.0096,-4.0096,0.0,-4.0096,-4.0096,-4.0096,-4.0096,-4.0096,-4.0096,-4.0096,-4.0096,-4.0096,-4.0096,-4.0096,-4.0096,-4.0096,-4.0096,-4.0096,-4.0096,-4.0096,-4.0096,-4.0096,0.0,0.0,0.0,0.0,0.0,0.0,0.0,0.0,0.0,0.0,0.0,0.0,0.0,0.0,0.0,0.0,0.0,0.0,0.0,0.0,0.0,0.0,0.0,0.0,0.0,0.0,0.0,0.0,0.0,-2.5916,-2.6202,0.0,0.0,0.0,0.0,-2.8134,-2.8337,-2.8381,-2.8409,-3.091,-3.2362,-3.2392,-3.4958,-3.6338,-3.6369,-3.643,-3.6492,-3.6492,-3.6492,-3.6492,-3.6492,-3.6492,-3.6492,-3.6492,-3.6492,-3.6846,-3.7277,-3.611,-3.583,-3.6046,-3.5611,-3.5627,-3.5876,-3.5898,-3.5898,-3.5898,-3.5898,-3.5898,-3.5898,-3.5898,-3.5898,-3.5898,-3.5898,-3.5847,0.0,0.0,-3.5749,-3.6115,-3.7534,-3.7946,-3.8347,-3.9782,-4.0096,-4.0096,-4.0096,-4.0096,-4.0096,-4.0096,-4.0096,-4.0096,-4.0096,0.0,-4.0096,-4.0096,-4.0096,-4.0096,-4.0096,-4.0096,-4.0096,-4.0096,-4.0096,-4.0096,-4.0096,-4.0096,-4.0096,-4.0096,-4.0096,-4.0096,-4.0096,-4.0096,-4.0096,-4.0096,-4.0096,0.0,0.0,0.0,0.0,0.0,0.0,0.0,0.0,0.0,0.0,0.0,0.0,0.0,0.0,0.0,0.0,0.0,0.0,0.0,0.0,0.0,0.0,0.0,0.0,0.0,0.0,0.0,0.0,-2.699,-2.7664,0.0,-2.7903,-2.7753,-2.7871,-2.8453,-2.9459,-3.0192,-3.0539,-3.2781,-3.4178,-3.4539,-3.5813,-3.6492,-3.6492,-3.6492,-3.6492,-3.6492,-3.6492,-3.6492,-3.6492,-3.6492,-3.6492,-3.6523,-3.6892,-3.7208,-3.7429,-3.7815,-3.804,-3.8124,-3.7967,-3.817,-3.8601,-3.8601,-3.8601,-3.8601,-3.8601,-3.8601,-3.8601,-3.8601,-3.8601,-3.8438,-3.7534,-3.7251,-3.7047,-3.6149,-3.6547,-3.7364,-3.7885,-3.8662,-3.9477,-3.9977,-4.0096,-4.0096,-4.0096,-4.0096,-4.0096,-4.0096,-4.0096,-4.0096,-4.0096,-4.0096,-4.0096,-4.0096,-4.0096,-4.0096,-4.0096,-4.0096,-4.0096,-4.0096,-4.0096,-4.0096,-4.0096,-4.0096,-4.0096,-4.0096,-4.0096,-4.0096,-4.0096,-4.0096,-4.0096,-4.0096,-4.0096,-4.0096,0.0,0.0,0.0,0.0,0.0,0.0,0.0,0.0,0.0,0.0,0.0,0.0,0.0,0.0,0.0,0.0,0.0,0.0,0.0,0.0,0.0,0.0,0.0,0.0,0.0,-2.6605,-2.7583,-2.7876,-2.8755,-2.9323,-2.9301,-2.9316,-2.9515,-3.0068,-3.1105,-3.195,-3.2483,-3.3871,-3.4942,-3.5688,-3.6053,-3.632,-3.6492,-3.6492,-3.6492,-3.6492,-3.6492,-3.6492,-3.6492,-3.6492,-3.6492,-3.6523,-3.7134,-3.7519,-3.7767,-3.8783,-3.9312,-3.9497,-3.9497,-3.9747,-4.0096,-4.0096,-4.0096,-4.0096,-4.0096,-4.0096,-4.0096,-4.0096,-4.0096,-3.9926,-3.9001,-3.8696,-3.8516,-3.7568,-3.7986,-3.8696,-3.8696,-3.9417,-4.0096,-4.0096,-4.0096,-4.0096,-4.0096,-4.0096,-4.0096,-4.0096,-4.0096,-4.0096,-4.0096,-4.0096,-4.0096,-4.0096,-4.0096,-4.0096,-4.0096,-4.0096,-4.0096,-4.0096,-4.0096,-4.0096,-4.0096,-4.0096,-4.0096,-4.0096,-4.0096,-4.0096,-4.0096,-4.0096,-4.0096,-4.0096,-4.0096,-4.0096,-4.0096,0.0,0.0,0.0,0.0,0.0,0.0,0.0,0.0,0.0,0.0,0.0,0.0,0.0,0.0,0.0,0.0,0.0,0.0,0.0,0.0,0.0,0.0,0.0,-2.7059,-2.8555,-2.9365,-2.8699,-2.9484,-3.0316,-3.091,-3.0967,-3.1636,-3.3185,-3.329,-3.3542,-3.4051,-3.4104,-3.461,-3.5655,-3.572,-3.599,-3.6492,-3.6492,-3.6492,-3.6492,-3.6492,-3.6492,-3.6492,-3.6492,-3.6492,-3.6523,-3.7148,-3.7767,-3.8351,-3.8974,-3.9575,-4.0096,-4.0096,-4.0096,-4.0096,-4.0096,-4.0096,-4.0096,-4.0096,-4.0096,-4.0096,-4.0096,-4.0096,-4.0096,-4.0096,-4.0096,-4.0096,-4.0096,-4.0096,-4.0096,-4.0096,-4.0096,-4.0096,-4.0096,-4.0096,-4.0096,-4.0096,-4.0096,-4.0096,-4.0096,-4.0096,-4.0096,-4.0096,-4.0096,-4.0096,-4.0096,-4.0096,0.0,-4.0096,-4.0096,-4.0096,-4.0096,-4.0096,-4.0096,-4.0096,-4.0096,-4.0096,-4.0096,-4.0096,-4.0096,-4.0096,-4.0096,-4.0096,-4.0096,-4.0096,-4.0096,-4.0096,0.0,0.0,0.0,0.0,0.0,0.0,0.0,0.0,0.0,0.0,0.0,0.0,0.0,0.0,0.0,0.0,0.0,0.0,0.0,0.0,0.0,-2.8531,-2.9478,-2.9082,-2.9547,-3.0247,-3.1203,-3.1561,-3.1979,-3.2599,-3.2621,-3.2833,-3.3283,-3.329,-3.3347,-3.3507,-3.4254,-3.4824,-3.5106,-3.5879,-3.6352,-3.6492,-3.6492,-3.6492,-3.6492,-3.6492,-3.6492,-3.6492,-3.6492,-3.6492,-3.6554,-3.7592,-3.8153,-3.8362,-3.9428,-3.9944,-4.0096,-4.0096,-4.0096,-4.0096,-4.0096,-4.0096,-4.0096,-4.0096,-4.0096,-4.0096,-4.0096,-4.0096,-4.0096,-4.0096,-4.0096,-4.0096,-4.0096,-4.0096,-4.0096,-4.0096,-4.0096,-4.0096,-4.0096,-4.0096,-4.0096,-4.0096,-4.0096,-4.0096,-4.0096,-4.0096,-4.0096,-4.0096,-4.0096,-4.0096,-4.0096,-4.0096,-4.0096,-4.0096,-4.0096,-4.0096,-4.0096,-4.0096,-4.0096,-4.0096,-4.0096,-4.0096,-4.0096,-4.0096,-4.0096,-4.0096,-4.0096,-4.0096,-4.0096,-4.0096,-4.0096,0.0,0.0,0.0,0.0,0.0,0.0,0.0,0.0,0.0,0.0,0.0,0.0,0.0,0.0,0.0,0.0,0.0,0.0,0.0,0.0,0.0,0.0,-2.9897,-3.082,-3.1199,-3.1326,-3.1669,-3.243,-3.2674,-3.2849,-3.3009,-3.3206,-3.329,-3.329,-3.3122,-3.3333,-3.3942,-3.4172,-3.4695,-3.5544,-3.5958,-3.6258,-3.6492,-3.6492,-3.6492,-3.6492,-3.6492,-3.6492,-3.6492,-3.6492,-3.6492,-3.6554,-3.7504,-3.8067,-3.8362,-3.9322,-3.9876,-4.0096,0.0,0.0,0.0,0.0,-4.0096,-4.0096,-4.0096,-4.0096,-4.0096,-4.0096,-4.0096,-4.0096,-4.0096,-4.0096,-4.0096,-4.0096,-4.0096,-4.0096,-4.0096,-4.0096,-4.0096,-4.0096,-4.0096,-4.0096,-4.0096,-4.0096,-4.0096,-4.0096,-4.0096,0.0,-4.0096,-4.0096,-4.0096,-4.0096,-4.0096,-4.0096,-4.0096,-4.0096,-4.0096,-4.0096,-4.0096,-4.0096,-4.0096,-4.0096,0.0,0.0,0.0,-4.0096,-4.0096,-4.0096,0.0,0.0,0.0,-4.0096,-4.0096,-4.0377,0.0,0.0,-4.0099,-4.0058,0.0,0.0,0.0,0.0,0.0,0.0,0.0,0.0,0.0,0.0,0.0,0.0,0.0,0.0,0.0,0.0,-3.0713,-3.1392,-3.2947,-3.3171,-3.3051,-3.281,-3.3016,-3.3051,-3.2775,-3.3051,-3.3241,-3.3241,-3.2931,-3.336,-3.4677,-3.4056,0.0,0.0,0.0,-3.6022,-3.6492,-3.6492,-3.6492,-3.6492,-3.6492,-3.6492,-3.6492,-3.6492,-3.6554,-3.6631,-3.7238,-3.7854,-3.8463,-3.9055,-3.9618,-4.0096,-4.0096,-4.0096,-4.0096,-4.0096,-4.0096,-4.0096,-4.0096,0.0,0.0,-4.0096,-4.0096,-4.0096,-4.0096,-4.0096,-4.0096,-4.0096,-4.0096,-4.0096,-4.0096,-4.0096,-4.0096,-4.0096,-4.0096,-4.0096,-4.0096,-4.0096,-4.0096,-4.0096,-4.0096,-4.0096,-4.0096,-4.0096,-4.0096,-4.0096,-4.0096,-4.0096,-4.0096,-4.0096,-4.0096,-4.0096,-4.0096,0.0,-4.0096,-4.0096,-4.0096,-4.0096,-4.0096,-4.0096,-4.0096,-4.0096,-4.0096,-4.0096,-4.0096,-4.0096,-4.0096,-4.0096,-4.0096,-4.0096,-4.0531,-4.0507,0.0,0.0,0.0,0.0,0.0,0.0,0.0,0.0,0.0,0.0,0.0,0.0,0.0,0.0,0.0,-3.0788,-3.1398,-3.1928,-3.2282,-3.2322,-3.2538,-3.3136,-3.2682,-3.2574,-3.3136,-3.2966,-3.281,-3.281,-3.3051,-3.3353,-3.3748,-3.4327,-3.5008,-3.5816,-3.6148,-3.6398,-3.6492,-3.6492,-3.6492,-3.6492,-3.6492,0.0,-3.6492,-3.6492,-3.6754,-3.7268,-3.7867,-3.8463,-3.9082,-3.9696,-3.9995,-4.0096,-4.0096,-4.0096,-4.0096,-4.0096,-4.0096,-4.0096,-4.0096,-4.0096,-4.0096,-4.0096,-4.0096,-4.0096,-4.0096,-4.0096,0.0,-4.0096,-4.0096,-4.0096,-4.0096,-4.0096,-4.0096,-4.0096,-4.0096,-4.0096,-4.0096,-4.0096,-4.0096,-4.0096,-4.0096,-4.0096,-4.0096,-4.0096,-4.0096,-4.0096,-4.0096,-4.0096,-4.0096,-4.0096,-4.0096,-4.0096,-4.0096,-4.0096,-4.0096,-4.0096,-4.0096,-4.0096,-4.0096,-4.0096,-4.0096,-4.0096,-4.0096,-4.0096,-4.0096,-4.0096,-4.0096,-4.0096,-4.0096,-4.0096,-4.0196,-4.0196,0.0,0.0,0.0,0.0,0.0,0.0,0.0,0.0,0.0,0.0,0.0,-2.949,-2.949,0.0,-3.0812,-3.1006,-3.1343,-3.1666,-3.2055,-3.1776,-3.1776,-3.2372,-3.225,-3.225,-3.266,-3.2525,-3.2489,-3.2668,-3.2717,-3.3058,-3.3871,-3.4259,-3.4975,-3.6053,-3.6242,-3.6383,-3.6492,-3.6492,-3.6492,-3.6492,-3.6492,-3.6492,-3.6492,-3.6492,-3.6831,-3.7417,-3.7709,-3.8351,-3.9259,-3.985,-4.0096,-4.0096,-4.0096,-4.0096,-4.0096,-4.0096,-4.0096,-4.0096,-4.0096,-4.0096,-4.0096,-4.0096,-4.0096,-4.0096,-4.0096,-4.0096,-4.0096,-4.0096,-4.0096,-4.0096,-4.0096,-4.0096,-4.0096,-4.0096,-4.0096,-4.0096,-4.0096,-4.0096,-4.0096,-4.0096,-4.0096,-4.0096,-4.0096,-4.0096,-4.0096,-4.0096,-4.0096,-4.0096,-4.0096,-4.0096,-4.0096,-4.0096,-4.0096,-4.0096,-4.0096,-4.0096,-4.0096,-4.0096,-4.0096,-4.0096,-4.0096,-4.0096,-4.0096,-4.0096,-4.0328,-4.0328,-4.0096,-4.0328,-4.0328,-4.0096,-4.0096,-4.0096,0.0,0.0,0.0,0.0,0.0,0.0,0.0,0.0,-2.9277,-3.0058,-3.0261,-3.0295,-3.0295,-3.0467,-3.0726,-3.114,-3.1073,-3.1235,-3.1909,-3.1421,-3.1123,-3.1445,-3.1776,-3.2019,-3.2092,-3.2092,-3.22,-3.2489,-3.2309,-3.2712,-3.3856,-3.4124,-3.4843,-3.6179,-3.6242,-3.6352,-3.6492,-3.6492,-3.6492,-3.6492,-3.6492,-3.6492,-3.6492,-3.6631,-3.6997,-3.7578,-3.7825,-3.856,-3.9634,-4.0095,-4.04,-4.0536,-4.0536,-4.0536,-4.0502,-4.0214,-4.0096,-4.0096,-4.0096,-4.0096,-4.0096,-4.0096,-4.0096,-4.0096,-4.0096,-4.0096,-4.0096,-4.0096,-4.0096,-4.0096,-4.0096,-4.0096,-4.0096,-4.0096,-4.0096,-4.0096,-4.0096,-4.0096,-4.0096,-4.0096,-4.0096,-4.0096,-4.0096,-4.0096,-4.0096,-4.0096,-4.0096,-4.0096,-4.0096,-4.0096,-4.0096,-4.0096,-4.0096,-4.0096,-4.0096,-4.0096,-4.0096,-4.0096,-4.0096,-4.0096,-4.0096,-4.0096,-4.0096,-4.0096,-4.0556,-4.0611,-4.0246,-4.0707,-4.0754,-4.036,-4.036,-4.0279,-2.4695,-2.4979,-2.5703,-2.5479,-2.7138,-2.8657,0.0,0.0,-2.9906,-2.9992,-3.0192,-3.0295,-3.0295,-3.0467,-3.0726,-3.114,-3.1073,-3.1161,-3.1593,-3.1272,-3.1024,-3.1061,-3.1421,-3.1776,-3.2055,-3.2092,-3.1982,-3.174,-3.2309,-3.2618,-3.2613,-3.4007,-3.4942,-3.5255,-3.6038,-3.6492,-3.6492,-3.6492,-3.6492,-3.6492,-3.6492,-3.6492,-3.6523,-3.7043,-3.7637,-3.8266,-3.9322,-4.0237,-4.0965,-4.1043,-4.1457,-4.2033,-4.2033,-4.2033,-4.1907,-4.0587,-4.0096,-4.0096,-4.0096,-4.0096,-4.0096,-4.0096,-4.0096,-4.0096,-4.0096,-4.0096,-4.0096,-4.0096,-4.0096,-4.0096,-4.0096,-4.0096,-4.0096,-4.0096,-4.0096,-4.0096,-4.0096,-4.0096,-4.0096,-4.0096,-4.0096,-4.0096,-4.0096,-4.0096,-4.0096,-4.0096,-4.0096,-4.0096,-4.0096,-4.0096,-4.0096,-4.0096,-4.0096,-4.0096,-4.0096,-4.0096,-4.0096,-4.0096,-4.0096,-4.0096,-4.0096,-4.0096,-4.0096,-4.0096,-4.0556,-4.0778,-4.0731,-4.1185,-4.1393,-4.1348,-4.1348,-4.0902,-2.6396,-2.6264,-2.6339,-2.748,-2.8572,-2.9282,-2.9067,-2.9692,-3.0388,-3.0553,-3.0656,-3.0692,-3.0692,-3.0781,-3.0879,-3.105,-3.104,-3.1061,-3.1235,-3.1099,-3.0986,-3.0986,-3.1347,-3.1666,-3.1813,-3.1593,-3.1482,-3.1593,-3.1873,-3.2367,-3.3017,-3.3817,-3.4677,-3.5576,-3.599,-3.6258,-3.6305,-3.6445,-3.6492,-3.6492,-3.6492,-3.6692,-3.7108,-3.7744,-3.8803,-4.017,-4.1023,-4.1542,-4.183,-4.183,-4.2016,-4.2286,-4.2286,-4.2286,-4.2219,-4.1619,-4.1399,-4.1399,-4.1399,-4.1399,-4.1399,-4.1399,-4.1399,-4.1399,-4.1399,-4.1399,-4.1399,-4.1399,-4.1399,-4.1399,-4.1399,-4.1399,-4.1399,-4.1399,-4.1399,-4.1399,-4.1399,-4.1035,-4.073,-4.073,-4.0375,-4.0096,-4.0096,-4.0096,-4.0096,-4.0096,-4.0096,-4.0096,-4.0096,-4.0096,-4.0096,-4.0096,-4.0096,-4.0096,-4.0096,-4.0096,-4.0096,-4.0096,-4.0353,-4.036,-4.0096,-4.0618,-4.0784,-4.0507,-4.1248,-4.1477,-4.1208,-4.1674,-4.1782,-4.1503,-4.1503,-4.1281,-2.6845,-2.689,-2.6748,-2.8484,-2.936,-2.9752,-2.9553,-3.0136,-3.0771,-3.097,-3.0986,-3.0986,-3.0986,-3.0986,-3.0986,-3.0986,-3.0986,-3.0986,-3.0986,-3.0986,-3.0986,-3.0986,-3.1272,-3.1421,-3.1421,-3.1272,-3.1235,-3.1421,-3.1519,-3.1932,-3.2769,-3.3471,-3.4327,-3.5285,-3.5767,-3.6053,-3.6196,-3.6352,-3.6553,-3.6769,-3.6769,-3.7123,-3.7801,-3.8651,-3.99,-4.1415,-4.2028,-4.2405,-4.2591,-4.2591,-4.2726,-4.2912,-4.2912,-4.2912,-4.2912,-4.2912,-4.2658,-4.2286,-4.2286,-4.2286,-4.2286,-4.2286,-4.2286,-4.2286,-4.2286,-4.2286,-4.2286,-4.2286,-4.2286,-4.2286,-4.2286,-4.2286,-4.2286,-4.2286,-4.2286,-4.2286,-4.2286,-4.188,-4.1508,-4.1508,-4.1068,-4.0654,-4.0451,-4.0417,-4.0333,-4.013,-4.0096,-4.0096,-4.0096,-4.0096,-4.0096,-4.0096,-4.0096,-4.0096,-4.0096,-4.0096,-4.0096,-4.0096,-4.0427,-4.0458,-4.0121,-4.0879,-4.1139,-4.0802,-4.1717,-4.2015,-4.1678,-4.2177,-4.2218,-4.1888,-4.1888,-4.1825,-2.4572,0.0,-2.587,-2.6779,-2.8485,-2.9845,-2.9252,-3.0088,-3.0998,-3.1024,-3.0986,-3.0986,-3.0986,-3.0986,-3.0986,-3.0986,-3.0986,-3.0986,-3.0986,-3.0986,-3.0986,-3.0986,-3.1024,-3.1024,-3.1024,-3.1347,-3.1421,-3.1061,-3.1384,-3.1445,-3.1086,-3.2981,-3.3934,-3.3575,-3.5154,-3.6053,-3.6196,-3.6211,-3.6627,-3.7477,-3.7477,-3.7831,-3.851,-3.9765,-4.0694,-4.1342,-4.2001,-4.2709,-4.3358,-4.3358,-4.3826,-4.453,-4.453,-4.453,-4.453,-4.453,-4.3572,-4.2286,-4.2286,-4.2286,-4.2286,-4.2286,-4.2286,-4.2286,-4.2286,-4.2286,-4.2286,-4.2286,-4.2286,-4.2286,-4.2286,-4.2286,-4.2286,-4.2286,-4.2286,-4.2286,-4.2286,-4.2269,-4.2252,-4.2252,-4.2236,-4.1999,-4.1288,-4.117,-4.0916,-4.0214,-4.0096,-4.0096,-4.0096,-4.0096,-4.0096,-4.0096,-4.0096,-4.0096,-4.0096,-4.0096,-4.0096,-4.0096,-4.0121,-4.0121,-4.0096,-4.0556,-4.0825,-4.0802,-4.1717,-4.2198,-4.2177,-4.2653,-4.2863,-4.2863,-4.2863,-4.2614,-2.4886,0.0,-2.6294,-2.7474,-2.83,-2.887,-2.9055,-2.9755,-3.047,-3.0911,-3.0519,-3.0124,-3.0124,-3.0124,-3.0124,-3.0124,-3.0624,-3.0986,-3.0986,-3.0986,-3.0986,-3.0986,-3.0986,-3.0986,-3.0986,-3.1123,-3.1161,-3.1024,-3.1123,-3.1371,-3.1713,-3.2875,-3.3679,-3.4007,-3.5172,-3.5894,-3.6068,-3.659,-3.7086,-3.7507,-3.8415,-3.917,-3.9861,-4.0737,-4.1716,-4.2783,-4.2986,-4.3513,-4.4198,-4.4198,-4.435,-4.4615,-4.4615,-4.4615,-4.457,-4.444,-4.4075,-4.3636,-4.3764,-4.3836,-4.3836,-4.3836,-4.3836,-4.3836,-4.3836,-4.3836,-4.3836,-4.3836,-4.3836,-4.3836,-4.3836,-4.3836,-4.3836,-4.3836,-4.3836,-4.3836,-4.3836,-4.3403,-4.3031,-4.3031,-4.2625,-4.2219,-4.1965,-4.1931,-4.1677,-4.0933,-4.0417,-4.0096,-4.0096,-4.0096,-4.0096,-4.0096,-4.0096,-4.0096,-4.0096,-4.0402,-4.041,-4.0121,-4.0995,-4.1208,-4.0604,-4.1609,-4.2035,-4.1739,-4.234,-4.2673,-4.2673,-4.2825,-4.2901,-4.2901,-4.2901,-4.2825,-2.5335,-2.5973,-2.6417,-2.7848,-2.8219,-2.8367,-2.8964,-2.9561,-3.019,-3.0861,-3.0326,-2.9684,-2.9684,-2.9443,-2.9151,-2.8958,-2.9368,-2.9852,-3.016,-3.0212,-3.0418,-3.0934,-3.0986,-3.0986,-3.0986,-3.0986,-3.0986,-3.0986,-3.0986,-3.1222,-3.1676,-3.2662,-3.3422,-3.3905,-3.5023,-3.5855,-3.6354,-3.6812,-3.7399,-3.8117,-3.9305,-4.0099,-4.0534,-4.1188,-4.2109,-4.3166,-4.3393,-4.3914,-4.4615,-4.4615,-4.4615,-4.4598,-4.4514,-4.4497,-4.4468,-4.4281,-4.4224,-4.4253,-4.444,-4.4497,-4.4497,-4.457,-4.4615,-4.4615,-4.4615,-4.4615,-4.4615,-4.4615,-4.4615,-4.4615,-4.4615,-4.4615,-4.4615,-4.4615,-4.4615,-4.4615,-4.4615,-4.4181,-4.3826,-4.3826,-4.3436,-4.3014,-4.2743,-4.2472,-4.2134,-4.166,-4.0967,-4.0417,-4.013,-4.0096,-4.0096,-4.0096,-4.0096,-4.0096,-4.0096,-4.0377,-4.0427,-4.0121,-4.1111,-4.1432,-4.0825,-4.1994,-4.2498,-4.2216,-4.2653,-4.2901,-4.2901,-4.2901,-4.2901,-4.2901,-4.2901,-4.2901,-2.5748,-2.612,-2.621,-2.7768,-2.8139,-2.8287,-2.8897,-2.9523,-3.0139,-3.0707,-3.0161,-2.9578,0.0,0.0,-2.8157,-2.759,-2.7594,-2.7962,-2.8805,-2.8875,-2.9383,0.0,-3.0898,-3.0911,-3.0949,-3.0949,-3.0949,-3.0986,-3.0986,-3.0986,-3.0986,-3.239,-3.3178,-3.3178,-3.4716,-3.5997,-3.696,-3.6887,-3.7634,-3.9234,-4.0079,-4.0489,-4.0524,-4.1142,-4.1804,-4.2489,-4.3166,-4.3856,-4.4542,-4.457,-4.457,-4.457,-4.4384,-4.431,-4.4281,-4.4155,-4.4097,-4.4097,-4.4224,-4.4265,-4.431,-4.4514,-4.457,-4.457,-4.457,-4.457,-4.457,-4.457,-4.457,-4.4587,-4.457,-4.457,-4.4587,-4.4615,-4.4615,-4.4615,-4.4615,-4.4615,-4.4615,-4.4615,-4.4615,-4.435,-4.3578,-4.2844,-4.2354,-4.2354,-4.1728,-4.0984,-4.0265,-4.013,-4.0096,-4.0096,-4.0096,-4.0096,-4.0121,-4.0171,-4.0171,-4.0171,-4.0635,-4.0896,-4.0873,-4.1739,-4.2257,-4.2257,-4.2673,-4.2901,-4.2901,-4.2901,-4.2901,-4.2901,-4.2901,-4.2901,-2.5644,-2.6109,-2.6505,-2.7267,-2.7208,-2.7185,-2.8195,-2.8897,-2.9209,-2.8699,-2.8309,-2.774,-2.6609,-2.7118,0.0,-2.7523,-2.8974,0.0,-3.0392,-3.0008,0.0,-3.0203,0.0,-2.9755,-3.019,-3.0241,-3.047,-3.0949,-3.0986,-3.0986,-3.0986,-3.239,-3.3178,-3.3178,-3.5175,-3.6412,-3.6778,-3.7857,-3.8884,-3.9808,-4.001,-4.0207,-4.0331,-4.0385,-4.0888,-4.1804,-4.2363,-4.3045,-4.381,-4.4207,-4.4367,-4.4367,-4.4212,-4.4155,-4.4126,-4.3998,-4.3956,-4.3956,-4.3998,-4.4085,-4.4155,-4.4212,-4.4229,-4.4229,-4.4229,-4.4229,-4.4229,-4.4229,-4.4229,-4.4241,-4.4338,-4.4367,-4.4412,-4.457,-4.4615,-4.4615,-4.4615,-4.4615,-4.4615,-4.4615,-4.4615,-4.4547,-4.4344,-4.3639,-4.3132,-4.3132,-4.2489,-4.1745,-4.1018,-4.0426,-4.0096,-4.0096,-4.0096,-4.0246,-4.0604,-4.0949,-4.1139,-4.1139,-4.1909,-4.2218,-4.1864,-4.2418,-4.2711,-4.2711,-4.2844,-4.2901,-4.2901,-4.2901,-4.2901,-4.2901,-4.2901,-4.2901,-2.5591,-2.6049,-2.6385,-2.7056,-2.7003,-2.696,-2.7494,-2.7777,-2.777,-2.7379,-2.6773,-2.6109,-2.5435,-2.6199,-2.6849,0.0,0.0,0.0,-2.9585,-2.9276,-2.9176,0.0,-2.9328,0.0,-2.9922,-2.9999,-3.0279,-3.0949,-3.0986,-3.0986,-3.0986,-3.2101,-3.2986,-3.3607,-3.5145,-3.6431,-3.7436,-3.8765,-3.9596,-3.9889,-3.996,-4.0066,-4.0172,-4.0031,-4.0474,-4.1294,-4.1608,-4.2157,-4.2876,-4.3183,-4.3273,-4.3273,-4.3092,-4.3246,-4.3502,-4.3386,-4.3509,-4.3763,-4.3763,-4.3822,-4.3894,-4.4039,-4.4097,-4.4097,-4.4097,-4.4097,-4.4097,-4.4097,-4.4097,-4.4126,-4.4196,-4.4253,-4.4338,-4.444,-4.4542,-4.4615,-4.4615,-4.4615,-4.4615,-4.4615,-4.4615,-4.4615,-4.4615,-4.4215,-4.3927,-4.3927,-4.3267,-4.2642,-4.2236,-4.1238,-4.0544,-4.0412,-4.0402,-4.0507,-4.0778,-4.123,-4.1503,-4.1503,-4.2198,-4.2478,-4.2198,-4.2653,-4.2901,-4.2901,-4.2901,-4.2901,-4.2901,-4.2901,-4.2901,-4.2901,-4.2901,-4.2901,-2.5458,-2.5853,-2.6063,-2.6862,-2.7067,-2.7025,-2.6747,-2.6548,-2.6365,-2.6201,-2.5369,-2.4727,-2.4861,-2.5467,-2.5829,-2.5416,0.0,-2.7635,-2.7914,-2.7891,-2.8124,-2.8893,-2.8885,-2.9133,-2.9806,-2.9883,-3.019,-3.0949,-3.0986,-3.0986,-3.0986,-3.178,-3.2946,-3.4546,-3.5307,-3.6604,-3.8512,-3.9445,-3.9818,-3.9646,-3.9854,-3.9925,-3.996,-3.9925,-4.0281,-4.0873,-4.094,-4.1311,-4.1869,-4.1933,-4.1965,-4.1933,-4.1739,-4.2062,-4.2599,-4.2506,-4.2865,-4.3462,-4.3462,-4.3539,-4.3658,-4.3952,-4.4039,-4.4039,-4.4039,-4.4039,-4.4039,-4.4039,-4.4039,-4.4039,-4.4068,-4.4155,-4.4253,-4.4281,-4.4412,-4.457,-4.457,-4.457,-4.4615,-4.4615,-4.4615,-4.4615,-4.4615,-4.4615,-4.4615,-4.4615,-4.4012,-4.3576,-4.3593,-4.2281,-4.124,-4.0954,-4.0957,-4.0953,-4.099,-4.1366,-4.1613,-4.1678,-4.2074,-4.2279,-4.2279,-4.2692,-4.2901,-4.2901,-4.2901,-4.2901,-4.2901,-4.2901,-4.2901,-4.2901,-4.2901,-4.2901,-2.5242,-2.5591,-2.5937,-2.6104,-2.6385,-2.6434,-2.5743,-2.6015,0.0,0.0,-2.4023,-2.3778,-2.2889,-2.3832,-2.4888,-2.5455,-2.6785,-2.8025,-2.8779,-2.8433,-2.8203,0.0,-2.7857,-2.7966,-2.9121,-2.925,-2.9755,-3.0911,-3.0986,-3.0986,-3.0986,-3.2182,-3.403,-3.6606,-3.7455,-3.8316,-3.923,-3.94,-3.9496,-3.9445,-3.9496,-3.9589,-3.9732,-3.9604,-3.9732,-4.0191,-4.0585,-4.0894,-4.1211,-4.1576,-4.1756,-4.1739,-4.1592,-4.1608,-4.1706,-4.1689,-4.2158,-4.2772,-4.2772,-4.3143,-4.3628,-4.3658,-4.3687,-4.3687,-4.3687,-4.3687,-4.3687,-4.3687,-4.3687,-4.3717,-4.3881,-4.3956,-4.3998,-4.4097,-4.4241,-4.4338,-4.4338,-4.4468,-4.4615,-4.4615,-4.4615,-4.4615,-4.4615,-4.4615,-4.4615,-4.4615,-4.4496,-4.447,-4.463,-4.3169,-4.2005,-4.1729,-4.1716,-4.1789,-4.1941,-4.2032,-4.2239,-4.2616,-4.2731,-4.2787,-4.2787,-4.2863,-4.2901,-4.2901,-4.2901,-4.2901,-4.2901,-4.2901,-4.2901,-4.2901,-4.2901,-4.2901,-2.5115,-2.5549,-2.5937,-2.6177,-2.6539,-2.6512,-2.5283,0.0,0.0,0.0,-2.2694,-2.2615,-2.2114,-2.3328,0.0,-2.4896,-2.6569,-2.7854,-2.7956,-2.8086,-2.8059,-2.7696,-2.7383,-2.7696,-2.8964,-2.9081,-2.9639,-3.0911,-3.0986,-3.0986,-3.0986,-3.3006,-3.4906,-3.6582,-3.8112,-3.908,-3.9388,-3.9388,-3.9388,-3.9388,-3.9388,-3.9445,-3.9553,-3.9445,-3.9496,-3.9711,-3.9935,-4.0095,-4.0181,-4.0413,-4.0516,-4.0516,-4.0428,-4.0634,-4.0974,-4.0974,-4.1656,-4.2617,-4.2617,-4.3035,-4.3598,-4.3598,-4.3598,-4.3598,-4.3598,-4.3598,-4.3598,-4.3598,-4.3598,-4.3628,-4.3734,-4.3822,-4.3927,-4.3969,-4.4155,-4.4338,-4.444,-4.4542,-4.4615,-4.4615,-4.4615,-4.4615,-4.4615,-4.4615,-4.4615,-4.4615,-4.4615,-4.4732,-4.506,-4.438,-4.3709,-4.3331,-4.2931,-4.2723,-4.2816,-4.2651,-4.2653,-4.2882,-4.2901,-4.2901,-4.2901,-4.2901,-4.2901,-4.2901,-4.2901,-4.2901,-4.2901,-4.2901,-4.2901,-4.2901,-4.2901,-4.2901,-2.4904,-2.538,-2.5801,-2.6041,-2.6539,-2.656,-2.471,-2.4141,0.0,-2.2098,-2.1663,-2.1588,-2.1862,-2.3018,-2.3985,0.0,-2.5689,-2.681,-2.6714,-2.7311,-2.7611,-2.7237,-2.719,0.0,-2.8819,-2.9003,-2.9561,-3.071,-3.1029,-3.1222,-3.1339,-3.3798,-3.5517,-3.6254,-3.8297,-3.9388,-3.9388,-3.9388,-3.9388,-3.9388,-3.9388,-3.9388,-3.9388,-3.9388,-3.9388,-3.9388,-3.9388,-3.9388,-3.9388,-3.9388,-3.9388,-3.9388,-3.9388,-3.9753,-4.025,-4.025,-4.1075,-4.2158,-4.2158,-4.2679,-4.3402,-4.3402,-4.3492,-4.3598,-4.3598,-4.3598,-4.3598,-4.3598,-4.3598,-4.3598,-4.3598,-4.3734,-4.3868,-4.3927,-4.4126,-4.4367,-4.4542,-4.4615,-4.4615,-4.4615,-4.4615,-4.4615,-4.4615,-4.4615,-4.4615,-4.4615,-4.4615,-4.4814,-4.5381,-4.5485,-4.5421,-4.5279,-4.4439,-4.3793,-4.3575,-4.3323,-4.3063,-4.2919,-4.2901,-4.2901,-4.2901,-4.2901,-4.2901,-4.2901,-4.2901,-4.2901,-4.2901,-4.2901,-4.2901,-4.2901,-4.2901,-4.2901,-2.4354,-2.4914,-2.5158,-2.4786,-2.5611,-2.5931,-2.3541,0.0,-2.3093,-2.1721,-2.1178,-2.1158,-2.18,-2.2176,-2.2642,-2.337,0.0,-2.4352,-2.587,-2.6143,-2.6433,-2.7116,0.0,0.0,-2.8207,-2.8779,-2.9394,-3.0037,-3.1112,-3.1954,-3.2502,-3.4214,-3.57,-3.6806,-3.8479,-3.9388,-3.9388,-3.9388,-3.9388,-3.9388,-3.9388,-3.9388,-3.9388,-3.9388,-3.9388,-3.9388,-3.9388,-3.9388,-3.9388,-3.9388,-3.9388,-3.9388,-3.9388,-3.9445,-3.9517,-3.9517,-4.0021,-4.0668,-4.0668,-4.1558,-4.2679,-4.2679,-4.3096,-4.3598,-4.3598,-4.3598,-4.3598,-4.3598,-4.3598,-4.3598,-4.3598,-4.3628,-4.3717,-4.401,-4.4196,-4.4367,-4.4542,-4.4615,-4.4615,-4.4615,-4.4615,-4.4615,-4.4615,-4.4615,-4.4615,-4.4615,-4.4615,-4.4934,-4.5918,-4.6042,-4.6377,-4.7313,-4.6259,-4.5097,-4.4126,-4.4004,-4.3698,-4.2955,-4.2901,-4.2901,-4.2901,-4.2901,-4.2901,-4.2901,-4.2901,-4.2901,-4.2901,-4.2901,-4.2901,-4.2901,-4.2901,-4.2901,-2.4291,-2.4828,-2.5158,-2.4956,-2.5189,-2.5087,-2.3559,0.0,-2.2512,-2.1477,-2.1336,-2.1474,-2.1718,-2.1999,-2.2287,0.0,0.0,0.0,-2.4355,-2.4881,-2.5515,-2.6394,-2.6482,-2.6911,0.0,0.0,-2.8949,-2.9922,-3.1113,-3.2045,-3.2659,-3.4153,-3.5551,-3.6852,-3.8046,-3.8922,-3.9388,-3.9388,-3.9388,-3.9388,-3.9388,-3.9388,-3.9388,-3.9388,-3.9388,-3.9388,-3.9388,-3.9388,-3.9388,-3.9388,-3.9388,-3.9388,-3.9388,-3.9388,-3.9388,-3.9388,-3.9879,-4.0512,-4.0512,-4.1426,-4.2617,-4.2617,-4.3035,-4.3598,-4.3598,-4.3598,-4.3598,-4.3598,-4.3598,-4.3598,-4.3598,-4.3687,-4.3822,-4.4039,-4.4196,-4.4367,-4.4542,-4.4615,-4.4615,-4.4615,-4.4615,-4.4615,-4.4615,-4.4615,-4.4615,-4.4615,-4.4615,-4.4841,-4.5537,-4.59,-4.6382,-4.7129,-4.66,-4.6008,-4.5578,-4.4657,-4.3951,-4.3625,-4.3173,-4.2901,-4.2901,-4.2901,-4.2901,-4.2901,-4.2901,-4.2901,-4.2901,-4.2901,-4.2901,-4.2901,-4.2901,-4.2901,-2.3961,-2.4577,-2.4988,-2.4988,-2.4744,-2.4259,0.0,0.0,-2.1879,-2.1118,-2.1221,-2.1506,-2.1667,-2.198,-2.2197,0.0,0.0,-2.3147,-2.3378,-2.3929,-2.4648,-2.5518,0.0,-2.6118,-2.7423,-2.8108,-2.8988,-3.019,-3.1397,-3.2267,-3.2672,-3.3967,-3.5261,-3.6489,-3.763,-3.8464,-3.9046,-3.9265,-3.9388,-3.9388,-3.9388,-3.9388,-3.9388,-3.9388,-3.9388,-3.9388,-3.9388,-3.9388,-3.9388,-3.9388,-3.9388,-3.9388,-3.9388,-3.9388,-3.9388,-3.9388,-3.9717,-4.0181,-4.0181,-4.0974,-4.2029,-4.2221,-4.2741,-4.3325,-4.3522,-4.3598,-4.3598,-4.3598,-4.3598,-4.3598,-4.3598,-4.3793,-4.3969,-4.4068,-4.4241,-4.444,-4.457,-4.4615,-4.4615,-4.4615,-4.4615,-4.4615,-4.4615,-4.4615,-4.4615,-4.4615,-4.4615,-4.4759,-4.5241,-4.5622,-4.6074,-4.6613,-4.6627,-4.6594,-4.6502,-4.5454,-4.4603,-4.4132,-4.357,-4.3155,-4.2919,-4.2901,-4.2901,-4.2901,-4.2901,-4.2901,-4.2901,-4.2901,-4.2901,-4.2901,-4.2901,-4.2901,-2.3205,-2.3961,-2.4497,-2.4497,-2.4168,-2.3501,0.0,0.0,-2.1239,-2.0544,-2.0679,-2.1063,-2.1604,-2.198,-2.2197,-2.2197,0.0,0.0,-2.3271,-2.3425,-2.3727,0.0,-2.4694,-2.5043,-2.5942,-2.79,-2.9639,-3.0898,-3.2045,-3.2685,-3.2685,-3.377,-3.4827,-3.5655,-3.7323,-3.8202,-3.8202,-3.8995,-3.9388,-3.9388,-3.9388,-3.9388,-3.9388,-3.9388,-3.9388,-3.9388,-3.9388,-3.9388,-3.9388,-3.9388,-3.9388,-3.9388,-3.9388,-3.9388,-3.9388,-3.9388,-3.9409,-3.9409,-3.9409,-3.9879,-4.065,-4.1294,-4.2013,-4.2741,-4.3402,-4.3598,-4.3598,-4.3598,-4.3598,-4.3598,-4.3598,-4.3864,-4.4097,-4.4097,-4.4355,-4.4615,-4.4615,-4.4615,-4.4615,-4.4615,-4.4615,-4.4615,-4.4615,-4.4615,-4.4615,-4.4615,-4.4615,-4.4759,-4.5241,-4.5303,-4.5494,-4.6049,-4.6572,-4.6806,-4.6517,-4.6486,-4.5798,-4.4186,-4.4077,-4.3715,-4.2937,-4.2901,-4.2901,-4.2901,-4.2901,-4.2901,-4.2901,-4.2901,-4.2901,-4.2901,-4.2901,-4.2901,-2.2453,-2.2801,-2.2993,-2.2993,-2.2507,-2.1917,-2.1458,0.0,-2.0478,-2.0401,-2.0786,-2.1233,-2.1635,-2.198,-2.2197,-2.2197,0.0,0.0,0.0,0.0,0.0,-2.4601,-2.5721,-2.6709,-2.7419,-2.8467,-2.9433,-3.0279,-3.1397,-3.228,-3.2672,-3.343,-3.4402,-3.5655,-3.6215,-3.7053,-3.8202,-3.8464,-3.8848,-3.9388,-3.9388,-3.9388,-3.9388,-3.9388,-3.9388,-3.9388,-3.9388,-3.9388,-3.9388,-3.9388,-3.9388,-3.9388,-3.9388,-3.9388,-3.9388,-3.9388,-3.9388,-3.9388,-3.9388,-3.9879,-4.0547,-4.0737,-4.1624,-4.2648,-4.2851,-4.3235,-4.3598,-4.3598,-4.3598,-4.3598,-4.3598,-4.3793,-4.3969,-4.4068,-4.4241,-4.444,-4.457,-4.4615,-4.4615,-4.4615,-4.4615,-4.4615,-4.4615,-4.4615,-4.4615,-4.4615,-4.4615,-4.4654,-4.4814,-4.5098,-4.5355,-4.5537,-4.6024,-4.646,-4.6748,-4.6606,-4.6287,-4.578,-4.4711,-4.3987,-4.3715,-4.3191,-4.2901,-4.2901,-4.2901,-4.2901,-4.2901,-4.2901,-4.2901,-4.2901,-4.2901,-4.2901,0.0,-2.1641,-2.1835,-2.1873,-2.1518,0.0,0.0,-2.0422,-2.0074,-2.0172,-2.0614,-2.1063,-2.134,-2.1737,-2.2018,-2.2018,-2.2123,0.0,0.0,0.0,0.0,-2.4601,-2.5915,-2.7084,-2.7963,-2.8704,-2.9445,-3.0317,-3.1279,-3.2045,-3.2659,-3.326,-3.4068,-3.5182,-3.5548,-3.6175,-3.7246,-3.7886,-3.8464,-3.8958,-3.9265,-3.9388,-3.9388,-3.9388,-3.9388,-3.9388,-3.9388,-3.9388,0.0,-3.9388,-3.9388,-3.9388,-3.9388,-3.9388,-3.9388,-3.9388,-3.9388,-3.9388,-3.9388,-3.9681,-4.0111,-4.0409,-4.1459,-4.2617,-4.2617,-4.3066,-4.3598,-4.3598,-4.3598,-4.3598,-4.3598,-4.3763,-4.3927,-4.3998,-4.4184,-4.4338,-4.4468,-4.4542,-4.4615,-4.4615,-4.4615,-4.4615,-4.4615,-4.4615,-4.4615,-4.4615,-4.4615,-4.4615,-4.4615,-4.4852,-4.5035,-4.5035,-4.5485,-4.6017,-4.6548,-4.6619,-4.6606,-4.6502,-4.5273,-4.4421,-4.4114,-4.3317,-4.2901,-4.2901,-4.2901,-4.2901,-4.2901,-4.2901,-4.2901,-4.2901,-4.2901,-4.2901,0.0,-2.044,-2.0926,-2.0974,-2.0959,0.0,0.0,-2.0222,0.0,-1.99,-2.028,-2.0635,-2.0871,-2.1336,-2.1683,-2.1683,-2.1987,0.0,0.0,-2.351,0.0,0.0,-2.5585,-2.6538,-2.7792,-2.8619,-2.9639,-3.0911,-3.1445,-3.198,-3.2594,-3.3208,-3.3783,-3.4332,-3.5169,-3.5629,-3.5709,-3.7285,-3.8127,-3.8202,-3.901,-3.9388,-3.9388,-3.9388,-3.9388,-3.9388,-3.9388,-3.9388,-3.9388,-3.9388,-3.9388,-3.9388,-3.9388,-3.9388,-3.9388,-3.9388,-3.9388,-3.9388,-3.9388,-3.9388,-3.9517,-4.025,-4.1426,-4.2522,-4.2585,-4.3066,-4.3598,-4.3598,-4.3598,-4.3598,-4.3598,-4.3734,-4.3898,-4.3898,-4.4097,-4.431,-4.431,-4.4468,-4.4615,-4.4615,-4.4615,-4.4615,-4.4615,-4.4615,-4.4615,-4.4615,-4.4615,-4.4615,-4.4615,-4.4615,-4.4615,-4.4615,-4.4998,-4.5459,-4.6017,-4.659,-4.6824,-4.659,-4.5834,-4.5019,-4.4222,-4.3426,-4.2973,-4.2901,-4.2901,-4.2901,-4.2901,-4.2901,-4.2901,-4.2901,-4.2901,-4.2901,-1.8443,0.0,-2.0049,-1.9029,-1.9541,-2.0112,0.0,0.0,-1.9933,-2.0042,0.0,-2.0529,-2.0839,-2.1336,-2.1683,-2.1683,0.0,-2.2483,-2.3271,-2.4542,0.0,-2.6512,-2.6806,-2.7413,-2.8674,-2.8973,-2.9639,-3.0911,-3.1117,-3.1431,-3.1967,-3.2594,-3.3169,-3.3757,-3.4382,-3.5032,-3.5709,-3.6713,-3.7539,-3.8202,-3.901,-3.9388,-3.9388,-3.9388,-3.9388,-3.9388,-3.9388,-3.9388,-3.9388,-3.9388,-3.9388,-3.9388,-3.9388,-3.9388,-3.9388,-3.9388,-3.9388,-3.9388,-3.9388,-3.9388,-3.9517,-4.025,-4.1075,-4.1852,-4.2412,-4.3066,-4.3598,-4.3598,-4.3598,-4.3598,-4.3598,-4.3628,-4.3704,-4.3868,-4.4027,-4.4184,-4.4281,-4.4468,-4.4615,-4.4615,-4.4615,-4.4615,-4.4615,-4.4615,-4.4615,-4.4615,-4.4615,-4.4615,-4.4615,-4.4615,-4.4615,-4.4615,-4.4692,-4.4944,-4.5433,-4.6358,-4.7057,-4.7404,-4.6667,-4.5852,-4.5055,-4.424,-4.3516,-4.29,-4.2901,-4.2901,-4.2901,-4.2901,-4.2901,-4.2901,-4.2901,-4.2901,-1.755,-1.8465,-1.9353,-1.8633,-1.9297,-1.9944,-1.944,0.0,0.0,0.0,0.0,0.0,-2.0625,0.0,0.0,-2.121,-2.2031,0.0,0.0,0.0,-2.5762,-2.6439,-2.6737,-2.7467,-2.8939,-2.9081,-2.9639,-3.0911,-3.0986,-3.1235,-3.1771,-3.2098,-3.2568,-3.3156,-3.347,-3.4107,-3.5101,-3.6306,-3.7127,-3.763,-3.8833,-3.9388,-3.9388,-3.9388,-3.9388,-3.9388,-3.9388,-3.9388,-3.9388,-3.9388,-3.9388,-3.9388,-3.9388,-3.9388,-3.9388,-3.9388,-3.9388,-3.9388,-3.9388,-3.9388,-3.9445,-3.9859,-4.0478,-4.116,-4.1884,-4.2585,-4.3204,-4.3492,-4.3598,-4.3598,-4.3598,-4.3598,-4.3628,-4.3734,-4.3881,-4.4039,-4.4184,-4.4355,-4.4468,-4.457,-4.4615,-4.4615,-4.4615,-4.4615,-4.4615,-4.4615,-4.4615,-4.4615,-4.4615,-4.4615,-4.4615,-4.4615,-4.4615,-4.4786,-4.5267,-4.5825,-4.6501,-4.728,-4.6586,-4.5879,-4.5327,-4.453,-4.3715,-4.2919,-4.2901,-4.2901,-4.2901,-4.2901,-4.2901,-4.2901,-4.2901,-4.2901,-1.707,-1.7842,-1.8829,-1.8697,-1.932,-1.9911,-1.9802,0.0,0.0,0.0,0.0,0.0,0.0,-2.0658,0.0,0.0,-2.2122,-2.363,-2.4523,-2.4975,-2.544,-2.5849,-2.6442,-2.7364,-2.8966,-2.916,-2.9716,-3.0911,-3.0986,-3.1196,-3.1641,-3.1758,-3.2019,-3.2555,-3.2646,-3.3156,-3.4123,-3.5771,-3.6757,-3.7127,-3.856,-3.9265,-3.9388,-3.9388,-3.9388,-3.9388,-3.9388,-3.9388,-3.9388,-3.9388,-3.9388,-3.9388,-3.9388,-3.9388,-3.9388,-3.9388,-3.9388,-3.9388,-3.9388,-3.9388,-3.9388,-3.9388,-3.9879,-4.0615,-4.116,-4.1917,-4.271,-4.3295,-4.3522,-4.3598,-4.3598,-4.3598,-4.3598,-4.3598,-4.3763,-4.3927,-4.4039,-4.4196,-4.4338,-4.4514,-4.457,-4.4615,-4.4615,-4.4615,-4.4615,-4.4615,-4.4615,-4.4615,-4.4615,-4.4615,-4.4615,-4.4615,-4.4615,-4.4759,-4.5178,-4.5188,-4.5614,-4.6572,-4.6176,-4.5713,-4.5325,-4.453,-4.3715,-4.2919,-4.2901,-4.2901,-4.2901,-4.2901,-4.2901,-4.2901,-4.2901,-4.2901,-1.7035,-1.796,-1.876,-1.7515,-1.8196,-1.9144,-1.9144,0.0,0.0,0.0,0.0,0.0,0.0,-2.0518,-2.0646,-2.0614,-2.2388,-2.4242,-2.5564,-2.6408,-2.6869,-2.6949,-2.7532,-2.8231,-2.9042,-2.9561,-3.0203,-3.0949,-3.0986,-3.1026,-3.1117,-3.1536,-3.1836,-3.1941,-3.2437,-3.2777,-3.2947,-3.439,-3.6094,-3.8,-3.8277,-3.8738,-3.9388,-3.9388,-3.9388,-3.9388,-3.9388,-3.9388,-3.9388,-3.9388,-3.9388,-3.9388,-3.9388,-3.9388,-3.9388,-3.9388,-3.9388,-3.9388,-3.9388,-3.9388,-3.9388,-3.9388,-3.9879,-4.0512,-4.0615,-4.1558,-4.2617,-4.271,-4.3174,-4.3598,-4.3598,-4.3598,-4.3598,-4.3598,-4.3763,-4.3898,-4.3927,-4.4126,-4.431,-4.4338,-4.4468,-4.4615,-4.4615,-4.4615,-4.4615,-4.4615,-4.4615,-4.4615,-4.4615,-4.4615,-4.4615,-4.4615,-4.4615,-4.4626,-4.4692,-4.472,-4.4961,-4.5511,-4.6276,-4.6287,-4.5343,-4.453,-4.3715,-4.2919,-4.2901,-4.2901,-4.2901,-4.2901,-4.2901,-4.2901,-4.2901,-4.2901,-1.6473,-1.6803,-1.7342,-1.7442,-1.8571,-1.9736,-2.0144,0.0,0.0,0.0,0.0,0.0,0.0,0.0,-2.1868,-2.3149,-2.3612,-2.4275,-2.5643,-2.5915,-2.6044,-2.6381,-2.7191,-2.8122,-2.9018,-2.9639,-3.0279,-3.0949,-3.0986,-3.0986,-3.0986,-3.1235,-3.1378,-3.1378,-3.164,-3.2146,-3.2898,-3.3087,-3.4084,-3.5873,-3.6338,-3.6982,-3.77,-3.77,-3.8157,-3.8856,-3.8856,-3.908,-3.9388,-3.9388,-3.9388,-3.9388,-3.9388,-3.9388,-3.9388,-3.9388,-3.9388,-3.9388,-3.9388,-3.9388,-3.9388,-3.9388,-3.9625,-3.9985,-4.0374,-4.1194,-4.2094,-4.2491,-4.3066,-4.3598,-4.3598,-4.3598,-4.3598,-4.3598,-4.3658,-4.3763,-4.3868,-4.3998,-4.4126,-4.4281,-4.4367,-4.4468,-4.457,-4.4615,-4.4615,-4.4615,-4.4615,-4.4615,-4.4615,-4.4615,-4.4615,-4.4615,-4.4615,-4.4615,-4.4615,-4.4824,-4.5178,-4.5699,-4.6065,-4.5964,-4.5325,-4.453,-4.3715,-4.2919,-4.2901,-4.2901,-4.2901,-4.2901,-4.2901,-4.2901,-4.2901,-4.2901,-1.5964,-1.5925,-1.6291,-1.732,0.0,-1.964,-2.0776,-2.0438,0.0,0.0,0.0,0.0,0.0,-2.1452,-2.2814,-2.4884,-2.4551,-2.4514,-2.5844,-2.5716,-2.5639,-2.6209,-2.7179,-2.8186,-2.9201,-2.9883,-3.0432,-3.0949,-3.0986,-3.0986,-3.0986,-3.0986,-3.0986,-3.0986,-3.0986,-3.1521,-3.2583,-3.1932,-3.2492,-3.4231,-3.4668,-3.5311,-3.6028,-3.6028,-3.6733,-3.7907,-3.7907,-3.8311,-3.896,-3.911,-3.9185,-3.9185,-3.9349,-3.9388,-3.9388,-3.9388,-3.9388,-3.9388,-3.9388,-3.9388,-3.9388,-3.9388,-3.9388,-3.9517,-4.0076,-4.0737,-4.1426,-4.2158,-4.2834,-4.3402,-4.3568,-4.3598,-4.3598,-4.3598,-4.3598,-4.3628,-4.3793,-4.3868,-4.3969,-4.4212,-4.4281,-4.4367,-4.457,-4.4615,-4.4615,-4.4615,-4.4615,-4.4615,-4.4615,-4.4615,-4.4615,-4.4615,-4.4615,-4.4654,-4.4759,-4.4981,-4.5425,-4.6049,-4.6046,-4.5724,-4.5127,-4.4634,-4.3896,-4.2919,-4.2901,-4.2901,-4.2901,-4.2901,-4.2901,-4.2901,-4.2901,-4.301,-1.5894,-1.631,-1.6727,-1.6337,-1.6544,0.0,-1.9765,-1.9563,0.0,-2.0072,0.0,0.0,0.0,-2.1228,-2.2356,-2.3632,-2.4536,-2.5543,-2.6897,-2.7041,-2.7273,-2.794,-2.8588,-2.924,-2.9871,-3.0545,-3.0949,-3.0986,-3.0986,-3.0986,-3.0986,-3.0986,-3.0986,-3.0986,-3.0986,-3.1037,-3.1151,-3.1089,-3.2417,-3.5091,-3.4331,-3.4444,-3.5274,-3.5274,-3.5718,-3.6437,-3.6437,-3.6855,-3.7599,-3.8212,-3.8467,-3.8527,-3.917,-3.9388,-3.9388,-3.9388,-3.9388,-3.9388,-3.9388,-3.9388,-3.9388,-3.9388,-3.9388,-3.9424,-3.9445,-3.9985,-4.0703,-4.1393,-4.2126,-4.282,-4.3432,-4.3598,-4.3598,-4.3598,-4.3598,-4.3598,-4.3628,-4.3763,-4.3939,-4.4085,-4.4196,-4.4367,-4.457,-4.4615,-4.4615,-4.4615,-4.4615,-4.4615,-4.4615,-4.4615,-4.4615,-4.4615,-4.4615,-4.4786,-4.5214,-4.4879,-4.5052,-4.6042,-4.656,-4.6141,-4.4628,-4.4978,-4.4476,-4.2937,-4.2901,-4.2901,-4.2901,-4.2901,-4.2901,-4.2901,-4.2901,-4.3299,-1.6464,-1.7018,-1.7439,-1.6767,-1.6946,0.0,0.0,-1.934,-1.9516,-2.1229,-2.1418,0.0,0.0,-2.2787,-2.3747,-2.463,-2.5459,-2.6426,-2.7637,-2.7817,-2.8018,-2.8526,-2.9094,-2.951,-2.9613,-3.0241,-3.0634,-3.0634,-3.0634,-3.0672,-3.0811,-3.0685,-3.0748,-3.0986,-3.0874,-3.0874,-3.0986,-3.0986,-3.1521,-3.2593,-3.227,-3.2519,-3.3252,-3.3252,-3.3896,-3.5032,-3.5493,-3.6091,-3.6781,-3.7501,-3.7778,-3.7838,-3.8512,-3.8781,-3.8841,-3.926,-3.9388,-3.9388,-3.9388,-3.9388,-3.9388,-3.9388,-3.9388,-3.9388,-3.9388,-3.9915,-4.0547,-4.0805,-4.1689,-4.2741,-4.3432,-4.3598,-4.3598,-4.3598,-4.3598,-4.3598,-4.3598,-4.3658,-4.3763,-4.3939,-4.4027,-4.4126,-4.4384,-4.4412,-4.4468,-4.457,-4.4615,-4.4615,-4.4615,-4.4615,-4.4615,-4.4615,-4.4615,-4.4951,-4.5742,-4.532,-4.5346,-4.6049,-4.5992,-4.5551,-4.4788,-4.4781,-4.4286,-4.3174,-4.2983,-4.3155,-4.3643,-4.3643,-4.3896,-4.4385,-4.4385,-4.4548,-1.6689,-1.7391,-1.7888,-1.743,0.0,0.0,-1.9502,-1.9241,-1.9446,-2.191,-2.2021,-2.1967,-2.2956,-2.3772,-2.4454,-2.4926,-2.5739,-2.658,-2.736,-2.7725,-2.8075,-2.853,-2.9199,-2.9639,-2.969,-3.0126,-3.0406,-3.0406,-3.0406,-3.0444,-3.0609,-3.0482,-3.052,-3.0798,-3.0685,-3.0685,-3.0911,-3.0911,-3.0949,-3.0986,-3.0986,-3.1259,-3.1736,-3.1736,-3.2427,-3.3595,-3.4326,-3.5039,-3.5732,-3.6709,-3.724,-3.7464,-3.7898,-3.8078,-3.8167,-3.8841,-3.9095,-3.9125,-3.9349,-3.9388,-3.9388,-3.9388,-3.9388,-3.9388,-3.9388,-3.9753,-4.0216,-4.0443,-4.1343,-4.2412,-4.3096,-4.3432,-4.3598,-4.3598,-4.3598,-4.3598,-4.3598,-4.3598,-4.3658,-4.3868,-4.3898,-4.3969,-4.4196,-4.4281,-4.4338,-4.4468,-4.457,-4.4615,-4.4615,-4.4615,-4.4615,-4.4615,-4.4615,-4.5015,-4.6,-4.5459,-4.5372,-4.6067,-4.5614,-4.5113,-4.4659,-4.4641,-4.4321,-4.369,-4.3483,-4.376,-4.4476,-4.4476,-4.4765,-4.5291,-4.5291,-4.5436,-1.649,-1.7295,-1.8061,0.0,0.0,0.0,-2.0313,-1.9111,-1.8707,-2.1749,-2.2432,-2.2625,-2.3274,-2.3777,-2.4107,-2.4097,-2.5109,-2.5895,-2.5937,-2.6663,-2.7447,-2.8056,-2.8873,-2.9651,-3.033,-3.0406,-3.0406,-3.0406,-3.0406,-3.0406,-3.0406,-3.0406,-3.0406,-3.0406,-3.0406,-3.0482,-3.0698,-3.0698,-3.0811,-3.0986,-3.0986,-3.0986,-3.0986,-3.0986,-3.1394,-3.211,-3.2861,-3.363,-3.439,-3.5863,-3.6836,-3.7389,-3.7404,-3.7404,-3.7479,-3.8138,-3.8377,-3.8482,-3.917,-3.9373,-3.9388,-3.9388,-3.9388,-3.9388,-3.9388,-3.9388,-3.9553,-4.0285,-4.0959,-4.1656,-4.2412,-4.3113,-4.3598,-4.3598,-4.3598,-4.3598,-4.3598,-4.3598,-4.3658,-4.3868,-4.3898,-4.3956,-4.4085,-4.4196,-4.431,-4.431,-4.4468,-4.4615,-4.4615,-4.4615,-4.4615,-4.4615,-4.4615,-4.5015,-4.6017,-4.5169,-4.5042,-4.6042,-4.5614,-4.4958,-4.4148,-4.4624,-4.4777,-4.451,-4.4514,-4.4767,-4.5309,-4.5309,-4.5327,-4.5327,-4.5327,-4.5743,-1.6897,-1.8607,0.0,-1.8889,0.0,0.0,0.0,-2.0591,0.0,0.0,-2.3179,-2.3804,-2.348,-2.3939,-2.4304,-2.4124,-2.4852,-2.5904,-2.7273,-2.7666,-2.8227,-2.9367,-2.9754,-2.9908,-2.9972,-2.9972,-2.9972,-2.9972,-2.9972,-3.0049,-3.019,-3.0049,-3.0113,-3.0406,-3.0254,-3.0305,-3.0482,-3.0482,-3.0609,-3.0811,-3.0811,-3.0836,-3.0986,-3.0986,-3.1123,-3.1394,-3.2662,-3.3318,-3.3644,-3.5174,-3.5908,-3.6118,-3.6582,-3.6761,-3.6836,-3.7464,-3.8003,-3.8422,-3.8616,-3.902,-3.9388,-3.9388,-3.9388,-3.9388,-3.9388,-3.9388,-3.9553,-4.0285,-4.0959,-4.1656,-4.2412,-4.3113,-4.3598,-4.3598,-4.3598,-4.3598,-4.3598,-4.3598,-4.3628,-4.3674,-4.3687,-4.3793,-4.4039,-4.4126,-4.4241,-4.4485,-4.457,-4.4615,-4.4615,-4.4615,-4.4615,-4.4615,-4.4615,-4.4852,-4.5485,-4.5614,-4.5767,-4.6074,-4.631,-4.5968,-4.5001,-4.5286,-4.5427,-4.5352,-4.5156,-4.5402,-4.6142,-4.6142,-4.6432,-4.6993,-4.6993,-4.712,-1.8091,-1.9719,0.0,-2.0691,-2.1688,-2.2737,-2.2768,0.0,0.0,0.0,-2.3744,-2.4364,-2.3929,-2.4209,-2.4449,-2.4302,-2.4629,-2.5316,-2.6524,-2.725,-2.7988,-2.8806,-2.956,-2.9934,-2.9792,-2.9792,-2.9792,-2.9792,-2.9792,-2.9869,-2.9972,-2.9869,-2.9895,-3.0152,-3.0049,-3.0075,-3.0292,-3.0368,-3.0482,-3.0698,-3.0773,-3.0874,-3.0986,-3.0986,-3.0986,-3.1086,-3.2555,-3.3353,-3.3734,-3.4986,-3.5504,-3.5549,-3.5938,-3.6088,-3.6178,-3.6806,-3.73,-3.7674,-3.7913,-3.8437,-3.9005,-3.9005,-3.9185,-3.9388,-3.9388,-3.9388,-3.9481,-3.995,-4.0581,-4.126,-4.1981,-4.2679,-4.3265,-4.3539,-4.3598,-4.3598,-4.3598,-4.3598,-4.3598,-4.3598,-4.3598,-4.3658,-4.3864,-4.3969,-4.4114,-4.4372,-4.4514,-4.4615,-4.4615,-4.4615,-4.4615,-4.4615,-4.4615,-4.4786,-4.5267,-4.5425,-4.558,-4.5775,-4.6286,-4.6286,-4.5648,-4.578,-4.5973,-4.6172,-4.6011,-4.6281,-4.6993,-4.6993,-4.7228,-4.7717,-4.7717,-4.7717,-1.9616,-2.0616,0.0,-2.3056,-2.3417,0.0,-2.3574,-2.4067,-2.4325,-2.3634,0.0,-2.4497,-2.4497,-2.4497,-2.4497,-2.4497,-2.4497,-2.454,-2.47,-2.6091,-2.7151,-2.7313,-2.8791,-2.9792,-2.9792,-2.9792,-2.9792,-2.9792,-2.9792,-2.9792,-2.9792,-2.9792,-2.9792,-2.9792,-2.9792,-2.9908,-3.0075,-3.0254,-3.0457,-3.066,-3.0836,-3.0949,-3.0986,-3.0986,-3.1061,-3.1161,-3.2519,-3.3561,-3.4346,-3.51,-3.5424,-3.5504,-3.5504,-3.5504,-3.5579,-3.6178,-3.6432,-3.6567,-3.7135,-3.7749,-3.8317,-3.8362,-3.8811,-3.9298,-3.9394,-3.9388,-3.9409,-3.9481,-4.0021,-4.0737,-4.1426,-4.2142,-4.2834,-4.3462,-4.3598,-4.3598,-4.3598,-4.3598,-4.3598,-4.3598,-4.3598,-4.3598,-4.3628,-4.3763,-4.3956,-4.4097,-4.44,-4.4615,-4.4615,-4.4615,-4.4615,-4.4615,-4.4615,-4.4759,-4.5188,-4.4879,-4.4852,-4.5329,-4.5893,-4.6196,-4.6244,-4.6262,-4.6478,-4.6954,-4.6976,-4.7214,-4.7717,-4.7717,-4.7717,-4.7717,-4.7717,-4.7717,-1.938,-2.1052,0.0,0.0,-2.3764,-2.4259,-2.4284,-2.4411,-2.4325,-2.3634,-2.4024,-2.4497,-2.4497,-2.4497,-2.4497,-2.4497,-2.4497,-2.4988,-2.6329,-2.6864,-2.7649,-2.9052,-2.9546,-2.9792,-2.9792,-2.9792,-2.9792,-2.9792,-2.9792,-2.9792,-2.9792,-2.9792,-2.9792,-2.9792,-2.9792,-2.983,-2.9869,-2.9895,-3.0011,-3.0228,-3.0444,-3.0609,-3.0773,-3.0911,-3.1334,-3.1882,-3.2196,-3.3094,-3.4312,-3.4495,-3.4938,-3.5504,-3.5504,-3.5504,-3.5519,-3.5669,-3.6043,-3.6507,-3.6641,-3.709,-3.7704,-3.8227,-3.8497,-3.8706,-3.926,-3.9388,-3.9517,-4.0111,-4.0771,-4.1459,-4.219,-4.2881,-4.3432,-4.3568,-4.3598,-4.3598,-4.3598,-4.3598,-4.3598,-4.3598,-4.3598,-4.3658,-4.3793,-4.3868,-4.3969,-4.4224,-4.444,-4.4615,-4.4615,-4.4615,-4.4615,-4.4615,-4.4615,-4.4654,-4.4748,-4.4998,-4.5372,-4.59,-4.643,-4.6908,-4.7341,-4.7363,-4.7407,-4.7533,-4.7533,-4.7575,-4.7717,-4.7717,-4.7717,-4.7717,-4.7717,-4.7717,-2.047,0.0,0.0,-2.3619,0.0,-2.4497,-2.4497,-2.4497,-2.4411,-2.4067,-2.4239,-2.4497,-2.4497,-2.4497,-2.4497,-2.4497,-2.4861,-2.5432,-2.6359,-2.7232,-2.8131,-2.9091,-2.9546,-2.9792,-2.9792,-2.9792,-2.9792,-2.9792,-2.9792,-2.9792,-2.9792,-2.9792,-2.9792,-2.9792,-2.9792,-2.9792,-2.9792,-2.9895,-3.0011,-3.0113,-3.0292,-3.0495,-3.0698,-3.0911,-3.1222,-3.1603,-3.1942,-3.2528,-3.329,-3.3993,-3.4528,-3.4938,-3.5359,-3.5504,-3.5504,-3.5504,-3.5729,-3.6013,-3.6013,-3.6432,-3.703,-3.7375,-3.7883,-3.8467,-3.8811,-3.9155,-3.9481,-3.9859,-4.0216,-4.0737,-4.1787,-4.2317,-4.2772,-4.3432,-4.3598,-4.3598,-4.3598,-4.3598,-4.3598,-4.3598,-4.3598,-4.3628,-4.3734,-4.3839,-4.3998,-4.4253,-4.4395,-4.4468,-4.4587,-4.4615,-4.4615,-4.4615,-4.4615,-4.4615,-4.4615,-4.5035,-4.5433,-4.5699,-4.6454,-4.7039,-4.732,-4.7554,-4.7717,-4.7717,-4.7717,-4.7717,-4.7717,-4.7717,-4.7717,-4.7717,-4.7717,-4.7717,-2.1644,0.0,-2.2673,-2.4126,-2.4497,0.0,-2.4497,-2.4497,-2.4497,-2.4497,-2.4497,-2.4497,-2.4497,-2.4497,-2.4497,-2.4497,-2.5221,-2.5861,-2.5986,-2.7435,-2.8542,-2.8712,-2.9378,-2.9792,-2.9792,-2.9792,-2.9792,-2.9792,-2.9792,-2.9792,-2.9792,-2.9792,-2.9792,-2.9792,-2.9792,-2.9792,-2.9792,-2.9972,-3.0049,-3.0049,-3.0254,-3.0457,-3.0698,-3.0874,-3.0986,-3.1011,-3.164,-3.1978,-3.2218,-3.3547,-3.4177,-3.438,-3.518,-3.5504,-3.5504,-3.5504,-3.5504,-3.5504,-3.5504,-3.5863,-3.6342,-3.6447,-3.7195,-3.8108,-3.8317,-3.8796,-3.9275,-3.9394,-3.9589,-4.0041,-4.1194,-4.1689,-4.2142,-4.3325,-4.3598,-4.3598,-4.3598,-4.3598,-4.3598,-4.3598,-4.3598,-4.3598,-4.3598,-4.3763,-4.3985,-4.4196,-4.4281,-4.4367,-4.4542,-4.457,-4.4615,-4.4615,-4.4615,-4.4615,-4.4615,-4.5035,-4.5329,-4.5433,-4.6358,-4.6931,-4.7022,-4.745,-4.7717,-4.7717,-4.7717,-4.7717,-4.7717,-4.7717,-4.7717,-4.7717,-4.7717,-4.7717,0.0,0.0,-2.3428,0.0,-2.4497,-2.4497,0.0,0.0,-2.4497,0.0,-2.4497,-2.4497,-2.4497,-2.4497,-2.4497,-2.4497,-2.5221,-2.6069,-2.6812,-2.7839,-2.8791,-2.9546,-2.9714,-2.9792,-2.9792,-2.9792,-2.9792,-2.9792,-2.9792,-2.9792,-2.9792,-2.9792,-2.9792,-2.9792,-2.9792,-2.9792,-2.9792,-2.983,-2.983,-2.983,-3.0049,-3.0356,-3.0698,-3.0736,-3.0849,-3.1024,-3.1086,-3.1492,-3.2146,-3.3003,-3.3734,-3.438,-3.518,-3.5504,-3.5504,-3.5504,-3.5504,-3.5504,-3.5504,-3.5564,-3.5729,-3.6297,-3.6611,-3.6956,-3.8063,-3.8452,-3.8646,-3.9245,-4.027,-4.126,-4.1459,-4.2412,-4.3372,-4.3568,-4.3598,-4.3598,-4.3598,-4.3598,-4.3598,-4.3598,-4.3598,-4.3598,-4.3598,-4.3763,-4.3898,-4.3956,-4.4155,-4.431,-4.4338,-4.4497,-4.4615,-4.4615,-4.4615,-4.4615,-4.4615,-4.5035,-4.5511,-4.595,-4.6548,-4.7107,-4.7575,-4.7657,-4.7717,-4.7717,-4.7717,-4.7717,-4.7717,-4.7717,-4.7717,-4.7717,-4.7717,-4.7717,-2.1292,-2.2352,-2.3329,0.0,-2.4497,-2.4497,-2.4497,-2.4497,-2.4497,-2.4497,-2.4497,-2.4497,-2.4497,-2.4497,-2.4658,-2.5137,-2.5955,-2.6853,-2.7758,-2.8673,-2.9378,-2.9753,-2.9792,-2.9792,-2.9792,-2.9792,-2.9792,-2.9792,-2.9792,-2.9792,-2.9792,-2.9792,-2.9792,-2.9792,-2.9792,-2.9792,-2.9792,-2.9792,-2.9792,-2.9792,-3.0011,-3.0267,-3.0533,-3.066,-3.0811,-3.0986,-3.0986,-3.1198,-3.1529,-3.2268,-3.3038,-3.3768,-3.4509,-3.5085,-3.5504,-3.5504,-3.5504,-3.5504,-3.5504,-3.5504,-3.5549,-3.5848,-3.6193,-3.6596,-3.715,-3.7823,-3.8452,-3.8751,-3.9841,-4.1042,-4.1393,-4.2285,-4.3127,-4.3492,-4.3598,-4.3598,-4.3598,-4.3598,-4.3598,-4.3598,-4.3598,-4.3628,-4.3763,-4.3763,-4.3793,-4.3998,-4.4056,-4.4097,-4.4184,-4.4327,-4.444,-4.444,-4.4542,-4.4615,-4.4615,-4.5035,-4.5537,-4.6067,-4.6595,-4.7129,-4.7678,-4.7717,-4.7717,-4.7717,-4.7717,-4.7717,-4.7717,-4.7717,-4.7717,-4.7717,-4.7717,-4.7717,0.0,0.0,-2.258,-2.3898,-2.4198,-2.4218,0.0,0.0,-2.4497,-2.4497,-2.4497,-2.4497,-2.4497,-2.4497,-2.4786,-2.5663,-2.6524,-2.7435,-2.8383,-2.9248,-2.9792,-2.9792,-2.9792,-2.9792,-2.9792,-2.9792,-2.9792,-2.9792,-2.9792,-2.9792,-2.9792,-2.9792,-2.9792,-2.9792,-2.9792,-2.9702,-2.9456,-2.9209,-2.9131,-2.9131,-2.9275,-2.9574,-3.0011,-3.0216,-3.052,-3.0911,-3.0986,-3.0986,-3.1061,-3.1809,-3.2541,-3.3283,-3.3993,-3.4791,-3.5504,-3.5504,-3.5504,-3.5504,-3.5504,-3.5504,-3.5504,-3.5504,-3.5833,-3.6267,-3.6432,-3.715,-3.7973,-3.8302,-3.9282,-4.0399,-4.108,-4.1917,-4.271,-4.3235,-4.3462,-4.3598,-4.3598,-4.3598,-4.3598,-4.3598,-4.3598,-4.3658,-4.3793,-4.3704,-4.3717,-4.3981,-4.3998,-4.3969,-4.4085,-4.4224,-4.431,-4.431,-4.444,-4.4542,-4.4615,-4.5035,-4.5485,-4.5875,-4.6406,-4.6931,-4.7472,-4.749,-4.7554,-4.7696,-4.7717,-4.7717,-4.7717,-4.7717,-4.7717,-4.7717,-4.7717,-4.7717,0.0,-2.0631,0.0,-2.2979,-2.3368,0.0,0.0,0.0,-2.4497,-2.4497,-2.4497,-2.4497,-2.4497,-2.4497,-2.4786,-2.5663,-2.6524,-2.7435,-2.8383,-2.9248,-2.9792,-2.9792,-2.9792,-2.9792,-2.9792,-2.9792,-2.9792,-2.9792,-2.9792,-2.9792,-2.9792,-2.9792,-2.9792,-2.9792,-2.9792,-2.9417,-2.8581,-2.7678,-2.7232,-2.7232,-2.7273,-2.7851,-2.8882,-2.9094,-2.9729,-3.0736,-3.0911,-3.0986,-3.1061,-3.1809,-3.2541,-3.3283,-3.3993,-3.4791,-3.5504,-3.5504,-3.5504,-3.5504,-3.5504,-3.5504,-3.5504,-3.5504,-3.5534,-3.5669,-3.6297,-3.6537,-3.6836,-3.8048,-3.8948,-3.9711,-4.0377,-4.1558,-4.2617,-4.2648,-4.3143,-4.3598,-4.3598,-4.3598,-4.3598,-4.3598,-4.3598,-4.3598,-4.3628,-4.3598,-4.3658,-4.3898,-4.4027,-4.4097,-4.4097,-4.4224,-4.431,-4.431,-4.431,-4.4395,-4.457,-4.5035,-4.5303,-4.5329,-4.585,-4.6382,-4.6908,-4.6931,-4.7191,-4.7678,-4.7717,-4.7717,-4.7717,-4.7717,-4.7717,-4.7717,-4.7717,-4.7717,0.0,0.0,0.0,-2.2164,-2.2966,-2.3378,-2.3598,-2.4084,-2.4497,-2.4497,-2.4497,-2.4497,-2.4497,-2.4497,-2.4988,-2.64,-2.6905,-2.7597,-2.9131,-2.9585,-2.9792,-2.9792,-2.9792,-2.9792,-2.9792,-2.9792,-2.9792,-2.9792,-2.9792,-2.9792,-2.9792,-2.9792,-2.9792,-2.9792,-2.9248,-2.8554,-2.7597,-2.7273,-2.711,-2.711,-2.711,-2.7689,-2.8791,-2.887,-2.9574,-3.0698,-3.0773,-3.0874,-3.1024,-3.1296,-3.1809,-3.2577,-3.3318,-3.4056,-3.4791,-3.5311,-3.5504,-3.5504,-3.5504,-3.5504,-3.5504,-3.5504,-3.5504,-3.5549,-3.5789,-3.6148,-3.6582,-3.703,-3.828,-3.9642,-4.0325,-4.1534,-4.271,-4.3143,-4.3432,-4.3598,-4.3598,-4.3598,-4.3598,-4.3598,-4.3598,-4.3598,-4.3598,-4.3598,-4.3628,-4.3704,-4.3747,-4.3776,-4.3776,-4.3923,-4.4085,-4.4155,-4.4253,-4.4367,-4.457,-4.4759,-4.4998,-4.5276,-4.58,-4.6334,-4.6886,-4.7236,-4.7511,-4.7696,-4.7717,-4.7717,-4.7717,-4.7717,-4.7717,-4.7717,-4.7717,-4.7717,-1.9592,0.0,0.0,0.0,0.0,-2.2514,-2.3079,-2.3608,-2.4083,-2.4435,-2.4497,-2.4497,-2.4497,-2.4497,-2.5073,-2.6823,-2.711,-2.773,-2.9546,-2.9792,-2.9792,-2.9792,-2.9792,-2.9792,-2.9792,-2.9792,-2.9792,-2.9792,-2.9792,-2.9792,-2.9792,-2.9792,-2.9663,-2.9378,-2.8502,-2.7597,-2.6648,-2.637,-2.6216,-2.6216,-2.6216,-2.6782,-2.781,-2.8183,-2.8976,-3.0101,-3.0495,-3.0811,-3.0986,-3.0986,-3.1431,-3.2182,-3.2897,-3.3665,-3.438,-3.5198,-3.5504,-3.5504,-3.5504,-3.5504,-3.5504,-3.5504,-3.5504,-3.5504,-3.5504,-3.5804,-3.6207,-3.6432,-3.7446,-3.8708,-3.9559,-4.0858,-4.2126,-4.3035,-4.3265,-4.3342,-4.3568,-4.3598,-4.3598,-4.3598,-4.3598,-4.3598,-4.3598,-4.3598,-4.3628,-4.3687,-4.3704,-4.3704,-4.3704,-4.3839,-4.3927,-4.4027,-4.4126,-4.427,-4.4468,-4.4497,-4.4648,-4.4937,-4.5511,-4.6049,-4.6525,-4.7129,-4.7511,-4.7696,-4.7717,-4.7717,-4.7717,-4.7717,-4.7717,-4.7717,-4.7717,-4.7717,0.0,0.0,0.0,0.0,0.0,0.0,-2.2697,0.0,-2.3166,-2.4227,-2.4456,-2.4466,-2.4497,-2.4497,-2.5073,-2.6823,-2.711,-2.773,-2.9546,-2.9792,-2.9792,-2.9792,-2.9792,-2.9792,-2.9792,-2.9792,-2.9792,-2.9792,-2.9792,-2.9792,-2.9792,-2.9792,-2.9378,-2.8502,-2.7557,-2.6648,-2.5777,-2.4935,-2.4497,-2.4497,-2.4497,-2.4978,-2.5872,-2.6976,-2.7971,-2.8922,-3.0152,-3.0811,-3.0986,-3.0986,-3.1431,-3.2146,-3.2861,-3.363,-3.4346,-3.5166,-3.5472,-3.5504,-3.5504,-3.5504,-3.5504,-3.5504,-3.5504,-3.5504,-3.5504,-3.5504,-3.5639,-3.6282,-3.6477,-3.681,-3.8102,-3.9473,-4.0876,-4.2253,-4.26,-4.282,-4.3462,-4.3598,-4.3598,-4.3598,-4.3598,-4.3598,-4.3598,-4.3598,-4.3658,-4.3868,-4.3898,-4.3898,-4.3898,-4.3898,-4.3898,-4.3898,-4.3898,-4.3998,-4.4281,-4.431,-4.431,-4.431,-4.4937,-4.5485,-4.5868,-4.6543,-4.7129,-4.7675,-4.7678,-4.7717,-4.7717,-4.7717,-4.7717,-4.7717,-4.7717,-4.7717,-1.8414,0.0,0.0,0.0,0.0,0.0,-2.0909,-2.1486,-2.2213,-2.3329,-2.3567,-2.3764,-2.4373,-2.4497,-2.5073,-2.6823,-2.711,-2.773,-2.9546,-2.9792,-2.9792,-2.9792,-2.9792,-2.9792,-2.9792,-2.9792,-2.9792,-2.9792,-2.9792,-2.9792,-2.9792,-2.9209,-2.8422,-2.7516,-2.6607,-2.5746,-2.4861,-2.4615,-2.4497,-2.4497,-2.4497,-2.5274,-2.673,-2.7069,-2.8119,-2.9754,-3.0113,-3.0457,-3.0811,-3.0949,-3.1123,-3.1371,-3.2123,-3.2847,-3.3596,-3.4361,-3.4986,-3.5504,-3.5504,-3.5504,-3.5504,-3.5504,-3.5504,-3.5504,-3.5504,-3.5504,-3.5549,-3.5729,-3.6118,-3.6923,-3.8688,-4.0213,-4.1482,-4.231,-4.2947,-4.3372,-4.3568,-4.3598,-4.3598,-4.3598,-4.3598,-4.3598,-4.3598,-4.3598,-4.3628,-4.3658,-4.3687,-4.3687,-4.3687,-4.3687,-4.3734,-4.3898,-4.3898,-4.3998,-4.4281,-4.431,-4.4367,-4.4514,-4.4991,-4.5355,-4.5459,-4.6382,-4.6954,-4.7107,-4.7511,-4.7717,-4.7717,-4.7717,-4.7717,-4.7717,-4.7717,-4.7717,-1.8245,-1.8381,-1.8516,-1.8573,0.0,0.0,-2.0553,-2.1087,-2.1869,-2.3402,-2.4022,-2.4417,-2.4957,-2.5062,-2.5631,-2.7395,-2.7354,-2.773,-2.9546,-2.9792,-2.9792,-2.9792,-2.9792,-2.9792,-2.9792,-2.9792,-2.9792,-2.9792,-2.9792,-2.9624,-2.9287,-2.8791,-2.7879,-2.6607,-2.6069,-2.5379,-2.4497,-2.4497,-2.4497,-2.4497,-2.4497,-2.5031,-2.6049,-2.6782,-2.7758,-2.8897,-2.9754,-3.0267,-3.0571,-3.0798,-3.0911,-3.1086,-3.216,-3.2826,-3.3332,-3.4409,-3.51,-3.5504,-3.5504,-3.5504,-3.5504,-3.5504,-3.5504,-3.5504,-3.5504,-3.5504,-3.5504,-3.5504,-3.5983,-3.6752,-3.7906,-3.8995,-4.0151,-4.1389,-4.1992,-4.2551,-4.3426,-4.3598,-4.3598,-4.3598,-4.3598,-4.3598,-4.3598,-4.3598,-4.3598,-4.3598,-4.3598,-4.3598,-4.3598,-4.3598,-4.3628,-4.3763,-4.3763,-4.3881,-4.4126,-4.4126,-4.4184,-4.4286,-4.4818,-4.5197,-4.5381,-4.6262,-4.684,-4.7062,-4.7428,-4.7636,-4.7717,-4.7717,-4.7717,-4.7717,-4.7717,-4.7717,-1.8037,-1.8212,-1.8414,-1.8303,-1.8381,0.0,-2.0727,-2.1055,-2.157,-2.3608,-2.4669,-2.5259,-2.5409,-2.5389,-2.5932,-2.7585,-2.7357,-2.7641,-2.9534,-2.9792,-2.9792,-2.9792,-2.9792,-2.9792,-2.9792,-2.9792,-2.9792,-2.9792,-2.9792,-2.9417,-2.8542,-2.8422,-2.7557,-2.5861,-2.5704,-2.5263,-2.4497,-2.4497,-2.4497,-2.4497,-2.4497,-2.454,-2.47,-2.6329,-2.7151,-2.7354,-2.9263,-3.019,-3.0368,-3.0571,-3.0798,-3.1123,-3.2448,-3.3052,-3.3367,-3.4754,-3.5359,-3.5504,-3.5504,-3.5504,-3.5504,-3.5504,-3.5504,-3.5504,-3.5504,-3.5504,-3.5504,-3.5504,-3.5923,-3.6405,-3.6472,-3.6955,-3.7913,-3.9896,-4.0484,-4.1133,-4.3062,-4.3532,-4.3598,-4.3598,-4.3598,-4.3598,-4.3598,-4.3598,-4.3598,-4.3598,-4.3598,-4.3598,-4.3598,-4.3598,-4.3598,-4.3598,-4.3598,-4.3687,-4.3898,-4.3898,-4.3898,-4.3927,-4.4474,-4.5001,-4.5407,-4.6049,-4.666,-4.7214,-4.7425,-4.7572,-4.7717,-4.7717,-4.7717,-4.7717,-4.7717,-4.7717,-1.8193,-1.8042,-1.8144,-1.8269,-1.8212,0.0,-1.8913,-1.9062,-1.947,-2.089,-2.1476,-2.1956,-2.2807,-2.2906,-2.3036,-2.3714,-2.5066,-2.6936,-2.946,-2.9792,-2.9792,-2.9792,-2.9792,-2.9792,-2.9792,-2.9792,-2.9792,-2.9792,-2.9792,-2.9417,-2.8542,-2.7758,-2.6894,-2.5819,-2.5137,-2.4658,-2.4497,-2.4497,-2.4497,-2.4497,-2.4497,-2.4861,-2.5579,-2.6607,-2.7516,-2.8291,-2.9365,-2.9972,-3.019,-3.0381,-3.0672,-3.1024,-3.1296,-3.2137,-3.3248,-3.3541,-3.4438,-3.5504,-3.5504,-3.5504,-3.5504,-3.5504,-3.5504,-3.5504,-3.5504,-3.5504,-3.5504,-3.5504,-3.5594,-3.5814,-3.6299,-3.6932,-3.7854,-3.9276,-4.0538,-4.164,-4.2508,-4.3168,-4.3598,-4.3598,-4.3598,-4.3598,-4.3598,-4.3598,-4.3598,-4.3598,-4.3598,-4.3598,-4.3598,-4.3598,-4.3598,-4.3598,-4.3598,-4.3687,-4.3898,-4.3898,-4.3956,-4.4039,-4.4167,-4.4474,-4.5018,-4.5563,-4.6116,-4.6731,-4.7232,-4.7572,-4.7717,-4.7717,-4.7717,-4.7717,-4.7717,-4.7717,-1.8242,-1.8008,-1.8008,-1.8144,-1.8144,0.0,0.0,-1.9121,-1.9605,-2.0555,-2.1292,-2.1953,-2.2717,-2.2718,-2.2955,-2.4119,-2.5191,-2.6486,-2.8133,-2.9202,-2.9792,-2.9792,-2.9792,-2.9792,-2.9792,-2.9792,-2.9792,-2.9792,-2.9792,-2.9209,-2.7891,-2.7354,-2.6494,-2.5179,-2.4743,-2.4497,-2.4497,-2.4497,-2.4497,-2.4497,-2.4497,-2.4743,-2.5179,-2.6038,-2.6935,-2.7839,-2.8752,-2.9521,-3.0113,-3.033,-3.0558,-3.0911,-3.1371,-3.2232,-3.3248,-3.363,-3.4491,-3.5504,-3.5504,-3.5504,-3.5504,-3.5504,-3.5504,-3.5504,-3.5504,-3.5504,-3.5504,-3.5504,-3.5504,-3.5569,-3.5878,-3.644,-3.7281,-3.8619,-3.9736,-4.085,-4.2208,-4.2787,-4.3151,-4.3515,-4.3598,-4.3598,-4.3598,-4.3598,-4.3598,-4.3598,-4.3598,-4.3598,-4.3598,-4.3598,-4.3598,-4.3598,-4.3598,-4.3628,-4.3734,-4.3763,-4.3793,-4.3835,-4.3864,-4.4109,-4.468,-4.5214,-4.5935,-4.6888,-4.7201,-4.7381,-4.7511,-4.7554,-4.7636,-4.7717,-4.7717,-4.7717,-1.8291,-1.8008,-1.7988,-1.7978,-1.8049,-1.8254,0.0,0.0,0.0,-2.0421,-2.1252,-2.2017,-2.2496,-2.2347,-2.2639,-2.4191,-2.4815,-2.5313,-2.5822,-2.7695,-2.9064,-2.9214,-2.9566,-2.9704,-2.9529,-2.9504,-2.9591,-2.9779,-2.9629,-2.8819,-2.718,-2.711,-2.6287,-2.454,-2.4497,-2.4497,-2.4497,-2.4497,-2.4497,-2.4497,-2.4497,-2.4497,-2.454,-2.5379,-2.6276,-2.7151,-2.8091,-2.9079,-3.0049,-3.0254,-3.0457,-3.0723,-3.1566,-3.2448,-3.3283,-3.3871,-3.4691,-3.5504,-3.5504,-3.5504,-3.5504,-3.5504,-3.5504,-3.5504,-3.5504,-3.5504,-3.5504,-3.5504,-3.5504,-3.5537,-3.5651,-3.6022,-3.6739,-3.8141,-3.8945,-3.9906,-4.1696,-4.2319,-4.2671,-4.3267,-4.3499,-4.3598,-4.3598,-4.3598,-4.3598,-4.3598,-4.3598,-4.3598,-4.3598,-4.3598,-4.3598,-4.3598,-4.3598,-4.3598,-4.3598,-4.3598,-4.3598,-4.3598,-4.37,-4.4035,-4.4625,-4.5294,-4.6109,-4.7196,-4.7196,-4.7227,-4.7302,-4.7428,-4.7572,-4.7657,-4.7678,-4.7717,-1.8447,-1.8008,-1.7988,-1.7945,-1.7714,-1.7527,-1.7661,0.0,-1.7612,-1.8534,0.0,-1.8786,-1.9544,0.0,0.0,-1.9033,-2.0722,-2.2101,-2.235,-2.4521,-2.6357,-2.7134,-2.8759,-2.9441,-2.857,-2.8469,-2.8848,-2.9716,-2.8962,-2.8074,-2.7134,-2.711,-2.6287,-2.454,-2.4497,-2.4497,-2.4497,-2.4497,-2.4497,-2.4497,-2.4497,-2.4497,-2.454,-2.5379,-2.6276,-2.7151,-2.8091,-2.9,-2.9869,-3.0049,-3.0254,-3.0482,-3.0936,-3.1969,-3.3213,-3.3283,-3.4254,-3.5504,-3.5504,-3.5504,-3.5504,-3.5504,-3.5504,-3.5504,-3.5504,-3.5504,-3.5504,-3.5504,-3.5504,-3.5619,-3.6164,-3.6337,-3.6738,-3.8004,-3.8865,-3.963,-4.0453,-4.1624,-4.2506,-4.2605,-4.3151,-4.3598,-4.3598,-4.3598,-4.3598,-4.3598,-4.3598,-4.3598,-4.3598,-4.3598,-4.3598,-4.3598,-4.3598,-4.3598,-4.3598,-4.3598,-4.3598,-4.3598,-4.4093,-4.4652,-4.5188,-4.6224,-4.6934,-4.7178,-4.7196,-4.7227,-4.7302,-4.7428,-4.7511,-4.7533,-4.7636,-4.7717,-1.834,-1.8369,-1.8654,-1.8247,-1.8456,-1.862,-1.79,-1.7763,-1.7828,-1.7862,0.0,0.0,0.0,0.0,0.0,0.0,-2.018,-2.1416,-2.1549,-2.3754,-2.5635,-2.6308,-2.7233,-2.7932,-2.8254,-2.8303,-2.871,-2.9704,-2.8886,-2.7938,-2.7134,-2.711,-2.6287,-2.454,-2.4497,-2.4497,-2.4497,-2.4497,-2.4497,-2.4497,-2.4497,-2.4497,-2.4497,-2.4861,-2.5799,-2.711,-2.7516,-2.8502,-2.983,-3.0011,-3.0152,-3.0267,-3.0685,-3.1786,-3.3178,-3.3178,-3.4187,-3.5504,-3.5504,-3.5504,-3.5504,-3.5504,-3.5504,-3.5504,-3.5504,-3.5504,-3.5504,-3.5504,-3.5504,-3.5569,-3.5829,-3.6148,-3.6631,-3.756,-3.8293,-3.906,-4.0155,-4.0845,-4.1524,-4.2324,-4.2738,-4.3085,-4.3515,-4.3598,-4.3598,-4.3598,-4.3598,-4.3598,-4.3598,-4.3598,-4.3598,-4.3598,-4.3598,-4.3598,-4.3598,-4.3598,-4.3598,-4.3598,-4.3848,-4.4248,-4.4801,-4.5606,-4.62,-4.6613,-4.6613,-4.6778,-4.7138,-4.6903,-4.6972,-4.7334,-4.7572,-4.7717,-1.8662,-1.8809,-1.9125,-1.8383,-1.8704,-1.8933,-1.7837,-1.7805,-1.7881,-1.7348,-1.7287,0.0,0.0,0.0,-1.7799,-1.8696,0.0,-2.0842,-2.1082,-2.2953,-2.4497,-2.514,-2.5585,-2.6368,-2.7591,-2.7356,-2.7734,-2.9214,-2.8273,-2.747,-2.7122,-2.711,-2.6287,-2.454,-2.4497,-2.4497,-2.4497,-2.4497,-2.4497,-2.4497,-2.4497,-2.4497,-2.4497,-2.4497,-2.5316,-2.6782,-2.6987,-2.7971,-2.9456,-2.9856,-3.0049,-3.0126,-3.0432,-3.1589,-3.3129,-3.3178,-3.4187,-3.5504,-3.5504,-3.5504,-3.5504,-3.5504,-3.5504,-3.5504,-3.5504,-3.5504,-3.5504,-3.5504,-3.5504,-3.5537,-3.5701,-3.6196,-3.6829,-3.7472,-3.8124,-3.8848,-3.9896,-4.026,-4.0707,-4.174,-4.2253,-4.2655,-4.3201,-4.3466,-4.3598,-4.3598,-4.3598,-4.3598,-4.3598,-4.3598,-4.3598,-4.3598,-4.3598,-4.3598,-4.3598,-4.3598,-4.3671,-4.3848,-4.396,-4.4344,-4.4954,-4.5477,-4.5978,-4.6405,-4.6405,-4.6542,-4.6795,-4.6625,-4.6607,-4.6737,-4.732,-4.7615,-1.9717,-1.9268,-1.9092,-1.8148,-1.7795,-1.7501,-1.6951,-1.693,-1.6955,-1.6688,-1.6718,-1.7001,-1.7616,-1.7316,-1.7327,-1.8289,-1.8942,0.0,0.0,-2.1289,-2.2238,-2.3085,-2.401,-2.5016,-2.6171,-2.4997,-2.5268,-2.7947,-2.6787,-2.6323,-2.7076,-2.711,-2.6287,-2.454,-2.4497,-2.4497,-2.4497,-2.4497,-2.4497,-2.4497,-2.4497,-2.4497,-2.4497,-2.4497,-2.4978,-2.5902,-2.673,-2.7637,-2.8633,-2.9456,-2.9934,-3.0113,-3.0113,-3.1281,-3.2925,-3.3143,-3.4187,-3.5504,-3.5504,-3.5504,-3.5504,-3.5504,-3.5504,-3.5504,-3.5504,-3.5504,-3.5504,-3.5504,-3.5504,-3.5619,-3.6227,-3.6875,-3.7501,-3.8137,-3.8772,-3.9272,-3.9332,-3.9912,-4.0426,-4.0475,-4.1574,-4.2489,-4.2522,-4.3118,-4.3598,-4.3598,-4.3598,-4.3598,-4.3598,-4.3598,-4.3598,-4.3598,-4.3598,-4.3598,-4.3598,-4.3598,-4.3848,-4.4418,-4.4947,-4.5528,-4.6137,-4.6661,-4.6957,-4.6957,-4.6957,-4.6749,-4.6235,-4.6865,-4.6602,-4.5588,-4.6753,-4.7385,-2.0331,-2.0595,-2.0703,-1.934,-1.9467,-1.9499,-1.7878,-1.7617,-1.7506,-1.6709,-1.6558,-1.6658,-1.687,-1.6779,-1.685,-1.7394,-1.8347,-1.9218,0.0,-2.109,-2.2165,-2.2469,-2.3516,-2.455,-2.5317,-2.5515,-2.6339,-2.8093,-2.7769,-2.7359,-2.7111,-2.711,-2.6287,-2.454,-2.4497,-2.4497,-2.4497,-2.4497,-2.4497,-2.4497,-2.4497,-2.4497,-2.4497,-2.4497,-2.4978,-2.5872,-2.673,-2.7637,-2.8581,-2.9456,-2.983,-2.9895,-3.0049,-3.1169,-3.2749,-3.2918,-3.407,-3.5504,-3.5504,-3.5504,-3.5504,-3.5504,-3.5504,-3.5504,-3.5504,-3.5504,-3.5504,-3.5504,-3.5504,-3.5651,-3.6227,-3.6569,-3.7011,-3.8051,-3.8463,-3.8772,-3.9202,-3.9497,-3.9829,-4.031,-4.0763,-4.1243,-4.1707,-4.2373,-4.3035,-4.3515,-4.3598,-4.3598,-4.3598,-4.3598,-4.3598,-4.3598,-4.3598,-4.3598,-4.3598,-4.3598,-4.3687,-4.3889,-4.4457,-4.4691,-4.4485,-4.5381,-4.5885,-4.5885,-4.5885,-4.6151,-4.6731,-4.62,-4.5935,-4.5953,-4.5968,-4.6286,-2.1153,-2.1486,-2.1584,-2.0345,-2.0508,-2.0502,-1.8566,-1.8238,-1.7996,-1.6717,-1.6437,-1.6507,-1.6764,-1.6756,-1.6836,-1.7283,-1.8238,-1.9183,0.0,-2.1253,-2.2197,-2.2197,-2.2914,-2.3781,-2.468,-2.4817,-2.566,-2.7607,-2.7267,-2.6867,-2.6633,-2.6619,-2.5966,-2.454,-2.4497,-2.4497,-2.4497,-2.4497,-2.4497,-2.4497,-2.4497,-2.4497,-2.4497,-2.4497,-2.4818,-2.5379,-2.6577,-2.7435,-2.8091,-2.93,-2.9792,-2.9792,-2.9934,-3.1033,-3.2536,-3.2798,-3.3988,-3.5504,-3.5504,-3.5504,-3.5504,-3.5504,-3.5504,-3.5504,-3.5504,-3.5504,-3.5504,-3.5504,-3.5651,-3.591,-3.629,-3.6753,-3.7265,-3.8108,-3.849,-3.8772,-3.9202,-3.9299,-3.9448,-3.9928,-4.0227,-4.0558,-4.0961,-4.1657,-4.2357,-4.3085,-4.3416,-4.3598,-4.3598,-4.3598,-4.3598,-4.3598,-4.3598,-4.3598,-4.3598,-4.3598,-4.3598,-4.3598,-4.4179,-4.435,-4.3935,-4.4811,-4.5303,-4.5303,-4.5503,-4.5877,-4.6387,-4.6077,-4.5784,-4.5615,-4.5606,-4.5665]}]]